     2              OBSERVATION DATA    GPS                 RINEX VERSION / TYPE
ASRINEXO V2.9.7 UX USGS/MENLO_PARK 11-JUN-01 15:57          PGM / RUN BY / DATE
                                                            COMMENT
BIT 2 OF LLI (+4) FLAGS DATA COLLECTED UNDER "AS" CONDITION COMMENT
BIT 2 OF LLI (+4) FLAGS DATA COLLECTED UNDER "AS" CONDITION COMMENT
BIT 2 OF LLI (+4) FLAGS DATA COLLECTED UNDER "AS" CONDITION COMMENT
BIT 2 OF LLI (+4) FLAGS DATA COLLECTED UNDER "AS" CONDITION COMMENT
BIT 2 OF LLI (+4) FLAGS DATA COLLECTED UNDER "AS" CONDITION COMMENT
BIT 2 OF LLI (+4) FLAGS DATA COLLECTED UNDER "AS" CONDITION COMMENT
BIT 2 OF LLI (+4) FLAGS DATA COLLECTED UNDER "AS" CONDITION COMMENT
BIT 2 OF LLI (+4) FLAGS DATA COLLECTED UNDER "AS" CONDITION COMMENT
Original Marker Name: mnmt Mine_Mt_1962_DWR                 COMMENT
Campaign Name: USGS-Parkfield                               COMMENT
4-Character Station Name: MNMT                              COMMENT
6-Character Antenna Code: DMRCHT                            COMMENT
Vertical Measurement Point: BCR                             COMMENT
Vertical Offset to Rinex Ref. Point: 0.0348                 COMMENT
Radial Measurement Point: ECF                               COMMENT
Radial Offset to Rinex Ref. Point: 0.1897                   COMMENT
Antenna Height from Field Measurement: 1.2590 m             COMMENT
Additional Antenna Identification Info.:                    COMMENT
Turborogue and Ashtech Choke Ring                           COMMENT
Original XYZ: -2618338.3293 -4456636.3281 3726100.6135      COMMENT
New XYZ position is based on association with SCEC monument COMMENT
E1F1N4M3+0011. Position of that monument is believed to be  COMMENT
valid to within 1 m horizontally; vertical accuracy         COMMENT
should be no worse than 3-times this value.                 COMMENT
                                                            COMMENT
Revised Rinex header created by UCSD GPS archive for        COMMENT
GSAC on 18-Oct-2001 (2001:291) 15:29:09 GMT                 COMMENT
For assistance contact dagnew@ucsd.edu                      COMMENT
or anderson@python.ucsd.edu                                 COMMENT
                                                            COMMENT
MINE MT 1962                                                MARKER NAME
CHS US GEOLOGICAL SURVEY                                    OBSERVER / AGENCY
LP019992803 ASHTECH Z-XII3 CD00                             REC # / TYPE / VERS
CR519993702 DORNE-MARGOL. TYPE T                            ANT # / TYPE
 -2618331.9026 -4456618.8137  3726072.0447                  APPROX POSITION XYZ
        1.2098        0.0000        0.0000                  ANTENNA: DELTA H/E/N
     1     1     0                                          WAVELENGTH FACT L1/2
     5    C1    L1    L2    P1    P2                        # / TYPES OF OBSERV
    30                                                      INTERVAL
  2001     5    25     0     1    0.000000                  TIME OF FIRST OBS
  2001     5    25    23    59    0.000000                  TIME OF LAST OBS
                                                            END OF HEADER
 01  5 25  0  1  0.0000000  0 10 25 31 21 03 14 15 18 29 09 23
  24495389.615    -5837674.221 7  -4509558.08945  24495389.026    24495405.2644
  22397122.263   -10093571.005 8  -7583626.96946  22397121.685    22397128.8324
  21044976.731   -22113503.102 8 -16950486.41346  21044976.106    21044982.4694
  22356926.606   -14300894.497 8 -11116156.65746  22356926.162    22356935.3934
  20260989.227   -21485528.284 9 -16727404.35047  20260988.719    20260993.7774
  22639286.902   -17820087.577 7 -13333980.39545  22639286.019    22639295.9054
  22801988.501    -7715221.662 7  -5955844.48845  22801987.424    22801994.6124
  20461139.261   -18425844.710 9 -14335523.29947  20461139.088    20461144.9084
  24041847.034     1092467.146 7    934140.95245  24041846.276    24041854.7714
  23699838.365    -5435531.616 7                  23699837.603    23699845.6094
 01  5 25  0  1 30.0000000  0 10 25 31 21 03 14 15 18 29 09 23
  24476892.920    -5934873.169 7  -4585297.08845  24476892.251    24476908.6584
  22399642.267   -10080329.608 8  -7573309.03546  22399641.560    22399648.7584
  21046629.504   -22104816.545 8 -16943717.68146  21046628.962    21046635.4724
  22369855.394   -14232952.671 8 -11063215.07346  22369855.022    22369864.2314
  20257596.581   -21503357.216 8 -16741296.98747  20257596.028    20257601.0094
  22656187.721   -17731273.228 8 -13264774.55546  22656186.958    22656196.9374
  22814811.287    -7647836.170 7  -5903336.40144  22814810.197    22814817.5844
  20455013.932   -18458033.146 9 -14360605.14647  20455013.719    20455019.6644
  24051480.989     1143094.380 7    973590.70045  24051480.367    24051488.7134
  23711651.064    -5373456.337 7                  23711650.375    23711658.4304
 01  5 25  0  2  0.0000000  0 10 25 31 21 03 14 15 18 29 09 23
  24458387.321    -6032120.833 7  -4661074.07045  24458386.372    24458402.7944
  22402267.642   -10066532.672 8  -7562558.24946  22402266.983    22402274.3064
  21048311.708   -22095977.044 8 -16936829.76646  21048311.077    21048317.4794
  22382850.856   -14164660.311 8 -11010000.36646  22382850.525    22382859.8944
  20254303.607   -21520661.063 8 -16754780.46447  20254303.078    20254308.1694
  22673142.715   -17642175.786 8 -13195348.15046  22673141.900    22673151.7504
  22827649.505    -7580368.027 7  -5850763.91745  22827648.698    22827656.2124
  20448977.665   -18489753.899 9 -14385322.56247  20448977.438    20448983.4504
  24061214.899     1194246.822 7   1013449.73045  24061214.568    24061222.4824
  23723471.174    -5311345.300 7  -4124228.24054  23723470.451    23723478.1854
 01  5 25  0  2 30.0000000  0 10 25 31 21 03 14 15 18 29 09 23
  24439872.367    -6129415.722 7  -4736887.87945  24439871.290    24439888.0304
  22404998.488   -10052181.916 8  -7551375.88946  22404997.863    22405005.2124
  21050022.742   -22086985.127 8 -16929823.07946  21050022.173    21050028.5884
  22395912.489   -14096020.702 8 -10956515.05946  22395912.073    22395921.6564
  20251110.391   -21537440.945 9 -16767855.66347  20251109.928    20251115.0744
  22690151.132   -17552797.435 8 -13125702.83246  22690150.256    22690159.9714
  22840503.894    -7512818.368 7  -5798127.87245  22840503.298    22840510.2754
  20443030.266   -18521007.683 9 -14409676.13247  20443030.015    20443036.1374
  24071048.203     1245922.536 7   1053716.53245  24071047.743    24071056.2304
  23735297.707    -5249199.326 7  -4075802.88544  23735297.185    23735304.8374
 01  5 25  0  3  0.0000000  0 10 25 31 21 03 14 15 18 29 09 23
  24421348.616    -6226754.577 7  -4812735.92745  24421347.735    24421364.8874
  22407834.596   -10037277.767 8  -7539762.28546  22407833.989    22407841.4074
  21051763.183   -22077840.216 8 -16922697.18146  21051762.508    21051768.9124
  22409039.814   -14027036.230 8 -10902761.05246  22409039.385    22409049.0024
  20248017.138   -21553696.559 9 -16780522.33947  20248016.630    20248021.7264
  22707212.745   -17463138.769 8 -13055839.11346  22707211.904    22707221.6734
  22853373.722    -7445186.877 8  -5745428.03245  22853373.229    22853380.0294
  20437171.673   -18551794.067 9 -14433665.47047  20437171.441    20437177.7204
  24080980.840     1298120.823 7   1094390.51844  24080980.214    24080989.2064
  23747130.970    -5187017.373 7  -4027349.54144  23747130.094    23747139.0694
 01  5 25  0  3 30.0000000  0 10 25 31 21 03 14 15 18 29 09 23
  24402816.840    -6324134.948 7  -4888616.24844  24402816.103    24402833.6134
  22410775.985   -10021821.833 8  -7527718.73846  22410775.303    22410782.5564
  21053532.569   -22068541.990 8 -16915451.82146  21053531.953    21053538.2654
  22422232.222   -13957709.791 8 -10848740.55246  22422231.812    22422241.5154
  20245023.448   -21569428.461 9 -16792780.93347  20245022.912    20245027.9694
  22724327.601   -17373200.925 8 -12985757.85446  22724326.745    22724336.3204
  22866259.497    -7377473.750 8  -5692664.62345  22866258.997    22866265.1624
  20431402.098   -18582112.924 9 -14457290.50847  20431401.845    20431408.1724
  24091013.190     1350839.692 7   1135470.16445  24091012.708    24091021.2054
  23758970.971    -5124799.593 7  -3978868.26944  23758969.888    23758979.6784
 01  5 25  0  4  0.0000000  0 10 25 31 21 03 14 15 18 29 09 23
  24384277.713    -6421554.968 7  -4964527.51845  24384276.859    24384295.0464
  22413821.724   -10005815.908 8  -7515246.64546  22413821.134    22413828.6594
  21055331.018   -22059091.271 8 -16908087.63546  21055330.438    21055336.6814
  22435489.117   -13888044.664 8 -10794456.15046  22435488.714    22435498.4234
  20242129.215   -21584637.846 9 -16804632.36447  20242128.706    20242133.6544
  22741495.090   -17282986.070 8 -12915460.73645  22741494.241    22741503.7794
  22879160.681    -7309680.186 8  -5639838.53545  22879159.896    22879165.7994
  20425721.291   -18611965.222 9 -14480552.00047  20425721.078    20425727.3194
  24101144.188     1404076.924 7   1176953.68145  24101143.475    24101151.7784
  23770817.525    -5062546.327 7  -3930359.31144  23770815.957    23770826.4534
 01  5 25  0  4 30.0000000  0 10 25 31 21 03 14 15 18 29 09 23
  24365731.773    -6519011.460 7  -5040467.24945  24365731.155    24365749.2664
  22416972.272    -9989260.590 8  -7502346.44446  22416971.623    22416979.3184
  21057158.563   -22049487.420 8 -16900604.13046  21057157.963    21057164.2744
  22448810.388   -13818043.599 8 -10739909.99746  22448809.912    22448819.3714
  20239334.440   -21599324.694 9 -16816076.62447  20239333.901    20239338.7004
  22758715.028   -17192495.178 8 -12844948.51045  22758714.269    22758723.8934
  22892076.718    -7241806.155 8  -5586949.72445  22892075.997    22892082.0744
  20420129.461   -18641350.731 9 -14503449.75447  20420129.229    20420135.3704
  24111373.200     1457831.534 7   1218840.30644  24111372.692    24111380.5034
  23782670.731    -5000257.363 7                  23782669.598    23782677.8894
 01  5 25  0  5  0.0000000  0 10 25 31 21 03 14 15 18 29 09 23
  24347179.469    -6616502.022 7  -5116433.50545  24347179.130    24347196.7854
  22420227.201    -9972157.012 8  -7489019.02746  22420226.450    22420234.3064
  21059015.288   -22039730.198 8 -16893001.11046  21059014.658    21059021.1214
  22462194.938   -13747709.371 8 -10685104.21946  22462194.366    22462203.7634
  20236638.889   -21613489.474 9 -16827114.08547  20236638.337    20236643.1454
  22775987.496   -17101729.536 8 -12774222.22645  22775986.771    22775996.2114
  22905008.242    -7173851.757 8  -5533998.33245  22905007.333    22905014.0684
  20414626.386   -18670269.416 9 -14525983.75247  20414626.128    20414632.2904
  24121700.387     1512101.941 7   1261128.82244  24121699.886    24121708.0714
  23794530.570                                    23794529.279    23794536.8914
 01  5 25  0  5 30.0000000  0 11 25 31 11 21 03 14 15 18 29 09 23
  24328621.160    -6714024.765 7  -5192424.84445  24328620.996    24328638.4084
  22423585.856    -9954506.964 8  -7475265.78646  22423585.105    22423593.3694
  24720257.705    -6366179.815 8  -4946606.09245  24720257.291    24720265.2174
  21060901.031   -22029820.548 8 -16885279.31546  21060900.362    21060906.8514
  22475642.096   -13677045.329 8 -10630041.47346  22475641.586    22475650.9214
  20234042.513   -21627133.276 9 -16837745.59647  20234041.994    20234046.8084
  22793311.866   -17010690.739 8 -12703283.08945  22793311.099    22793320.4574
  22917955.031    -7105817.701 8  -5480984.86045  22917954.151    22917960.8544
  20409212.102   -18698721.726 9 -14548154.34247  20409211.867    20409218.0004
  24132125.418     1566885.670 7   1303817.39744  24132124.818    24132132.7564
  23806397.502                                    23806396.006    23806402.2964
 01  5 25  0  6  0.0000000  0 11 25 31 11 21 03 14 15 18 29 09 23
  24310057.064    -6811580.242 8  -5268441.67445  24310056.678    24310073.6254
  22427047.540    -9936314.792 8  -7461090.12246  22427046.839    22427055.3144
  24700931.657    -6467740.006 8  -5025743.81145  24700931.301    24700939.1654
  21062815.211   -22019760.935 8 -16877440.67746  21062814.567    21062821.1144
  22489151.124   -13606057.166 8 -10574726.15646  22489150.505    22489159.7744
  20231544.773   -21640259.442 9 -16847973.74747  20231544.233    20231548.9634
  22810687.117   -16919383.231 8 -12632134.53345  22810686.361    22810695.9304
  22930915.979    -7037707.316 8  -5427911.91545  22930915.038    22930921.8064
  20403885.968   -18726710.948 9 -14569964.09347  20403885.694    20403891.7434
  24142646.890     1622178.337 7   1346902.55044  24142646.496    24142654.2214
  23818270.352                                    23818273.707    23818276.6654
 01  5 25  0  6 30.0000000  0 11 25 31 11 21 03 14 15 18 29 09 23
  24291488.557    -6909159.701 7  -5344477.21245  24291487.823    24291504.2944
  22430613.218    -9917576.115 8  -7446488.62746  22430612.590    22430621.2114
  24681613.402    -6569258.522 8  -5104849.06545  24681613.005    24681620.9404
  21064759.174   -22009545.302 8 -16869480.45846  21064758.551    21064765.1114
  22502721.907   -13534741.912 8 -10519155.96046  22502721.360    22502730.7844
  20229146.445   -21652862.809 9 -16857794.53547  20229145.914    20229150.5894
  22828114.459   -16827802.523 7 -12560773.08945  22828113.706    22828123.3124
  22943892.718    -6969514.799 7  -5374775.01545  22943891.884    22943898.4844
  20398648.918   -18754231.389 9 -14591408.55947  20398648.659    20398654.6924
  24153266.017     1677984.096 7   1390387.47845  24153265.362    24153274.2424
  23830150.608                                    23830154.152    23830161.0054
 01  5 25  0  7  0.0000000  0 11 25 31 11 21 03 14 15 18 29 09 23
  24272915.206    -7006761.464 7  -5420530.08745  24272914.573    24272930.8124
  22434282.590    -9898292.982 8  -7431462.83746  22434281.951    22434290.7734
  24662303.064    -6670734.060 7  -5183920.81645  24662302.694    24662310.8304
  21066732.713   -21999174.462 8 -16861399.31346  21066732.055    21066738.6764
  22516354.285   -13463103.130 8 -10463333.67546  22516353.773    22516363.3564
  20226847.405   -21664944.571 9 -16867208.87747  20226846.865    20226851.5224
  22845593.238   -16735950.648 7 -12489200.35045  22845592.656    22845602.2834
  22956884.382    -6901241.225 7  -5321574.94644  22956883.620    22956890.4754
  20393500.933   -18781283.957 9 -14612488.44147  20393500.693    20393506.7054
  24163982.842     1734300.352 7   1434270.23345  24163982.302    24163991.0924
  23842038.307                                    23842041.853    23842038.1764
 01  5 25  0  7 30.0000000  0 11 25 31 11 21 03 14 15 18 29 09 23
  24254337.678    -7104383.229 7  -5496598.57544  24254337.013    24254353.2794
  22438055.237    -9878466.611 8  -7416013.74946  22438054.698    22438063.8534
  24643000.979    -6772165.116 7  -5262957.89345  24643000.487    24643009.1384
  21068735.580   -21988648.541 8 -16853197.33046  21068734.988    21068741.6954
  22530047.541   -13391143.845 8 -10407261.60446  22530047.033    22530056.8704
  20224647.361   -21676505.574 9 -16876217.43147  20224646.848    20224651.5064
  22863123.437   -16643828.954 7 -12417417.33345  22863122.532    22863132.4814
  22969891.110    -6832887.196 7  -5268312.17244  22969890.755    22969898.0514
  20388441.953   -18807868.926 9 -14633203.96147  20388441.695    20388447.7414
  24174796.549     1791125.404 7   1478549.48145  24174796.047    24174804.9944
  23853933.263                                    23853937.887    23853940.8454
 01  5 25  0  8  0.0000000  0 11 25 31 11 21 03 14 15 18 29 09 23
  24235756.440    -7202022.882 7  -5572681.02944  24235756.147    24235772.5094
  22441931.327    -9858098.542 8  -7400142.55246  22441930.734    22441939.9734
  24623707.476    -6873550.204 7  -5341959.15744  24623707.005    24623715.5214
  21070768.066   -21977967.791 8 -16844874.68746  21070767.421    21070774.0654
  22543801.148   -13318867.491 8 -10350942.48746  22543800.672    22543810.6944
  20222546.330   -21687546.805 9 -16884820.95947  20222545.743    20222550.4214
  22880704.076   -16551439.174 7 -12345425.44445  22880703.060    22880713.6984
  22982913.903    -6764453.209 7  -5214987.09544  22982913.173    22982920.3664
  20383471.901   -18833987.051 9 -14653555.70447  20383471.606    20383477.5604
  24185706.718     1848457.172 7   1523223.58145  24185706.174    24185714.9594
  23865835.438                                    23865840.008    23865854.4114
 01  5 25  0  8 30.0000000  0 11 25 31 11 21 03 14 15 18 29 09 23
  24217172.194    -7299678.405 7  -5648775.81244  24217172.002    24217188.5114
  22445910.165    -9837191.374 8  -7383851.28246  22445909.529    22445918.5254
  24604422.929    -6974887.901 7  -5420923.47244  24604422.333    24604431.4034
  21072829.930   -21967132.759 8 -16836431.81346  21072829.363    21072835.8514
  22557614.590   -13246277.578 8 -10294379.02546  22557614.108    22557624.1914
  20220543.871   -21698069.626 8 -16893020.53747  20220543.289    20220547.9574
  22898335.139   -16458783.340 7 -12273226.22745  22898334.502    22898345.4304
  22995951.736    -6695940.344 7  -5161600.54144  22995951.154    22995958.0464
  20378590.423   -18859639.271 9 -14673544.40947  20378590.096    20378596.0794
  24196712.730     1906293.162 7   1568290.55245  24196712.144    24196721.0244
  23877744.844                                    23877749.263    23877784.1704
 01  5 25  0  9  0.0000000  0 11 25 31 11 21 03 14 15 18 29 09 23
  24198585.476    -7397348.255 7  -5724881.80044  24198585.158    24198601.7894
  22449991.237    -9815747.831 8  -7367142.08246  22449990.515    22449999.0274
  24585147.519    -7076177.951 7  -5499850.63244  24585147.509    24585156.1484
  21074921.125   -21956144.422 8 -16827869.48846  21074920.446    21074926.8734
  22571487.298   -13173378.394 8 -10237574.61746  22571486.704    22571496.3374
  20218639.677   -21708075.776 9 -16900817.51447  20218639.088    20218643.7474
  22916017.521   -16365864.239 7 -12200821.90845  22916016.710    22916027.7174
  23009004.558    -6627350.099 7  -5108153.67344  23009003.328    23009010.0144
  20373797.293   -18884826.955 9 -14693171.12947  20373797.024    20373802.9344
  24207814.242     1964630.244 7   1613748.00645  24207813.479    24207822.2354
  23889661.565                                    23889668.741    23889657.0464
 01  5 25  0  9 30.0000000  0 11 25 31 11 21 03 14 15 18 29 09 23
  24179997.795    -7495029.401 7  -5800996.55945  24179997.386    24180013.5624
  22454173.834    -9793768.194 8  -7350015.14146  22454173.219    22454181.6034
  24565881.336    -7177417.476 7  -5578738.51644  24565881.404    24565890.8044
  21077041.592   -21945001.575 8 -16819186.76046  21077040.918    21077047.2974
  22585418.230   -13100172.325 8 -10180531.06246  22585417.610    22585426.9954
  20216833.926   -21717564.968 9 -16908211.64647  20216833.387    20216837.9544
  22933750.165   -16272682.163 7 -12128212.66545  22933749.215    22933759.9524
  23022072.277    -6558681.704 6  -5054645.97144  23022071.361    23022076.7304
  20369092.773   -18909549.870 9 -14712435.69347  20369092.530    20369098.2444
  24219010.113     2023467.670 7   1659595.37045  24219009.260    24219018.7294
  23901584.797                                    23901591.997    23901580.6054
 01  5 25  0 10  0.0000000  0 11 25 31 11 21 03 14 15 18 29 09 23
  24161408.353    -7592718.393 7  -5877117.38545  24161408.185    24161423.5964
  22458458.513    -9771253.208 8  -7332471.02746  22458457.892    22458466.0854
  24546625.816    -7278603.895 7  -5657584.96344  24546626.015    24546635.2214
  21079191.570   -21933703.667 8 -16810383.20446  21079190.919    21079197.2324
  22599407.074   -13026661.248 8 -10123249.87846  22599406.486    22599415.5984
  20215126.526   -21726537.459 8 -16915203.17247  20215125.989    20215130.5664
  22951531.706   -16179237.894 7 -12055399.11145  22951531.026    22951542.1574
  23035155.043    -6489934.856 6                  23035152.798    23035158.0504
  20364476.916   -18933807.107 9 -14731337.39147  20364476.596    20364482.2454
  24230300.958     2082804.227 7   1705831.66045  24230300.342    24230310.4094
  23913514.758                                    23913522.478    23913516.7014
 01  5 25  0 10 30.0000000  0 10 25 31 11 21 03 14 15 29 09 23
  24142817.443    -7690413.706 8  -5953243.16845  24142817.245    24142832.3024
  22462844.867    -9748205.164 8  -7314511.57346  22462844.116    22462851.9684
  24527380.633    -7379736.213 7  -5736389.23044  24527380.916    24527390.2824
  21081370.977   -21922251.261 8 -16801459.24046  21081370.311    21081376.5904
  22613453.275   -12952848.842 8 -10065733.80546  22613452.771    22613461.4114
  20213517.193   -21734994.503 8 -16921793.04947  20213516.674    20213521.2444
  22969363.077   -16085533.633 7 -11982382.96445  22969362.430    22969373.4814
  20359949.124   -18957600.097 9 -14749877.34647  20359948.851    20359954.5654
  24241686.873     2142637.232 7   1752454.77345  24241686.289    24241696.1354
  23925452.427                                    23925457.605    23925608.5674
 01  5 25  0 11  0.0000000  0 10 25 31 11 21 03 14 15 29 09 23
  24124224.999    -7788117.029 8  -6029375.15945  24124224.767    24124239.5104
  22467331.134    -9724630.134 8  -7296141.45246  22467330.282    22467338.2034
  24508146.075    -7480816.831 7  -5815153.24345  24508146.003    24508155.4954
  21083578.744   -21910648.870 8 -16792418.40846  21083578.153    21083584.5544
  22627555.512   -12878742.613 8 -10007988.79546  22627555.000    22627563.2234
  20212004.964   -21742941.532 8 -16927985.50247  20212004.391    20212008.9234
  22987243.243   -15991575.622 7 -11909169.09745  22987242.483    22987253.0454
  20355508.833   -18980933.628 9 -14768059.28447  20355508.575    20355514.2944
  24253166.168     2202960.297 7   1799459.71945  24253165.791    24253175.3104
  23937396.455                                    23937401.427    23937398.7274
 01  5 25  0 11 30.0000000  0 10 25 31 11 21 03 14 15 29 09 23
  24105632.761    -7885818.490 8  -6105505.74245  24105632.728    24105647.1324
  22471918.490    -9700522.318 8  -7277356.17946  22471917.675    22471925.6934
  24488922.820    -7581836.799 7  -5893869.98745  24488922.503    24488931.6994
  21085816.754   -21898888.609 8 -16783254.58246  21085816.093    21085822.5504
  22641714.119   -12804338.368 8  -9950011.61546  22641713.678    22641721.8604
  20210590.883   -21750372.056 8 -16933775.49347  20210590.320    20210594.9084
  23005172.669   -15897357.866 7 -11835752.82045  23005172.011    23005182.0134
  20351157.317   -19003800.937 9 -14785877.93047  20351157.087    20351162.7364
  24264739.859     2263778.712 7   1846850.65045  24264739.421    24264748.6584
  23949348.178                                    23949352.923    23949364.5024
 01  5 25  0 12  0.0000000  0 10 25 31 11 21 03 14 15 29 09 23
  24087041.444    -7983516.020 8  -6181633.29245  24087041.239    24087055.3554
  22476606.820    -9675883.802 8  -7258157.35946  22476606.109    22476614.2134
  24469711.286    -7682794.424 7  -5972538.10444  24469710.781    24469720.0744
  21088084.467   -21886971.187 8 -16773968.28246  21088083.834    21088090.3614
  22655928.645   -12729639.442 8  -9891804.79945  22655928.337    22655936.6584
  20209274.778   -21757287.179 8 -16939163.87647  20209274.271    20209278.9134
  23023150.960   -15802882.167 7 -11762135.54445  23023150.244    23023160.3214
  20346894.412   -19026202.685 9 -14803333.79547  20346894.148    20346899.7674
  24276406.955     2325090.237 7   1894625.80644  24276406.715    24276415.7794
  23961307.633                                    23961313.832    23961420.8374
 01  5 25  0 12 30.0000000  0 10 25 31 11 21 03 14 15 29 09 23
  24068450.816    -8081208.168 8  -6257756.63545  24068450.519    24068464.4254
  22481395.910    -9650717.103 8  -7238546.96346  22481395.174    22481403.3174
  24450511.902    -7783688.776 7  -6051156.98844  24450511.172    24450520.0234
  21090382.040   -21874896.859 8 -16764559.72746  21090381.483    21090388.0284
  22670198.746   -12654649.838 8  -9833371.47145  22670198.479    22670206.8134
  20208056.485   -21763688.686 8 -16944152.04347  20208056.034    20208060.6854
  23041177.967   -15708150.921 7 -11688319.12245  23041177.105    23041187.1004
  20342719.777   -19048140.314 9 -14820428.01147  20342719.518    20342725.0874
  24288167.317     2386892.015 7   1942782.97244  24288167.252    24288176.4474
  23973274.306                                    23973280.408    23973289.1994
 01  5 25  0 13  0.0000000  0 10 25 31 11 21 03 14 15 29 09 23
  24049861.680    -8178892.255 8  -6333873.72345  24049861.328    24049875.1564
  22486285.237    -9625023.859 8  -7218526.32346  22486284.449    22486292.7464
  24431325.042    -7884518.101 7  -6129725.13445  24431324.465    24431332.6714
  21092709.670   -21862665.642 8 -16755028.92146  21092709.051    21092715.6094
  22684523.552   -12579372.459 8  -9774713.88645  22684523.301    22684531.8674
  20206935.924   -21769577.478 8 -16948740.68047  20206935.420    20206940.0444
  23059253.136   -15613165.469 8 -11614304.61845  23059252.491    23059262.3834
  20338633.455   -19069614.071 9 -14837160.76647  20338633.118    20338638.6584
  24300020.787     2449181.975 7   1991320.55344  24300020.506    24300029.6314
  23985247.781                                    23985254.539    23985290.9884
 01  5 25  0 13 30.0000000  0 10 25 31 11 21 03 14 15 29 09 23
  24031274.672    -8276565.446 8  -6409982.29345  24031274.266    24031288.1904
  22491274.310    -9598805.571 8  -7198096.53246  22491273.655    22491281.8584
  24412150.739    -7985280.197 7  -6208240.89045  24412150.170    24412157.8074
  21095067.173   -21850277.568 8 -16745375.88646  21095066.509    21095073.0224
  22698902.633   -12503809.934 8  -9715834.14545  22698902.238    22698911.1324
  20205912.838   -21774953.926 8 -16952930.09547  20205912.318    20205916.8524
  23077376.504   -15517927.122 8 -11540093.09945  23077375.855    23077386.0984
  20334635.194   -19090624.257 9 -14853532.30347  20334634.905    20334640.4954
  24311967.082     2511958.376 7   2040237.25544  24311966.625    24311975.4644
  23997229.520                                    23997237.093    23997314.7984
 01  5 25  0 14  0.0000000  0 10 25 31 11 21 03 14 15 29 09 23
  24012690.062    -8374225.839 8  -6486080.89345  24012689.682    24012703.8114
  22496362.962    -9572064.894 8  -7177259.69846  22496362.293    22496370.1204
  24392989.100    -8085974.099 8  -6286703.48445  24392988.446    24392996.5834
  21097454.261   -21837733.315 8 -16735601.14946  21097453.587    21097459.9874
  22713335.125   -12427966.505 8  -9656735.50145  22713334.805    22713344.0654
  20204986.927   -21779820.000 8 -16956721.81047  20204986.379    20204990.7014
  23095547.568   -15422438.243 8 -11465686.36445  23095546.965    23095557.5144
  20330724.986   -19111172.137 9 -14869543.59547  20330724.752    20330730.3324
  24324005.234     2575218.613 7   2089530.94744  24324005.021    24324013.5824
  24009219.160                                    24009226.213    24009217.4064
 01  5 25  0 14 30.0000000  0 10 25 31 11 21 03 14 15 29 09 23
  23994108.466    -8471870.481 8  -6562167.22545  23994108.245    23994122.5354
  22501550.368    -9544803.036 8  -7156016.74246  22501549.771    22501557.5204
  24373841.233    -8186597.254 8  -6365110.98445  24373840.661    24373848.9564
  21099871.211   -21825032.374 8 -16725704.31546  21099870.554    21099876.7534
  22727820.651   -12351844.521 8  -9597419.79346  22727820.248    22727829.9144
  20204158.151   -21784176.124 8 -16960116.15447  20204157.453    20204161.6904
  23113766.065   -15326700.020 8 -11391085.32245  23113765.373    23113776.2744
  20326902.867   -19131257.782 9 -14885194.71247  20326902.618    20326908.1334
  24336135.009     2638960.791 7   2139200.17544  24336134.723    24336142.9574
  24021215.905                                    24021222.888    24021230.8804
 01  5 25  0 15  0.0000000  0 10 25 31 11 21 03 14 15 29 09 23
  23975530.555    -8569496.815 8  -6638239.29245  23975530.286    23975544.7524
  22506837.002    -9517021.122 8  -7134368.53146  22506836.391    22506844.1414
  24354707.315    -8287147.371 8  -6443461.56545  24354706.877    24354715.1184
  21102318.344   -21812173.821 8 -16715684.68646  21102317.639    21102323.5344
  22742358.764   -12275446.566 8  -9537889.04246  22742358.482    22742368.2154
  20203425.981   -21788022.806 8 -16963113.55547  20203425.340    20203429.6574
  23132031.852   -15230713.414 8 -11316290.76545  23132031.257    23132042.0984
  20323168.534   -19150881.261 9 -14900485.70047  20323168.314    20323173.8854
  24348356.556     2703183.345 7   2189243.61244  24348356.823    24348363.8504
  24033220.248                                    24033224.929    24033170.7614
 01  5 25  0 15 30.0000000  0 10 25 31 11 21 03 14 15 29 09 23
  23956956.712    -8667103.370 8  -6714295.95745  23956956.285    23956970.6874
  22512222.200    -9488722.175 8  -7112317.43546  22512221.543    22512229.3824
  24335587.393    -8387623.498 8  -6521754.51845  24335587.043    24335595.3064
  21104795.235   -21799158.917 8 -16705543.20546  21104794.465    21104800.0904
  22756949.068   -12198777.139 8  -9478146.76846  22756948.551    22756958.1654
  20202790.492   -21791361.959 8 -16965715.47347  20202789.900    20202794.2424
  23150344.368   -15134481.262 8 -11241304.90245  23150343.760    23150354.2914
  20319521.850   -19170044.289 9 -14915417.89847  20319521.638    20319527.2814
  24360667.763                                    24360668.658    24360674.0594
  24045232.574                                    24045236.714    24045193.9334
 01  5 25  0 16  0.0000000  0 11 25 31 11 21 03 14 15 18 29 09 23
  23938387.078    -8764686.463 8  -6790334.33246  23938386.710    23938401.1434
  22517705.518    -9459907.023 8  -7089864.11546  22517704.897    22517712.8024
  24316482.045    -8488023.096 8  -6599987.83645  24316481.789    24316489.9264
  21107301.812   -21785986.218 8 -16695278.75146  21107301.109    21107306.6364
  22771590.258   -12121838.080 8  -9418194.39346  22771589.766    22771599.2744
  20202251.606   -21794193.825 8 -16967922.08947  20202251.023    20202255.4114
  23168703.640   -15038003.957 8 -11166128.01245  23168702.991    23168713.1484
  23193285.895                                    23193283.904    23193446.4414
  20315962.898   -19188746.732 9 -14929991.19447  20315962.731    20315968.3234
  24373069.072                                    24373070.112    24373075.2774
  24057252.168                                    24057256.143    24057186.0614
 01  5 25  0 16 30.0000000  0 10 25 31 11 21 03 14 15 29 09 23
  23919822.361    -8862242.788 8  -6866351.85546  23919822.023    23919836.7374
  22523287.060    -9430576.815 8  -7067009.44246  22523286.383    22523294.1924
  24297391.910    -8588343.539 8  -6678159.47345  24297391.595    24297399.3374
  21109838.704   -21772655.003 8 -16684890.78046  21109837.944    21109843.4834
  22786282.318   -12044631.623 8  -9358033.64046  22786281.796    22786291.2204
  20201809.127   -21796518.637 8 -16969733.59047  20201808.549    20201813.0894
  23187109.297   -14941282.632 8 -11090760.95345  23187108.489    23187118.8824
  20312491.817   -19206988.282 9 -14944205.35847  20312491.535    20312497.0584
  24385561.171                                    24385559.843    24385567.9194
  24069279.696                                    24069285.046    24069245.5354
 01  5 25  0 17  0.0000000  0 11 25 31 11 21 03 14 15 18 29 09 23
  23901262.955    -8959770.813 8  -6942347.33746  23901262.811    23901277.6644
  22528966.042    -9400734.584 8  -7043755.82146  22528965.282    22528973.1454
  24278316.965    -8688583.600 8  -6756268.50945  24278316.661    24278324.1434
  21112405.534   -21759166.240 8 -16674380.05946  21112404.766    21112410.3664
  22801024.521   -11967162.159 8  -9297667.96946  22801023.900    22801033.3544
  20201462.746   -21798338.477 8 -16971151.63047  20201462.209    20201466.8034
  23205560.746   -14844319.693 8 -11015205.63545  23205559.935    23205570.8704
  23219845.299                                    23219842.967    23219842.6954
  20309107.990   -19224770.359 9 -14958061.49547  20309107.687    20309113.2124
  24398145.303                                    24398148.565    24398091.8064
  24081314.348                                    24081319.884    24081320.8804
 01  5 25  0 17 30.0000000  0 10 25 31 11 21 03 14 15 29 09 23
  23882709.617    -9057267.651 8  -7018318.53745  23882709.445    23882724.3324
  22534742.204    -9370381.603 8  -7020104.20746  22534741.473    22534749.0794
  24259257.654    -8788741.224 8  -6834313.28045  24259257.216    24259264.5394
  21115002.495   -21745519.438 8 -16663746.18346  21115001.718    21115007.3264
  22815816.000   -11889432.410 8  -9237099.48046  22815815.419    22815825.2144
  20201212.454   -21799654.031 8 -16972176.70947  20201211.892    20201216.3984
  23224057.519   -14747116.446 8 -10939463.04645  23224056.889    23224068.3014
  20305811.419   -19242093.479 9 -14971559.99847  20305811.130    20305816.6384
  24410818.309                                    24410820.523    24410754.4594
  24093356.885     8096326.94053                  24093363.716    24093366.7554
 01  5 25  0 18  0.0000000  0 10 25 31 11 21 03 14 15 29 09 23
  23864162.849    -9154730.255 8  -7094263.04945  23864162.625    23864177.5634
  22540615.224    -9339519.393 8  -6996055.77246  22540614.487    22540621.8994
  24240214.304    -8888813.812 8  -6912291.77245  24240213.809    24240221.2454
  21117629.537   -21731713.653 8 -16652988.42746  21117628.860    21117634.5584
  22830656.573   -11811444.657 8  -9176329.93246  22830655.956    22830666.1604
  20201058.078   -21800465.663 8 -16972809.12547  20201057.529    20201061.9354
  23242600.370   -14649673.984 8 -10863534.03945  23242599.643    23242611.1084
  20302602.216   -19258957.573 9 -14984700.81647  20302601.921    20302607.5034
  24423578.862                                    24423581.578    24423498.6704
  24105407.590    -3304271.82817   8145671.27244  24105414.114    24105412.0494
 01  5 25  0 18 30.0000000  0 10 25 31 11 21 03 14 15 29 09 23
  23845623.470    -9252155.066 8  -7170178.15745  23845623.039    23845637.9384
  22546584.859    -9308149.136 8  -6971611.46246  22546584.214    22546591.6824
  24221187.604    -8988798.799 8  -6990202.03045  24221187.061    24221194.4934
  21120287.094   -21717748.212 8 -16642106.25546  21120286.410    21120292.1514
  22845545.782   -11733201.690 8  -9115361.53146  22845545.188    22845555.5914
  20200999.492   -21800773.815 8 -16973049.20447  20200998.939    20201003.2744
  23261188.746   -14551993.030 8 -10787419.23445  23261188.144    23261199.4894
  20299480.329   -19275362.795 9 -14997484.07247  20299480.053    20299485.7084
  24436428.912                                    24436428.764    24436401.3024
  24117466.287    -3240904.404 7   8195048.54244  24117475.634    24117474.7174
 01  5 25  0 19  0.0000000  0 10 25 31 11 21 03 14 15 29 09 23
  23827091.328    -9349541.710 8  -7246063.46945  23827090.630    23827105.3544
  22552650.280    -9276274.479 8  -6946774.09546  22552649.656    22552657.5534
  24202177.397    -9088695.773 8  -7068043.69245  24202176.952    24202184.4934
  21122974.631   -21703624.556 8 -16631100.82446  21122973.970    21122979.8514
  22860482.797   -11654707.979 8  -9054197.73846  22860482.197    22860492.7374
  20201036.218   -21800581.216 8 -16972899.11147  20201035.574    20201039.9574
  23279821.726   -14454076.953 8 -10711121.20045  23279821.234    23279832.1514
  20296445.376   -19291311.275 9 -15009911.42847  20296445.153    20296450.8184
  24449367.951                                    24449366.668    24449350.2114
  24129532.645    -3177496.399 7   8244457.35944  24129533.592    24129542.0784
 01  5 25  0 19 30.0000000  0  9 25 31 11 21 03 14 15 29 23
  23808567.072    -9446885.588 7  -7321915.48945  23808566.244    23808580.8454
  22558811.647    -9243895.404 8  -6921543.69246  22558811.110    22558819.3794
  24183184.801    -9188501.339 7  -7145814.17145  24183184.390    24183191.9124
  21125692.629   -21689340.653 8 -16619970.50546  21125691.998    21125698.0304
  22875467.197   -11575965.016 8  -8992839.72646  22875466.624    22875477.3824
  20201168.117   -21799887.481 8 -16972358.51747  20201167.543    20201171.9924
  23298499.717   -14355925.684 8 -10634639.88245  23298499.124    23298509.8064
  20293497.561   -19306802.141 9 -15021982.20447  20293497.324    20293502.9244
  24141606.831    -3114046.092 7   8293899.04844  24141605.804    24141616.7134
 01  5 25  0 20  0.0000000  0  9 25 31 11 21 03 14 15 29 23
  23790051.221    -9544182.753 7  -7397731.11345  23790050.742    23790065.0304
  22565069.151    -9211012.432 8  -6895920.65946  22565068.557    22565077.0374
  24164210.114    -9288211.826 7  -7223510.51345  24164209.437    24164217.3204
  21128441.445   -21674895.492 8 -16608714.53546  21128440.825    21128446.8714
  22890498.627   -11496974.340 8  -8931288.68546  22890498.128    22890509.0294
  20201395.547   -21798692.052 8 -16971426.98547  20201394.985    20201399.5004
  23317222.094   -14257539.204 8 -10557975.25645  23317221.622    23317232.2934
  20290636.903   -19321834.511 9 -15033695.69847  20290636.685    20290642.3414
  24153689.138    -3050551.812 7   8343375.08644  24153688.409    24153699.4524
 01  5 25  0 20 30.0000000  0  9 25 31 11 21 03 14 15 29 23
  23771544.555    -9641432.657 7  -7473509.92245  23771544.453    23771558.1034
  22571422.110    -9177629.614 8  -6869908.14646  22571421.410    22571429.7524
  24145252.981    -9387827.408 7  -7301132.93645  24145252.482    24145260.7234
  21131220.705   -21660290.525 8 -16597334.03446  21131220.061    21131226.1394
  22905576.393   -11417741.275 8  -8869548.76346  22905575.989    22905586.6914
  20201717.951   -21796997.918 8 -16970106.86547  20201717.342    20201721.9174
  23335988.750   -14158921.273 7 -10481130.30345  23335988.032    23335999.0974
  20287863.078   -19336411.053 9 -15045054.00747  20287862.905    20287868.4874
  24165779.759    -2987015.375 7   8392883.91244  24165779.807    24165790.4054
 01  5 25  0 21  0.0000000  0  9 25 31 11 21 03 14 15 29 23
  23753047.795    -9738632.214 7  -7549249.44245  23753047.608    23753060.7994
  22577869.741    -9143748.908 8  -6843507.66346  22577868.937    22577877.0864
  24126314.709    -9487345.914 7  -7378679.78544  24126314.082    24126322.7324
  21134030.397   -21645525.255 8 -16585828.63546  21134029.716    21134035.8944
  22920699.891   -11338268.718 8  -8807622.22746  22920699.430    22920709.9194
  20202134.980   -21794806.653 8 -16968399.37447  20202134.304    20202138.9044
  23354798.703   -14060073.504 7 -10404106.25045  23354797.910    23354809.4994
  20285175.869   -19350532.490 9 -15056057.68547  20285175.665    20285181.1964
  24177878.984    -2923436.797 6   8442425.50944  24177878.302    24177889.0084
 01  5 25  0 21 30.0000000  0  9 25 31 11 21 03 14 15 29 23
  23734561.528    -9835778.044 8  -7624947.09645  23734561.056    23734574.0194
  22584411.594    -9109371.183 8  -6816719.86946  22584410.838    22584418.9434
  24107395.417    -9586764.356 7  -7456148.51744  24107394.780    24107403.4804
  21136870.793   -21630598.470 8 -16574197.38046  21136870.119    21136876.4834
  22935868.339   -11258558.523 8  -8745510.54446  22935867.909    22935878.4544
  20202646.522   -21792117.786 8 -16966304.14847  20202645.910    20202650.5644
  23373652.418   -13960996.282 7 -10326903.38645  23373651.578    23373663.6344
  20282575.348   -19364198.327 9 -15066706.35647  20282575.116    20282580.5904
  24189985.881    -2859814.712 6   8492001.01344  24189985.164    24189995.8154
 01  5 25  0 22  0.0000000  0  9 25 31 11 21 03 14 15 29 23
  23716085.270    -9932870.608 7  -7700603.27245  23716084.577    23716097.3524
  22591047.252    -9074501.324 8  -6789548.60546  22591046.573    22591054.5644
  24088495.961    -9686083.330 7  -7533539.87444  24088494.981    24088503.8444
  21139741.392   -21615512.918 8 -16562442.42446  21139740.781    21139747.1494
  22951080.740   -11178616.829 8  -8683218.44446  22951080.348    22951090.9264
  20203251.924   -21788935.614 8 -16963824.51747  20203251.340    20203256.0274
  23392548.991   -13861694.215 8 -10249525.36445  23392548.284    23392560.6214
  20280060.688   -19377412.432 9 -15077003.02547  20280060.466    20280065.9584
  24202100.768    -2796151.551 6                  24202099.756    24202111.3584
 01  5 25  0 22 30.0000000  0  9 25 31 11 21 03 14 15 29 23
  23697620.103   -10029905.155 8  -7776214.25645  23697619.339    23697631.7924
  22597776.569    -9039139.261 8  -6761993.79146  22597775.805    22597784.0374
  24069616.350    -9785299.102 7  -7610850.75344  24069615.122    24069623.7394
  21142642.651   -21600266.223 8 -16550561.87846  21142642.044    21142648.4274
  22966336.879   -11098444.604 8  -8620746.73046  22966336.516    22966347.3064
  20203951.556   -21785259.128 8 -16960959.71047  20203951.015    20203955.6464
  23411488.712   -13762166.868 7 -10171971.80045  23411488.053    23411500.3564
  20277632.321   -19390173.446 9 -15086946.64147  20277632.107    20277637.5814
  24214223.594                                    24214223.651    24214234.6834
 01  5 25  0 23  0.0000000  0  8 25 31 11 21 03 14 15 29
  23679166.301   -10126880.912 8  -7851779.41845  23679165.525    23679177.4024
  22604598.565    -9003288.847 8  -6734058.46446  22604597.793    22604606.1914
  24050755.155    -9884411.121 7  -7688080.76844  24050754.181    24050763.4374
  21145574.300   -21584859.991 8 -16538557.03646  21145573.724    21145580.1854
  22981635.829   -11018046.886 8  -8558099.28246  22981635.496    22981646.6854
  20204744.733   -21781091.451 8 -16957712.15547  20204744.137    20204748.7104
  23430470.558   -13662417.923 7 -10094245.55445  23430469.922    23430482.1084
  20275289.765   -19402483.780 9 -15096539.07247  20275289.479    20275294.9604
 01  5 25  0 23 30.0000000  0  8 25 31 11 21 03 14 15 29
  23660724.831   -10223790.391 8  -7927292.91645  23660724.172    23660735.8004
  22611513.967    -8966947.778 8  -6705740.82746  22611513.295    22611521.7534
  24031914.552    -9983412.798 7  -7765224.84444  24031914.052    24031924.1124
  21148537.533   -21569289.008 8 -16526423.78446  21148536.893    21148543.2194
  22996978.002   -10937422.053 8  -8495274.90245  22996977.635    22996989.2604
  20205631.969   -21776429.125 8 -16954079.17147  20205631.413    20205635.9204
  23449494.974   -13562444.155 7 -10016344.14345  23449494.462    23449506.5074
  20273033.577   -19414339.596 9 -15105777.32947  20273033.341    20273038.8504
 01  5 25  0 24  0.0000000  0  8 25 31 11 21 03 14 15 29
  23642296.101   -10320633.089 8  -8002754.43045  23642295.619    23642306.8404
  22618521.936    -8930119.853 8  -6677043.78446  22618521.243    22618529.8694
  24013096.295   -10082304.186 7  -7842282.90545  24013095.539    24013105.9124
  21151531.708   -21553555.192 8 -16514163.70546  21151531.040    21151537.2604
  23012362.354   -10856575.266 8  -8432277.53645  23012362.024    23012374.0134
  20206612.526   -21771275.486 8 -16950063.33247  20206612.024    20206616.6184
  23468561.347   -13462249.342 7  -9938270.38845  23468560.734    23468573.1514
  20270863.480   -19425743.703 9 -15114663.61447  20270863.253    20270868.6734
 01  5 25  0 24 30.0000000  0  8 25 31 11 21 03 14 15 29
  23623880.333   -10417406.022 7  -8078161.57145  23623880.049    23623891.4204
  22625622.038    -8892807.136 8  -6647969.02246  22625621.448    22625630.1054
  23994299.900   -10181082.782 7  -7919253.13045  23994298.852    23994309.3374
  21154556.709   -21537658.032 8 -16501776.30546  21154556.086    21154562.4434
  23027788.621   -10775509.485 8  -8369109.55845  23027788.234    23027800.5674
  20207686.614   -21765631.320 8 -16945665.26047  20207686.110    20207690.6174
  23487669.483   -13361834.525 8  -9860025.29645  23487668.925    23487681.6674
  20268779.163   -19436696.801 9 -15123198.45747  20268778.877    20268784.4014
 01  5 25  0 25  0.0000000  0  8 25 31 11 21 03 14 15 29
  23605478.441   -10514106.844 7  -8153512.53745  23605478.039    23605489.9424
  22632814.059    -8855011.880 8  -6618518.21546  22632813.430    22632822.2084
  23975525.480   -10279746.930 7  -7996134.16845  23975524.259    23975534.5024
  21157612.919   -21521597.663 8 -16489261.74646  21157612.290    21157618.6384
  23043255.991   -10694228.018 8  -8305773.50045  23043255.576    23043267.9354
  20208853.858   -21759498.166 8 -16940886.16147  20208853.292    20208857.6254
  23506820.068   -13261201.748 8  -9781610.32445  23506819.387    23506831.5674
  20266780.368   -19447199.723 8 -15131382.52247  20266780.120    20266785.7704
 01  5 25  0 25 30.0000000  0  8 25 31 11 21 03 14 15 29
  23587090.045   -10610734.993 7  -8228806.91645  23587089.768    23587102.1864
  22640097.161    -8816738.149 8  -6588694.61046  22640096.538    22640105.4014
  23956772.575   -10378296.071 8  -8072925.62245  23956771.441    23956781.3124
  21160699.792   -21505375.922 8 -16476621.40746  21160699.143    21160705.4854
  23058763.793   -10612735.443 8  -8242272.99445  23058763.220    23058775.3594
  20210113.377   -21752879.043 8 -16935728.38147  20210112.810    20210117.2134
  23526011.191   -13160354.515 8  -9703028.27445  23526010.450    23526022.2454
  20264866.803   -19457255.052 8 -15139217.82847  20264866.615    20264872.2294
 01  5 25  0 26  0.0000000  0  8 25 31 11 21 03 14 15 29
  23568716.572   -10707285.458 7  -8304040.73445  23568716.338    23568729.1224
  22647471.321    -8777986.057 8  -6558498.22046  22647470.772    22647479.7064
  23938042.063   -10476726.143 8  -8149624.26145  23938041.039    23938050.6624
  21163817.563   -21488990.371 8 -16463853.45546  21163816.975    21163823.5384
  23074311.400   -10531032.623 8  -8178608.61545  23074310.947    23074322.8714
  20211465.527   -21745773.100 8 -16930191.26247  20211464.984    20211469.5194
  23545243.022   -13059292.497 8  -9624278.88345  23545242.237    23545253.8434
  20263038.779   -19466861.766 8 -15146703.54447  20263038.570    20263044.0334
 01  5 25  0 26 30.0000000  0  8 25 31 11 21 03 14 15 29
  23550358.862   -10803754.358 7  -8379211.01245  23550358.646    23550371.3984
  22654936.630    -8738756.409 8  -6527929.72746  22654936.004    22654944.8634
  23919334.746   -10575034.003 8  -8226227.66345  23919333.769    23919343.2214
  21166967.061   -21472438.720 8 -16450956.07446  21166966.604    21166973.3334
  23089898.799   -10449121.705 8  -8114782.10645  23089898.405    23089909.9754
  20212910.300   -21738180.299 8 -16924274.78247  20212909.754    20212914.3764
  23564515.553   -12958016.090 8  -9545362.42745  23564514.736    23564526.5634
  20261296.118   -19476019.183 8 -15153839.16347  20261295.897    20261301.3694
 01  5 25  0 27  0.0000000  0  8 25 31 11 21 03 14 15 29
  23532017.089   -10900140.963 7  -8454317.14845  23532016.814    23532029.3264
  22662491.801    -8699053.094 8  -6496992.15146  22662491.313    22662500.1204
  23900650.906   -10673218.953 8  -8302735.31945  23900650.054    23900659.1104
  21170148.135   -21455722.762 7 -16437930.66346  21170147.602    21170154.3334
  23105525.001   -10367007.456 8  -8050797.14645  23105524.627    23105535.7054
  20214447.216   -21730103.941 8 -16917981.50647  20214446.660    20214451.2004
  23583827.877   -12856528.751 8  -9466281.59945  23583827.295    23583839.2754
  20259638.352   -19484730.137 8 -15160626.88647  20259638.194    20259643.6254
 01  5 25  0 27 30.0000000  0  8 25 31 11 21 03 14 15 29
  23513691.299   -10996442.493 8  -8529356.98845  23513690.841    23513703.4484
  22670136.911    -8658878.270 8  -6465687.16146  22670136.441    22670145.2464
  23881990.798   -10771279.146 8  -8379145.74645  23881990.032    23881998.4714
  21173360.190   -21438842.218 8 -16424777.02446  21173359.658    21173366.5784
  23121189.265   -10284693.221 8  -7986656.36045  23121189.002    23121199.5364
  20216075.903   -21721545.486 8 -16911312.55247  20216075.332    20216079.7534
  23603180.368   -12754832.239 8  -9387037.80945  23603179.619    23603191.8344
  20258065.551   -19492995.434 8 -15167067.35147  20258065.333    20258070.7094
 01  5 25  0 28  0.0000000  0  8 25 31 11 21 03 14 15 29
  23495382.468   -11092654.876 8  -8604327.33345  23495382.026    23495394.7824
  22677871.405    -8618233.182 8  -6434015.73046  22677870.947    22677879.5634
  23863354.636   -10869211.305 8  -8455456.41145  23863353.974    23863362.2634
  21176603.869   -21421795.915 7 -16411494.20946  21176603.303    21176610.3544
  23136891.400   -10202180.684 8  -7922361.05945  23136891.083    23136901.0884
  20217796.202   -21712504.933 8 -16904267.94247  20217795.681    20217800.0894
  23622572.493   -12652926.772 8  -9307631.18645  23622571.654    23622583.9464
  20256577.489   -19500814.861 9 -15173160.38247  20256577.323    20256582.6474
 01  5 25  0 28 30.0000000  0  8 25 31 11 21 03 14 15 29
  23477091.067   -11188776.118 8  -8679226.70146  23477090.679    23477103.4134
  22685695.319    -8577120.119 8  -6401979.63046  22685694.710    22685702.8464
  23844743.312   -10967013.401 8  -8531665.69245  23844742.649    23844750.9054
  21179879.161   -21404583.691 7 -16398082.11246  21179878.665    21179885.7274
  23152630.586   -10119473.050 8  -7857913.71845  23152630.187    23152639.7894
  20219608.083   -21702983.780 8 -16896848.84447  20219607.507    20219611.8494
  23642003.943   -12550814.690 8  -9228063.58345  23642003.102    23642015.1224
  20255174.314   -19508189.363 9 -15178906.72347  20255174.065    20255179.3524
 01  5 25  0 29  0.0000000  0  8 25 31 11 21 03 14 15 29
  23458817.165   -11284804.086 8  -8754053.37246  23458816.979    23458829.7894
  22693607.435    -8535542.120 8  -6369581.25646  22693606.873    22693614.8624
  23826157.042   -11064684.015 8  -8607772.56645  23826156.446    23826164.5304
  21183186.174   -21387205.722 7 -16384540.85646  21183185.576    21183192.6364
  23168405.977   -10036574.507 8  -7793317.60245  23168405.496    23168414.9104
  20221510.882   -21692983.976 8 -16889056.77647  20221510.389    20221514.7714
  23661474.294   -12448498.296 8  -9148336.77245  23661473.502    23661485.3994
  20253855.297   -19515120.754 9 -15184307.77647  20253855.068    20253860.3504
 01  5 25  0 29 30.0000000  0  8 25 31 11 21 03 14 15 29
  23440562.044   -11380734.681 8  -8828804.20146  23440561.777    23440574.5054
  22701607.827    -8493500.024 8  -6336821.22746  22701607.384    22701615.2874
  23807596.380   -11162219.555 8  -8683774.17745  23807595.775    23807603.7324
  21186525.151   -21369660.205 8 -16370869.05346  21186524.404    21186531.5094
  23184217.199    -9953486.520 8  -7728573.88645  23184216.710    23184226.0554
  20223504.848   -21682505.607 8 -16880891.80647  20223504.309    20223508.7334
  23680983.461   -12345977.611 8  -9068450.79745  23680982.546    23680994.5324
  20252620.753   -19521608.424 9 -15189363.07947  20252620.523    20252625.7744
 01  5 25  0 30  0.0000000  0  8 25 31 11 21 03 14 15 29
  23422325.787   -11476566.632 8  -8903478.18446  23422325.332    23422337.8904
  22709695.753    -8450997.859 8  -6303702.70946  22709695.245    22709703.2124
  23789061.457   -11259619.525 8  -8759670.15645  23789060.866    23789068.6934
  21189895.819   -21351948.594 8 -16357067.80346  21189895.061    21189901.9284
  23200063.591    -9870213.861 8  -7663686.28746  23200063.200    23200072.5434
  20225589.273   -21671551.771 8 -16872356.35047  20225588.647    20225593.1684
  23700530.768   -12243256.256 8  -8988408.42345  23700529.914    23700541.6744
  20251470.158   -19527655.081 8 -15194074.73547  20251469.889    20251475.0974
 01  5 25  0 30 30.0000000  0  8 25 31 11 21 03 14 15 29
  23404108.713   -11572294.871 8  -8978071.32046  23404108.464    23404120.9324
  22717871.289    -8408035.407 8  -6270225.56146  22717870.825    22717878.9134
  23770553.144   -11356879.448 8  -8835456.98545  23770552.650    23770560.2904
  21193298.401   -21334067.670 8 -16343134.62546  21193297.656    21193304.5044
  23215944.999    -9786757.073 8  -7598655.22945  23215944.586    23215954.0984
  20227764.265   -21660121.283 8 -16863449.45947  20227763.721    20227768.2774
  23720116.596   -12140333.228 8  -8908208.94445  23720115.725    23720127.6734
  20250403.676   -19533259.104 9 -15198441.48547  20250403.457    20250408.6084
 01  5 25  0 31  0.0000000  0  8 25 31 11 21 03 14 15 29
  23385911.450   -11667919.845 8  -9052583.99946  23385911.251    23385923.6284
  22726133.862    -8364617.712 8  -6236393.64746  22726133.265    22726141.4414
  23752071.591   -11453999.902 8  -8911135.16345  23752071.064    23752078.4724
  21196732.489   -21316020.617 8 -16329071.98946  21196731.838    21196738.7684
  23231860.117    -9703122.236 8  -7533485.38045  23231859.678    23231869.6904
  20230029.369   -21648218.411 8 -16854174.47947  20230028.753    20230033.2424
  23739739.794   -12037213.235 8  -8827855.93145  23739739.050    23739750.9454
  20249420.794   -19538424.457 9 -15202466.40147  20249420.518    20249425.6294
 01  5 25  0 31 30.0000000  0  8 25 31 11 21 03 14 15 29
  23367734.825   -11763436.239 8  -9127012.04546  23367734.745    23367746.9574
  22734482.985    -8320744.793 8  -6202207.02546  22734482.335    22734490.3954
  23733617.443   -11550976.600 8  -8986701.30845  23733616.929    23733623.9694
  21200198.885   -21297804.519 8 -16314877.62846  21200198.248    21200205.1504
  23247809.199    -9619310.120 8  -7468177.44045  23247808.656    23247818.9634
  20232384.395   -21635842.496 8 -16844530.87947  20232383.822    20232388.2654
  23759400.759   -11933895.705 8  -8747348.99845  23759400.009    23759411.6144
  20248521.563   -19543149.818 9 -15206148.47947  20248521.321    20248526.4064
 01  5 25  0 32  0.0000000  0  8 25 31 11 21 03 14 15 29
  23349579.248   -11858843.042 8  -9201354.70945  23349579.124    23349591.1154
  22742917.760    -8276420.507 8  -6167668.65446  22742917.027    22742925.0764
  23715190.841   -11647808.510 8  -9062154.62945  23715190.196    23715197.3564
  21203697.401   -21279420.620 8 -16300552.54546  21203696.716    21203703.5764
  23263790.960    -9535325.230 8  -7402734.82545  23263790.513    23263800.9864
  20234828.928   -21622996.225 8 -16834520.78847  20234828.360    20234832.7344
  23779098.547   -11830383.691 8  -8666690.53445  23779097.842    23779109.4744
  20247705.596   -19547437.520 9 -15209489.51847  20247705.375    20247710.4304
 01  5 25  0 32 30.0000000  0  8 25 31 11 21 03 14 15 29
  23331445.173   -11954137.728 8  -9275610.01646  23331444.917    23331456.7604
  22751437.502    -8231647.308 8  -6132780.48546  22751436.839    22751445.1224
  23696792.038   -11744493.331 8  -9137493.33645  23696791.453    23696798.9944
  21207227.759   -21260868.849 8 -16286096.62746  21207227.042    21207233.8184
  23279805.377    -9451170.459 8  -7337159.83745  23279804.797    23279815.2834
  20237362.663   -21609680.939 8 -16824145.22647  20237362.116    20237366.4884
  23798832.859   -11726679.031 8  -8585881.94345  23798832.331    23798844.0714
  20246972.798   -19551288.412 8 -15212490.18647  20246972.553    20246977.5964
 01  5 25  0 33  0.0000000  0  8 25 31 11 21 03 14 15 29
  23313333.573   -12049315.188 8  -9349773.97446  23313333.195    23313344.7024
  22760042.796    -8186425.150 8  -6097542.50746  22760042.221    22760050.6074
  23678422.309   -11841026.780 8  -9212714.11645  23678421.840    23678429.2844
  21210790.687   -21242146.019 8 -16271507.42046  21210789.966    21210796.5964
  23295851.922    -9366846.635 8  -7271453.16045  23295851.178    23295861.8424
  20239985.838   -21595895.738 8 -16813403.49047  20239985.290    20239989.7394
  23818604.435   -11622780.985 8  -8504922.63345  23818603.714    23818615.4394
  20246323.303   -19554701.277 8 -15215149.54647  20246323.052    20246328.0854
 01  5 25  0 33 30.0000000  0  8 25 31 11 21 03 14 15 29
  23295244.332   -12144375.896 8  -9423846.94946  23295243.778    23295255.0074
  22768732.754    -8140759.662 8  -6061959.06846  22768732.224    22768740.6224
  23660081.535   -11937409.878 8  -9287817.74945  23660081.096    23660088.3264
  21214385.437   -21223254.885 8 -16256787.08046  21214384.837    21214391.3964
  23311929.083    -9282360.349 8  -7205619.88745  23311928.487    23311939.3554
  20242697.531   -21581645.666 8 -16802299.53247  20242697.003    20242701.3864
  23838411.677   -11518694.658 8  -8423816.62745  23838410.901    23838422.6644
  20245756.300   -19557680.369 8 -15217470.89347  20245756.055    20245761.1404
 01  5 25  0 34  0.0000000  0  8 25 31 11 21 03 14 15 29
  23277177.842   -12239314.957 8  -9497825.16846  23277177.356    23277188.4334
  22777507.212    -8094651.336 8  -6026030.56346  22777506.550    22777514.9084
  23641770.062   -12033638.368 8  -9362800.87445  23641769.513    23641776.9154
  21218012.811   -21204193.242 8 -16241933.86346  21218012.215    21218018.6954
  23328037.387    -9197712.263 7  -7139660.54945  23328036.745    23328047.6714
  20245497.833   -21566930.040 8 -16790832.79347  20245497.284    20245501.7234
  23858254.815   -11414419.919 8  -8342563.82045  23858254.015    23858265.9234
  20245271.992   -19560224.755 8 -15219453.51247  20245271.830    20245276.9774
 01  5 25  0 34 30.0000000  0  8 25 31 11 21 03 14 15 29
  23259134.893   -12334130.902 8  -9571707.44646  23259134.397    23259145.3814
  22786365.001    -8048103.528 8  -5989759.62346  22786364.438    22786372.5454
  23623488.322   -12129710.988 8  -9437662.57045  23623487.680    23623495.2204
  21221672.574   -21184961.545 8 -16226948.15446  21221671.992    21221678.2974
  23344175.639    -9112906.613 8  -7073578.39545  23344175.043    23344185.7934
  20248386.240   -21551751.319 8 -16779005.21447  20248385.724    20248390.1714
  23878132.944   -11309959.332 7  -8261166.20745  23878132.442    23878144.5944
  20244870.081   -19562336.623 8 -15221099.10847  20244869.868    20244875.0604
 01  5 25  0 35  0.0000000  0  8 25 31 11 21 03 14 15 29
  23241115.990   -12428821.067 8  -9645491.72646  23241115.391    23241126.3484
  22795306.091    -8001118.727 8  -5953148.16246  22795305.389    22795313.4934
  23605236.571   -12225625.474 8  -9512401.02645  23605235.896    23605243.4554
  21225364.677   -21165559.207 8 -16211829.45746  21225364.086    21225370.4474
  23360342.994    -9027946.680 8  -7007376.02345  23360342.491    23360353.3014
  20251362.494   -21536110.837 8 -16766817.81447  20251361.964    20251366.4514
  23898046.374   -11205314.757 7  -8179625.25045  23898045.926    23898058.1624
  20244550.273   -19564016.620 8 -15222408.17647  20244550.120    20244555.3584
 01  5 25  0 35 30.0000000  0  8 25 31 11 21 03 14 15 29
  23223121.856   -12523379.991 8  -9719173.72146  23223121.169    23223132.2344
  22804329.936    -7953696.606 8  -5916195.92046  22804329.401    22804337.7034
  23587015.554   -12321376.919 8  -9587012.41745  23587014.980    23587022.6104
  21229089.689   -21145983.826 9 -16196575.94047  21229089.138    21229095.5444
  23376540.094    -8942832.542 8  -6941053.50345  23376539.408    23376550.0154
  20254426.857   -21520007.587 8 -16754269.81047  20254426.332    20254430.7914
  23917995.506   -11100485.285 7  -8097940.17945  23917994.717    23918006.7264
  20244312.987   -19565263.435 8 -15223379.70147  20244312.814    20244318.0594
 01  5 25  0 36  0.0000000  0  8 25 31 11 21 03 14 15 29
  23205152.734   -12617805.809 8  -9792751.99946  23205152.198    23205163.3964
  22813436.815    -7905840.771 8  -5878905.71946  22813436.147    22813444.4344
  23568825.848   -12416964.112 8  -9661495.81945  23568825.183    23568832.7784
  21232847.643   -21126235.786 9 -16181187.88447  21232847.106    21232853.4794
  23392765.303    -8857568.386 8  -6874614.09045  23392764.606    23392775.2164
  20257578.876   -21503444.109 8 -16741363.19647  20257578.280    20257582.7644
  23937977.934   -10995473.649 7  -8016113.17945  23937977.404    23937990.0384
  20244157.751   -19566079.045 8 -15224015.22547  20244157.561    20244162.8164
 01  5 25  0 36 30.0000000  0  9 25 31 11 21 03 14 15 18 29
  23187209.497   -12712095.920 8  -9866224.54246  23187209.090    23187220.4134
  22822625.456    -7857553.177 8  -5841279.07946  22822624.766    22822633.3724
  23550667.812   -12512384.425 8  -9735849.18845  23550667.193    23550674.6614
  21236638.644   -21106314.227 9 -16165664.63147  21236638.101    21236644.3644
  23409018.515    -8772157.172 8  -6808060.05945  23409017.854    23409028.4124
  20260818.110   -21486421.673 8 -16728098.95747  20260817.538    20260822.0774
  23957994.587   -10890281.248 7  -7934145.30545  23957994.527    23958007.7714
  23749047.422       19799.74654                  23749048.516    23749060.0384
  20244084.395   -19566464.266 8 -15224315.37347  20244084.182    20244089.5474
 01  5 25  0 37  0.0000000  0  9 25 31 11 21 03 14 15 18 29
  23169293.063   -12806245.761 8  -9939587.77046  23169292.793    23169303.8634
  22831896.007    -7808834.632 8  -5803316.65246  22831895.488    22831904.4384
  23532541.946   -12607633.871 7  -9810069.38345  23532541.611    23532548.9874
  21240462.997   -21086217.470 9 -16150004.84147  21240462.424    21240468.6714
  23425299.036    -8686600.076 7  -6741392.40145  23425298.544    23425309.2564
  20264144.790   -21468939.920 8 -16714476.80047  20264144.265    20264148.7404
  23978046.094   -10784908.387 7  -7852036.81445  23978046.144    23978059.6654
  23762895.896      114382.931 6     76507.63944  23762898.178    23762906.6854
  20244093.099   -19566418.463 9 -15224279.67447  20244092.916    20244098.2484
 01  5 25  0 37 30.0000000  0  9 25 31 11 21 03 14 15 18 29
  23151403.587   -12900254.809 8 -10012841.31046  23151403.297    23151414.0844
  22841247.587    -7759690.055 8  -5765022.25146  22841247.174    22841256.5034
  23514448.723   -12702712.729 7  -9884156.72145  23514448.436    23514455.6714
  21244320.486   -21065946.545 9 -16134209.32347  21244319.893    21244326.1514
  23441606.279    -8600902.344 7  -6674615.12145  23441606.025    23441617.0804
  20267558.130   -21451002.834 8 -16700499.83147  20267557.562    20267561.9284
  23998132.154   -10679359.046 6  -7769790.79645  23998131.668    23998145.2534
  23776759.920      187231.054 7    133272.30844  23776762.110    23776769.8104
  20244183.284   -19565945.122 9 -15223910.81347  20244183.064    20244188.2314
 01  5 25  0 38  0.0000000  0  9 25 31 11 21 03 14 15 18 29
  23133541.351   -12994119.987 8 -10085982.69245  23133541.064    23133551.5324
  22850680.216    -7710121.468 8  -5726397.42746  22850679.893    22850689.1094
  23496388.429   -12797618.208 7  -9958108.91245  23496387.992    23496395.5094
  21248211.151   -21045501.196 9 -16118277.91147  21248210.550    21248216.8284
  23457940.198    -8515066.829 8  -6607730.48945  23457939.945    23457951.2894
  20271057.793   -21432611.734 8 -16686169.09347  20271057.219    20271061.5324
  24018250.942   -10573634.428 6  -7687408.22645  24018250.342    24018264.0664
  23790638.575      260152.032 7    190093.76444  23790641.161    23790646.9214
  20244354.591   -19565045.218 9 -15223209.55747  20244354.335    20244359.4624
 01  5 25  0 38 30.0000000  0  9 25 31 11 21 03 14 15 18 29
  23115706.452   -13087839.905 8 -10159010.94345  23115706.069    23115716.4514
  22860193.019    -7660132.661 8  -5687445.19246  22860192.548    22860201.6404
  23478361.066   -12892349.311 7 -10031925.23945  23478360.818    23478368.5124
  21252134.872   -21024882.383 9 -16102211.32947  21252134.243    21252140.5184
  23474299.870    -8429097.988 8  -6540741.97145  23474299.440    23474311.1114
  20274643.363   -21413769.312 8 -16671486.68847  20274642.807    20274647.1544
  24038403.338   -10467737.400 7  -7604891.37045  24038402.598    24038415.7374
  23804528.910      333144.905 7    246971.27744  23804530.188    23804537.0454
  20244606.674   -19563720.781 9 -15222177.51147  20244606.371    20244611.5624
 01  5 25  0 39  0.0000000  0  9 25 31 11 21 03 14 15 18 29
  23097899.633   -13181412.255 8 -10231924.17445  23097899.327    23097909.5864
  22869784.844    -7609727.035 8  -5648168.16146  22869784.298    22869793.5284
  23460368.096   -12986904.265 7 -10105604.34145  23460367.636    23460375.2054
  21256091.523   -21004089.981 9 -16086009.47247  21256090.914    21256097.2604
  23490684.028    -8342999.277 8  -6473652.22945  23490683.658    23490695.4294
  20278314.505   -21394477.589 8 -16656454.16947  20278313.925    20278318.2684
  24058587.978   -10361670.489 7  -7522242.02845  24058586.956    24058599.7474
  23818433.215      406209.055 7    303904.27544  23818433.561    23818441.0214
  20244939.167   -19561973.527 9 -15220815.99047  20244938.900    20244944.1004
 01  5 25  0 39 30.0000000  0  9 25 31 11 21 03 14 15 18 29
  23080121.618   -13274834.852 8 -10304720.72945  23080121.395    23080131.7064
  22879455.572    -7558906.967 8  -5608568.17246  22879454.963    22879464.3014
  23442408.592   -13081281.064 7 -10179144.57645  23442408.119    23442415.7204
  21260081.250   -20983123.694 9 -16069672.12047  21260080.642    21260087.0224
  23507092.174    -8256773.983 8  -6406463.87045  23507091.818    23507103.8314
  20282070.616   -21374738.646 8 -16641073.15947  20282070.055    20282074.4064
  24078803.226   -10255435.650 7  -7439461.83445  24078802.543    24078815.8494
  23832349.789      479343.760 7    360892.21644  23832350.418    23832357.5464
  20245351.804   -19559804.876 9 -15219126.11547  20245351.555    20245356.7554
 01  5 25  0 40  0.0000000  0  9 25 31 11 21 03 14 15 18 29
  23062373.475   -13368101.678 8 -10377395.96345  23062373.151    23062383.6054
  22889205.400    -7507672.117 8  -5568644.95146  22889204.794    22889214.1434
  23424483.921   -13175474.430 7 -10252541.88845  23424483.418    23424491.5544
  21264104.765   -20961979.981 9 -16053196.51147  21264104.177    21264110.5834
  23523524.589    -8170422.319 8  -6339177.02845  23523524.253    23523536.5744
  20285912.209   -21354550.979 8 -16625342.50047  20285911.656    20285915.9554
  24099051.464   -10149031.918 7  -7356550.09545  24099050.883    24099064.2114
  23846279.920      552552.348 7                  23846279.561    23846287.4064
  20245844.997   -19557213.023 8 -15217106.46147  20245844.763    20245849.9114
 01  5 25  0 40 30.0000000  0  9 25 31 11 21 03 14 15 18 29
  23044654.975   -13461212.255 8 -10449949.42045  23044654.598    23044665.2714
  22899033.102    -7456027.180 8  -5528402.21846  22899032.520    22899042.2554
  23406594.513   -13269484.058 8 -10325796.08045  23406594.121    23406602.1244
  21268161.684   -20940660.764 9 -16036584.14847  21268161.098    21268167.5324
  23539980.193    -8083949.114 8  -6271795.49745  23539979.670    23539992.3884
  20289838.531   -21333918.275 8 -16609265.06547  20289837.958    20289842.2264
  24119331.247   -10042463.203 7  -7273509.82345  24119330.645    24119344.0014
  23860223.878                                    23860223.442    23860231.0274
  20246418.029   -19554201.321 8 -15214759.66247  20246417.797    20246423.0064
 01  5 25  0 41  0.0000000  0  9 25 31 11 21 03 14 15 18 29
  23026967.108   -13554162.526 8 -10522377.97246  23026966.543    23026977.4164
  22908938.830    -7403973.611 8  -5487841.06146  22908938.211    22908947.9074
  23388740.799   -13363306.330 7 -10398904.23745  23388740.281    23388748.3834
  21272252.332   -20919164.199 9 -16019833.58647  21272251.757    21272258.2804
  23556458.352    -7997356.382 8  -6204320.83845  23556457.902    23556470.7624
  20293849.225   -21312841.185 8 -16592841.35647  20293848.691    20293853.0474
  24139642.454    -9935729.872 7  -7190341.23145  24139641.613    24139654.7284
  23874182.569      699185.41417                  23874182.405    23874190.3564
  20247071.087   -19550769.628 9 -15212085.60747  20247070.854    20247076.1174
 01  5 25  0 41 30.0000000  0  9 25 31 11 21 03 14 15 18 29
  23009309.795   -13646951.901 8 -10594681.14046  23009309.216    23009320.2504
  22918921.366    -7351515.530 8  -5446964.69846  22918920.731    22918930.6134
  23370922.870   -13456940.943 8 -10471866.19545  23370922.407    23370930.3014
  21276376.391   -20897491.738 9 -16002945.97247  21276375.861    21276382.4414
  23572958.937    -7910648.753 8  -6136756.66745  23572958.409    23572970.8214
  20297944.032   -21291322.850 8 -16576073.82347  20297943.436    20297947.7804
  24159983.937    -9828835.491 7  -7107047.15045  24159982.891    24159996.0064
  23888155.322                                    23888150.385    23888091.1104
  20247803.512   -19546920.995 8 -15209086.65147  20247803.237    20247808.5444
 01  5 25  0 42  0.0000000  0  9 25 31 11 21 03 14 15 18 29
  22991683.943   -13739576.516 8 -10666855.96346  22991683.439    22991694.1544
  22928980.162    -7298655.113 8  -5405774.82346  22928979.578    22928989.7054
  23353141.239   -13550384.560 8 -10544679.33745  23353140.847    23353148.5064
  21280534.224   -20875642.273 9 -15985920.44147  21280533.683    21280540.2324
  23589480.719    -7823828.626 8  -6069104.84445  23589480.202    23589492.2624
  20302122.592   -21269364.198 8 -16558963.16347  20302122.003    20302126.3174
  24180356.096    -9721781.239 8  -7023628.54645  24180355.037    24180367.9834
  23902141.914                                    23902136.153    23902072.7704
  20248615.194   -19542655.663 9 -15205762.99447  20248614.935    20248620.1764
 01  5 25  0 42 30.0000000  0  9 25 31 11 21 03 14 15 18 29
  22974089.822   -13832033.478 8 -10738900.17145  22974089.399    22974099.6974
  22939115.343    -7245394.307 8  -5364272.99146  22939114.841    22939124.9324
  23335396.418   -13643634.851 7 -10617341.83545  23335395.992    23335403.4104
  21284725.961   -20853614.786 9 -15968756.18047  21284725.421    21284731.8824
  23606023.281    -7736898.740 8  -6001367.52045  23606022.850    23606034.3734
  20306384.615   -21246966.600 8 -16541510.48147  20306384.063    20306388.4264
  24200758.684    -9614568.525 8  -6940086.46345  24200757.553    24200770.2234
  23916141.547                                    23916135.561    23916069.9174
  20249506.048   -19537974.674 8 -15202115.45247  20249505.689    20249510.8384
 01  5 25  0 43  0.0000000  0  9 25 31 11 21 03 14 15 18 29
  22956527.712   -13924319.623 7 -10810811.25845  22956527.437    22956537.8204
  22949326.507    -7191735.342 8  -5322460.85246  22949325.962    22949335.8314
  23317688.507   -13736688.994 7 -10689851.45845  23317688.181    23317695.6734
  21288951.753   -20831408.130 9 -15951452.30147  21288951.186    21288957.6384
  23622586.364    -7649861.435 8  -5933546.51945  23622585.794    23622597.0854
  20310729.954   -21224131.190 8 -16523716.65947  20310729.445    20310733.9404
  24221190.792    -9507198.642 8  -6856421.91545  24221189.708    24221202.3444
  23930155.079                                    23930149.630    23930163.6164
  20250475.611   -19532878.799 8 -15198144.62647  20250475.288    20250480.4524
 01  5 25  0 43 30.0000000  0  9 25 31 11 21 03 14 15 18 29
  22938998.904   -14016432.010 7 -10882586.93445  22938998.752    22939009.1194
  22959613.261    -7137680.526 8  -5280340.29846  22959612.590    22959622.2164
  23300018.574   -13829543.873 7 -10762205.82045  23300018.403    23300025.8424
  21293211.859   -20809021.323 9 -15934008.05847  21293211.266    21293217.7454
  23639169.107    -7562719.412 8  -5865643.88045  23639168.445    23639179.9034
  20315158.467   -21200859.222 8 -16505582.65447  20315157.989    20315162.5094
  24241652.363    -9399672.862 8  -6772635.87345  24241651.393    24241664.3954
  23944182.830                                    23944176.709    23944186.4284
  20251524.022   -19527368.736 8 -15193851.05747  20251523.762    20251528.9984
 01  5 25  0 44  0.0000000  0  9 25 31 11 21 03 14 15 18 29
  22921504.352   -14108367.977 7 -10954225.15945  22921503.934    22921513.8714
  22969974.670    -7083232.686 8  -5237913.48646  22969973.907    22969983.4984
  23282387.104   -13922197.476 8 -10834403.37345  23282386.799    23282394.2914
  21297506.166   -20786454.738 9 -15916423.73247  21297505.584    21297512.0204
  23655770.788    -7475475.842 8  -5797662.11345  23655770.281    23655781.9514
  20319669.825   -21177152.372 8 -16487109.77747  20319669.266    20319673.7904
  24262143.160    -9291993.055 7  -6688729.80445  24262142.199    24262155.8204
  23958223.725                                    23958217.608    23958229.0964
  20252651.104   -19521445.887 8 -15189235.82347  20252650.822    20252656.0824
 01  5 25  0 44 30.0000000  0  9 25 31 11 21 03 14 15 18 29
  22904043.440   -14200123.535 8 -11025722.78045  22904043.241    22904053.2834
  22980410.402    -7028393.549 8  -5195181.75746  22980409.623    22980419.2064
  23264794.738   -14014646.627 8 -10906441.61545  23264794.239    23264801.7444
  21301834.955   -20763707.183 9 -15898698.38947  21301834.327    21301840.7604
  23672391.418    -7388132.990 8  -5729602.98745  23672391.114    23672403.1754
  20324263.694   -21153011.764 8 -16468298.91047  20324263.086    20324267.6304
  24282662.915    -9184160.356 7  -6604704.59145  24282662.053    24282676.1554
  23972278.454                                    23972272.149    23972286.1344
  20253856.702   -19515110.571 8 -15184299.20247  20253856.397    20253861.5974
 01  5 25  0 45  0.0000000  0  9 25 31 11 21 03 14 15 18 29
  22886617.298   -14291697.480 8 -11097078.87046  22886617.165    22886627.2514
  22990919.604    -6973167.173 8  -5152148.30646  22990918.848    22990928.3644
  23247241.199   -14106890.338 7 -10978319.76045  23247240.651    23247248.2964
  21306198.131   -20740778.646 9 -15880832.01847  21306197.486    21306203.8714
  23689030.376    -7300695.024 8  -5661469.71845  23689030.195    23689042.3374
  20328939.489   -21128440.282 8 -16449152.30547  20328938.918    20328943.4604
  24303211.521    -9076177.890 7  -6520562.71245  24303210.478    24303225.1294
  23986347.414                                    23986340.689    23986380.2424
  20255140.266   -19508365.477 9 -15179043.27347  20255139.998    20255145.1244
 01  5 25  0 45 30.0000000  0  9 25 31 11 21 03 14 15 18 29
  22869226.426   -14383087.058 8 -11168291.32846  22869226.274    22869236.3034
  23001502.068    -6917556.256 8  -5108815.20446  23001501.352    23001510.7464
  23229727.275   -14198926.285 8 -11050036.01046  23229726.655    23229734.4924
  21310595.859   -20717668.705 9 -15862824.29847  21310595.202    21310601.5264
  23705686.944    -7213165.332 8  -5593265.00245  23705686.834    23705699.2454
  20333696.925   -21103439.625 8 -16429671.26047  20333696.325    20333700.9024
  24323788.211    -8968047.728 7  -6436305.73645  24323787.072    24323801.6984
  24000429.897                                    24000422.960    24000480.0844
  20256501.568   -19501211.942 8 -15173469.07647  20256501.256    20256506.3744
 01  5 25  0 46  0.0000000  0  9 25 31 11 21 03 14 15 18 29
  22851871.316   -14474288.807 8 -11239357.41846  22851871.079    22851881.0134
  23012157.496    -6861562.372 8  -5065183.67046  23012156.775    23012166.1014
  23212253.565   -14290750.900 8 -11121587.57246  23212253.011    23212260.8344
  21315028.225   -20694376.223 9 -15844674.31047  21315027.584    21315033.9174
  23722360.848    -7125545.445 8  -5524989.97645  23722360.541    23722372.8024
  20338535.870   -21078010.361 8 -16409856.25247  20338535.325    20338539.8584
  24344393.014    -8859770.441 8  -6351934.12645  24344391.948    24344406.4624
  24014525.635                                    24014518.542    24014532.5264
  20257940.509   -19493650.050 9 -15167576.69147  20257940.230    20257945.3884
 01  5 25  0 46 30.0000000  0  9 25 31 11 21 03 14 15 18 29
  22834552.328   -14565299.867 8 -11310274.90746  22834552.259    22834562.0254
  23022885.077    -6805188.224 8  -5021255.83846  23022884.419    23022893.7814
  23194820.592   -14382361.807 8 -11192972.60946  23194820.030    23194827.8674
  21319495.501   -20670900.295 9 -15826381.41347  21319494.931    21319501.2624
  23739051.212    -7037838.378 8  -5456647.08845  23739050.906    23739062.8534
  20343456.130   -21052154.433 8 -16389708.75047  20343455.569    20343460.0144
  24365025.295    -8751347.913 7  -6267449.35045  24365024.224    24365038.4804
  24028635.532                                    24028628.604    24028657.9484
  20259457.006   -19485681.017 8 -15161367.02547  20259456.730    20259461.8784
 01  5 25  0 47  0.0000000  0  9 25 31 11 21 03 14 15 18 29
  22817269.791   -14656119.205 8 -11381043.01046  22817269.793    22817279.4434
  23033684.449    -6748438.214 8  -4977035.12846  23033683.832    23033692.9974
  23177428.203   -14473758.519 8 -11264190.73846  23177427.841    23177435.7464
  21323997.582   -20647242.159 9 -15807946.53047  21323996.964    21324003.3054
  23755757.275    -6950049.098 8  -5388240.10145  23755756.971    23755768.8634
  20348456.902   -21025875.317 8 -16369231.50547  20348456.337    20348460.7114
  24385684.532    -8642784.004 7  -6182854.37845  24385683.482    24385697.5634
  24042759.819                                    24042752.276    24042764.6584
  20261050.342   -19477308.088 8 -15154842.65147  20261050.057    20261055.1814
 01  5 25  0 47 30.0000000  0  9 25 31 11 21 03 14 15 18 29
  22800024.664   -14746743.357 8 -11451659.02146  22800024.502    22800034.0714
  23044555.022    -6691314.619 8  -4932523.31646  23044554.366    23044563.3124
  23160077.252   -14564938.076 8 -11335239.65146  23160076.892    23160084.8714
  21328534.352   -20623401.672 9 -15789369.55347  21328533.703    21328540.0374
  23772478.517    -6862180.024 8  -5319770.94245  23772478.165    23772490.0604
  20353537.927   -20999174.153 8 -16348425.39747  20353537.379    20353541.8014
  24406370.850    -8534079.867 7  -6098150.12845  24406369.483    24406383.6224
  24056897.914      338663.28354                  24056893.517    24056899.1494
  20262720.189   -19468531.933 8 -15148004.07147  20262719.971    20262725.2084
 01  5 25  0 48  0.0000000  0  9 25 31 11 21 03 14 15 18 29
  22782817.160   -14837169.252 8 -11522120.53846  22782816.804    22782826.4314
  23055495.516    -6633819.454 8  -4887721.95246  23055495.014    23055504.1224
  23142768.326   -14655897.576 8 -11406117.09346  23142767.805    23142775.8194
  21333106.034   -20599377.030 9 -15770649.06447  21333105.448    21333111.8064
  23789214.478    -6774233.630 8  -5251241.51345  23789214.130    23789226.0564
  20358699.102   -20972052.109 8 -16327291.33047  20358698.487    20358703.0564
  24427082.953    -8425236.479 7  -6013337.41845  24427081.731    24427096.0884
  24071049.442                                    24071045.819    24071056.4104
  20264466.723   -19459353.199 9 -15140851.80847  20264466.572    20264471.9004
 01  5 25  0 48 30.0000000  0  9 25 31 11 21 03 14 15 18 29
  22765647.783   -14927393.366 8 -11592424.85746  22765647.551    22765657.1084
  23066506.636    -6575954.663 8  -4842632.59646  23066506.231    23066515.3864
  23125501.961   -14746633.656 8 -11476820.46246  23125501.259    23125509.1524
  21337713.170   -20575166.647 8 -15751783.85847  21337712.579    21337718.8894
  23805964.802    -6686211.784 8  -5182653.32745  23805964.383    23805976.3724
  20363940.045   -20944510.056 8 -16305829.98447  20363939.488    20363944.2004
  24447821.319    -8316254.830 7  -5928416.89745  24447820.556    24447835.0344
  24085214.053                                    24085206.636    24085219.3904
  20266290.020   -19449772.494 9 -15133386.30947  20266289.819    20266294.9914
 01  5 25  0 49  0.0000000  0  9 25 31 11 21 03 14 15 18 29
  22748517.196   -15017413.080 8 -11662569.87946  22748517.170    22748526.7494
  23077587.731    -6517723.141 8  -4797257.49846  23077587.368    23077596.3874
  23108278.268   -14837144.234 8 -11547348.09246  23108277.553    23108285.4034
  21342355.515   -20550770.681 8 -15732774.03147  21342354.975    21342361.3524
  23822728.604    -6598117.943 8  -5114009.02545  23822728.158    23822740.2604
  20369260.630   -20916549.751 8 -16284042.71847  20369260.115    20369264.8164
  24468585.773    -8207137.206 7  -5843390.46245  24468585.220    24468599.5794
  24099392.944     1882652.97017                  24099396.203    24099399.2044
  20268189.433   -19439791.355 9 -15125608.77247  20268189.225    20268194.3024
 01  5 25  0 49 30.0000000  0  9 25 31 11 21 03 14 15 18 29
  22731426.050   -15107226.197 8 -11732553.91446  22731426.091    22731435.7174
  23088738.108    -6459127.963 8  -4751598.98046  23088737.660    23088746.7084
  23091097.774   -14927427.257 8 -11617698.40146  23091097.127    23091104.9224
  21347033.205   -20526188.899 8 -15713619.43947  21347032.697    21347039.0814
  23839505.528    -6509955.164 8  -5045310.97745  23839505.155    23839517.3474
  20374660.410   -20888173.810 8 -16261931.58447  20374659.896    20374664.5524
  24489376.185    -8097885.676 7  -5758259.69144  24489375.257    24489389.5744
                       -77.954
  20270164.621   -19429411.430 9 -15117520.49047  20270164.417    20270169.4264
 01  5 25  0 50  0.0000000  0  8 25 31 11 21 03 14 15 29
  22714374.834   -15196830.731 8 -11802375.43646  22714374.716    22714384.2634
  23099956.587    -6400173.029 8  -4705660.15645  23099956.114    23099965.7494
  23073961.057   -15017480.941 8 -11687870.03746  23073960.469    23073967.8834
  21351746.368   -20501421.108 8 -15694319.88347  21351745.904    21351752.2824
  23856294.800    -6421727.358 8  -4976562.31045  23856294.271    23856306.9414
  20380138.889   -20859384.532 9 -16239498.37147  20380138.374    20380142.9774
  24510191.004    -7988503.104 7  -5673026.79344  24510190.168    24510204.3314
  20272215.389   -19418634.722 9 -15109123.04047  20272215.158    20272220.1064
 01  5 25  0 50 30.0000000  0  8 25 31 11 21 03 14 15 29
  22697363.424   -15286225.382 8 -11872033.40646  22697363.213    22697372.8074
  23111243.102    -6340862.444 8  -4659444.21945  23111242.400    23111252.3634
  23056868.261   -15107304.708 8 -11757862.50746  23056867.703    23056874.6514
  21356494.696   -20476468.679 8 -15674876.45547  21356494.247    21356500.6434
  23873095.377    -6333438.969 7  -4907766.41845  23873094.930    23873108.1714
  20385695.370   -20830185.285 9 -16216745.70047  20385694.787    20385699.4944
  24531030.243    -7878992.747 7  -5587694.28144  24531029.404    24531043.6444
  20274341.040   -19407464.380 9 -15100418.86247  20274340.776    20274345.7204
 01  5 25  0 51  0.0000000  0  8 25 31 11 21 03 14 15 29
  22680393.286   -15375402.955 8 -11941522.23546  22680393.181    22680402.6974
  23122597.646    -6281194.188 8  -4612949.57345  23122597.019    23122606.8164
  23039820.658   -15196891.355 8 -11827670.20446  23039820.094    23039826.5804
  21361279.202   -20451326.321 8 -15655285.03647  21361278.715    21361285.1424
  23889907.871    -6245088.140 7  -4838921.88545  23889907.412    23889921.2054
  20391330.352   -20800573.036 9 -16193671.21447  20391329.766    20391334.5744
  24551894.645    -7769351.907 7  -5502260.15244  24551893.697    24551907.9084
  20276542.234   -19395896.891 9 -15091405.21147  20276541.932    20276546.9424
 01  5 25  0 51 30.0000000  0  8 25 31 11 21 03 14 15 29
  22663464.336   -15464364.266 8 -12010842.57646  22663464.201    22663473.7184
  23134019.251    -6221174.806 8  -4566181.34445  23134018.481    23134027.9544
  23022817.872   -15286242.120 8 -11897294.09046  23022817.325    23022823.3434
  21366099.137   -20425996.935 8 -15635547.86547  21366098.668    21366105.1804
  23906730.905    -6156681.508 7  -4770033.89245  23906730.605    23906744.8344
  20397042.780   -20770553.233 9 -16170279.15647  20397042.262    20397047.1234
  24572782.742    -7659585.931 7  -5416728.54844  24572781.964    24572795.7414
  20278818.036   -19383937.363 9 -15082086.08847  20278817.707    20278822.7254
 01  5 25  0 52  0.0000000  0  8 25 31 11 21 03 14 15 29
  22646577.340   -15553105.100 8 -12079991.09046  22646577.271    22646586.7264
  23145507.406    -6160805.381 8  -4519140.32845  23145506.629    23145515.5854
  23005860.683   -15375352.943 8 -11966731.00846  23005860.154    23005865.8294
  21370955.069   -20400478.551 8 -15615663.42746  21370954.576    21370961.1844
  23923564.647    -6068220.553 7  -4701103.52045  23923564.171    23923578.5024
  20402832.833   -20740126.383 9 -16146569.91847  20402832.353    20402837.2194
  24593694.489    -7549694.783 7  -5331099.41245  24593694.009    24593707.6934
  20281168.467   -19371585.540 9 -15072461.26447  20281168.150    20281173.2164
 01  5 25  0 52 30.0000000  0  8 25 31 11 21 03 14 15 29
  22629733.250   -15641622.004 8 -12148965.10546  22629732.972    22629742.3644
  23157061.709    -6100088.128 8  -4471828.31145  23157060.931    23157069.4414
  22988949.690   -15464220.724 8 -12035978.53746  22988949.172    22988954.6674
  21375847.152   -20374769.999 8 -15595630.81946  21375846.670    21375853.3934
  23940408.219    -5979707.527 7  -4632132.57645  23940407.811    23940422.0054
  20408700.363   -20709293.312 9 -16122544.15247  20408699.801    20408704.6044
  24614630.235    -7439679.866 7  -5245373.76445  24614629.646    24614643.2044
  20283593.450   -19358841.902 9 -15062531.15047  20283593.151    20283598.2164
 01  5 25  0 53  0.0000000  0  8 25 31 11 21 03 14 15 29
  22612931.704   -15729913.201 8 -12217763.27446  22612931.503    22612940.8654
  23168681.341    -6039026.771 8  -4424248.13945  23168680.545    23168688.7214
  22972085.004   -15552844.156 8 -12105035.67346  22972084.547    22972089.7964
  21380775.252   -20348872.103 8 -15575450.64846  21380774.738    21380781.6554
  23957260.899    -5891146.422 8  -4563124.17045  23957260.602    23957274.7314
  20414644.492   -20678056.834 8 -16098204.02447  20414643.956    20414648.7034
  24635588.217    -7329544.255 7  -5159554.13844  24635587.379    24635601.6974
  20286092.477   -19345708.973 9 -15052297.67847  20286092.201    20286097.2554
 01  5 25  0 53 30.0000000  0  8 25 31 11 21 03 14 15 29
  22596173.859   -15817975.607 8 -12286383.13946  22596173.565    22596182.9174
  23180366.032    -5977623.463 8  -4376401.53145  23180365.346    23180373.3074
  22955267.527   -15641219.786 8 -12173899.67545  22955267.120    22955272.0534
  21385739.780   -20322783.174 8 -15555121.62846  21385739.221    21385746.2234
  23974122.666    -5802539.099 8  -4494079.78845  23974122.141    23974136.4614
  20420665.061   -20646418.135 9 -16073550.49447  20420664.568    20420669.2774
  24656569.269    -7219289.061 7  -5073641.32045  24656568.034    24656582.8344
  20288665.441   -19332187.506 9 -15041761.44547  20288665.199    20288670.2424
 01  5 25  0 54  0.0000000  0  8 25 31 11 21 03 14 15 29
  22579459.965   -15905807.365 8 -12354823.27846  22579459.626    22579468.8184
  23192115.117    -5915882.144 8  -4328291.49745  23192114.373    23192122.3184
  22938497.467   -15729346.481 8 -12242569.73045  22938497.080    22938501.8214
  21390740.764   -20296503.611 8 -15534644.07746  21390740.178    21390747.0714
  23990992.292    -5713889.649 8  -4425002.55945  23990991.941    23991006.0754
  20426761.717   -20614379.889 8 -16048585.62947  20426761.257    20426765.9154
  24677572.115    -7108916.956 7  -4987637.40245  24677571.053    24677586.6864
  20291311.954   -19318279.734 9 -15030924.20447  20291311.747    20291316.8264
 01  5 25  0 54 30.0000000  0  8 25 31 11 21 03 14 15 29
  22562790.624   -15993405.543 8 -12423081.42546  22562790.205    22562799.2394
  23203927.741    -5853805.622 8  -4279920.30245  23203927.165    23203935.2144
  22921775.439   -15817221.837 8 -12311043.94545  22921774.975    22921779.6424
  21395778.220   -20270032.634 8 -15514017.37146  21395777.571    21395784.3244
  24007869.662    -5625200.940 8  -4355894.75945  24007869.207    24007882.8814
  20432934.164   -20581943.889 9 -16023310.82147  20432933.684    20432938.3104
  24698597.392    -6998429.651 7  -4901543.68045  24698596.316    24698612.2624
  20294031.801   -19303987.025 9 -15019787.02147  20294031.564    20294036.6844
 01  5 25  0 55  0.0000000  0  8 25 31 11 21 03 14 15 29
  22546165.996   -16080767.757 8 -12491155.69946  22546165.694    22546174.5264
  23215803.681    -5791396.912 8  -4231290.24545  23215803.044    23215811.5834
  22905101.641   -15904843.350 8 -12379320.34045  22905101.078    22905105.8344
  21400852.030   -20243370.280 8 -15493241.53546  21400851.339    21400857.9424
  24024754.116    -5536475.974 8  -4286758.73145  24024753.688    24024766.6174
  20439181.842   -20549112.401 9 -15997727.85247  20439181.309    20439185.9764
  24719644.704    -6887829.361 8  -4815361.93445  24719643.665    24719658.9284
  20296824.523   -19289311.161 9 -15008351.27347  20296824.291    20296829.3664
 01  5 25  0 55 30.0000000  0  8 25 31 11 21 03 14 15 29
  22529586.702   -16167891.722 8 -12559044.34146  22529586.442    22529595.0994
  23227741.801    -5728659.323 8  -4182403.88945  23227741.429    23227750.6874
  22888476.339   -15992209.245 8 -12447397.58845  22888475.779    22888480.6164
  21405962.333   -20216516.221 8 -15472316.31646  21405961.611    21405968.0784
  24041644.659    -5447718.453 7  -4217597.29145  24041644.016    24041656.6084
  20445504.197   -20515887.779 8 -15971838.53547  20445503.663    20445508.4114
  24740713.122    -6777118.567 8  -4729094.08845  24740712.120    24740726.0394
  20299689.750   -19274254.190 9 -14996618.55547  20299689.527    20299694.5174
 01  5 25  0 56  0.0000000  0  8 25 31 11 21 03 14 15 29
  22513053.591   -16254773.739 8 -12626744.40746  22513053.258    22513061.8024
  23239743.009    -5665594.030 8  -4133262.21245  23239742.511    23239751.8624
  22871900.333   -16079315.538 8 -12515272.52245  22871899.883    22871904.8154
  21411109.367   -20189468.233 8 -15451239.98446  21411108.698    21411115.1244
  24058540.371    -5358929.655 8  -4148411.45945  24058539.959    24058552.6274
  20451901.335   -20482270.301 9 -15945643.08847  20451900.854    20451905.5634
  24761802.295    -6666297.839 8  -4642740.55945  24761801.131    24761814.4024
  20302627.601   -19258815.864 9 -14984588.67147  20302627.374    20302632.2994
 01  5 25  0 56 30.0000000  0  7 25 31 11 21 03 14 29
  22496568.972   -16341400.918 8 -12694245.93546  22496568.600    22496576.8964
  23251807.858    -5602194.143 8  -4083859.83745  23251807.259    23251816.6264
  22855375.899   -16166149.873 8 -12582935.53445  22855375.514    22855380.8934
  21416295.202   -20162216.267 8 -15430004.70246  21416294.568    21416301.0044
  24075443.579    -5270102.508 7  -4079195.78445  24075443.147    24075456.3244
  20458374.914   -20448251.841 8 -15919135.19547  20458374.372    20458378.9584
  20305639.537   -19242987.682 9 -14972255.01847  20305639.308    20305644.2914
 01  5 25  0 57  0.0000000  0  7 25 31 11 21 03 14 29
  22480130.840   -16427783.798 9 -12761557.09946  22480130.479    22480138.4814
  23263933.088    -5538476.179 8  -4034209.58045  23263932.435    23263941.8704
  22838901.082   -16252723.323 8 -12650395.30045  22838900.769    22838906.6074
  21421517.541   -20134773.147 8 -15408620.46846  21421516.872    21421523.2864
  24092351.201    -5181253.529 7  -4009963.10245  24092350.623    24092364.2874
  20464921.762   -20413848.025 8 -15892327.01847  20464921.210    20464925.7724
  20308722.806   -19226784.641 9 -14959629.26947  20308722.594    20308727.6964
 01  5 25  0 57 30.0000000  0  7 25 31 11 21 03 14 29
  22463739.792   -16513919.067 8 -12828675.30847  22463739.397    22463747.3004
  23276118.609    -5474442.099 8  -3984313.01945  23276117.869    23276127.3224
  22822476.549   -16339032.698 8 -12717649.27445  22822476.309    22822482.6294
  21426776.440   -20107137.411 8 -15387086.14846  21426775.762    21426782.1964
  24109262.536    -5092384.286 7  -3940714.61345  24109261.925    24109275.6674
  20471541.841   -20379059.626 8 -15865219.16047  20471541.277    20471545.8574
  20311877.327   -19210207.321 9 -14946711.86747  20311877.130    20311882.2344
 01  5 25  0 58  0.0000000  0  7 25 31 11 21 03 14 29
  22447396.627   -16599802.467 8 -12895597.30147  22447396.321    22447404.1634
  23288364.044    -5410093.134 8  -3934171.07846  23288363.271    23288372.7774
  22806103.321   -16425073.899 8 -12784694.30746  22806103.093    22806109.7734
  21432072.487   -20079306.490 8 -15365399.73046  21432071.845    21432078.2834
  24126177.509    -5003496.439 7  -3871451.62945  24126176.944    24126190.8024
  20478234.927   -20343887.053 8 -15837811.96547  20478234.363    20478238.9884
  20315103.094   -19193255.586 8 -14933502.71347  20315102.887    20315108.0324
 01  5 25  0 58 30.0000000  0  7 25 31 11 21 03 14 29
  22431101.557   -16685432.810 8 -12962322.07347  22431101.252    22431109.2244
  23300668.598    -5345433.125 8  -3883786.76546  23300667.803    23300677.4554
  22789781.713   -16510845.424 8 -12851529.20746  22789781.422    22789788.0704
  21437405.523   -20051281.409 8 -15343562.02946  21437404.853    21437411.2854
  24143095.248    -4914593.868 7  -3802177.20145  24143094.713    24143108.5304
  20485000.605   -20308333.045 8 -15810107.54547  20485000.069    20485004.6144
  20318399.591   -19175931.903 8 -14920003.73747  20318399.415    20318404.5904
 01  5 25  0 59  0.0000000  0  7 25 31 11 21 03 14 29
  22414855.461   -16770805.680 8 -13028846.23247  22414855.109    22414863.3344
  23313031.925    -5280463.884 8  -3833161.51346  23313031.045    23313040.9924
  22773512.169   -16596343.913 8 -12918151.34546  22773511.686    22773518.2334
  21442775.795   -20023059.866 8 -15321571.24446  21442775.166    21442781.5944
  24160015.794    -4825678.101 7  -3732892.48845  24160015.189    24160028.7394
  20491838.817   -20272398.223 8 -15782106.38447  20491838.256    20491842.6574
  20321766.946   -19158236.531 9 -14906215.13547  20321766.803    20321771.8804
 01  5 25  0 59 30.0000000  0  7 25 31 11 21 03 14 29
  22398658.758   -16855918.948 8 -13095168.11447  22398658.372    22398666.8174
  23325453.311    -5215188.429 8  -3782297.62146  23325452.545    23325462.7144
  22757294.868   -16681567.048 8 -12984558.92146  22757294.343    22757300.8794
  21448183.358   -19994642.240 8 -15299427.67046  21448182.792    21448189.3024
  24176938.027    -4736752.392 7  -3663600.00345  24176937.404    24176950.6954
  20498749.056   -20236084.952 8 -15753810.32647  20498748.472    20498752.7914
  20325204.811   -19140171.285 8 -14892138.31547  20325204.604    20325209.5824
 01  5 25  1  0  0.0000000  0  7 25 31 11 21 03 14 29
  22382512.483   -16940767.863 8 -13161284.01147  22382511.980    22382520.5834
  23337932.906    -5149607.618 8  -3731195.79346  23337932.176    23337942.4764
  22741130.606   -16766510.383 8 -13050748.48246  22741130.183    22741136.7274
  21453628.960   -19966025.497 8 -15277128.94846  21453628.441    21453635.0304
  24193861.948    -4647817.668 7  -3594300.52445  24193861.368    24193874.8894
  20505731.273   -20199393.047 8 -15725219.23047  20505730.688    20505735.0874
  20328712.979   -19121735.651 8 -14877772.87247  20328712.765    20328717.8054
 01  5 25  1  0 30.0000000  0  7 25 31 11 21 03 14 29
  22366416.397   -17025351.985 8 -13227193.58446  22366415.953    22366424.7594
  23350469.815    -5083726.776 8  -3679860.18746  23350469.036    23350479.3734
  22725019.724   -16851173.466 8 -13116719.67046  22725019.386    22725025.9274
  21459112.398   -19937211.003 8 -15254676.14146  21459111.826    21459118.3824
  24210786.692    -4558878.864 7  -3524997.84545  24210785.911    24210799.8214
  20512784.755   -20162326.573 9 -15696336.26147  20512784.175    20512788.6944
  20332290.848   -19102933.122 8 -14863121.55447  20332290.698    20332295.8314
 01  5 25  1  1  0.0000000  0  7 25 31 11 21 03 14 29
  22350371.530   -17109667.821 8 -13292894.09446  22350371.040    22350379.8724
  23363063.087    -5017548.044 8  -3628292.45646  23363062.379    23363072.8764
  22708962.855   -16935553.223 8 -13182470.08346  22708962.472    22708969.0794
  21464633.646   -19908197.380 8 -15232068.15146  21464633.024    21464639.5494
  24227711.632    -4469938.296 7  -3455693.83645  24227710.894    24227725.1684
  20519909.259   -20124886.751 9 -15667162.37847  20519908.713    20519913.3104
  20335938.504   -19083764.564 8 -14848185.01647  20335938.333    20335943.4924
 01  5 25  1  1 30.0000000  0  7 25 31 11 21 03 14 29
  22334377.773   -17193714.239 8 -13358384.66646  22334377.373    22334386.1164
  23375712.530    -4951075.582 8  -3576495.83646  23375711.920    23375722.5144
  22692960.196   -17019648.442 8 -13247998.79146  22692959.731    22692966.3804
  21470192.650   -19878985.363 8 -15209305.58146  21470192.035    21470198.4634
  24244636.118    -4380999.597 7  -3386391.30945  24244635.527    24244650.4084
  20527104.208   -20087076.613 9 -15637699.94547  20527103.692    20527108.3164
  20339655.173   -19064232.709 8 -14832965.39047  20339655.030    20339660.2254
 01  5 25  1  2  0.0000000  0  7 25 31 11 21 03 14 29
  22318436.265   -17277486.065 8 -13423661.28346  22318435.870    22318444.4824
  23388418.009    -4884310.339 8  -3524471.07846  23388417.354    23388427.7834
  22677012.421   -17103454.519 8 -13313302.17946  22677011.981    22677018.7394
  21475789.746   -19849572.831 8 -15186386.76646  21475789.110    21475795.5634
  24261560.301    -4292063.660 7  -3317090.89145  24261559.901    24261574.9914
  20534369.762   -20048895.984 8 -15607948.80747  20534369.222    20534373.7664
  20343441.157   -19044337.096 9 -14817462.31147  20343441.029    20343446.2434
 01  5 25  1  2 30.0000000  0  7 25 31 11 21 03 14 29
  22302547.265   -17360981.711 8 -13488722.67046  22302546.899    22302555.6324
  23401178.512    -4817255.905 8  -3472220.98246  23401177.872    23401188.0564
  22661119.803   -17186969.918 8 -13378379.06746  22661119.404    22661126.1664
  21481425.019   -19819959.457 8 -15163311.43546  21481424.350    21481430.8414
  24278483.214    -4203134.169 7  -3247795.46345  24278482.776    24278498.3774
  20541705.214   -20010347.599 8 -15577911.11647  20541704.684    20541709.2764
  20347296.056   -19024079.846 9 -14801677.44147  20347295.880    20347301.0364
 01  5 25  1  3  0.0000000  0  7 25 31 11 21 03 14 29
  22286711.627   -17444196.883 8 -13553565.51946  22286711.451    22286720.1834
  23413993.622    -4749913.859 8  -3419746.77746  23413992.880    23414003.0044
  22645283.235   -17270190.501 8 -13443226.23646  22645282.927    22645289.6474
  21487098.890   -19790142.909 8 -15140077.79946  21487098.192    21487104.6134
  24295404.884    -4114212.076 7  -3178505.85345  24295404.371    24295420.3194
  20549110.605   -19971431.788 8 -15547587.11947  20549110.057    20549114.7554
  20351219.708   -19003460.820 9 -14785610.66447  20351219.554    20351224.6644
 01  5 25  1  3 30.0000000  0  7 25 31 11 21 03 14 29
  22270929.930   -17527130.922 8 -13618189.30946  22270929.657    22270938.2284
  23426862.387    -4682288.883 8  -3367052.10546  23426861.691    23426871.6474
  22629502.898   -17353115.727 8 -13507843.23646  22629502.632    22629509.2534
  21492811.053   -19760125.106 8 -15116687.32246  21492810.387    21492816.8404
  24312324.179    -4025302.258 7  -3109225.75745  24312323.718    24312339.6724
  20556585.302   -19932152.275 8 -15516979.71447  20556584.742    20556589.4204
  20355211.583   -18982483.602 9 -14769264.77747  20355211.410    20355216.4854
 01  5 25  1  4  0.0000000  0  7 25 31 11 21 03 14 29
  22255202.399   -17609780.153 8 -13682591.17446  22255201.944    22255210.6814
  23439784.578    -4614382.862 8  -3314138.43946  23439783.975    23439793.6194
  22613779.484   -17435742.056 8 -13572227.33346  22613779.147    22613785.7034
  21498562.071   -19729904.253 8 -15093138.64046  21498561.346    21498567.8694
  24329240.907    -3936406.421 7  -3039956.60145  24329240.426    24329256.2774
  20564128.977   -19892510.043 8 -15486089.66347  20564128.420    20564133.0434
  20359271.599   -18961148.528 9 -14752640.03847  20359271.360    20359276.4444
 01  5 25  1  4 30.0000000  0  7 25 31 11 21 03 14 29
  22239529.205   -17692142.256 8 -13746769.31246  22239528.975    22239537.6064
  23452759.639    -4546199.204 8  -3261008.43346  23452759.052    23452768.3694
  22598113.513   -17518067.323 8 -13636376.81446  22598112.972    22598119.4534
  21504351.285   -19699480.008 8 -15069431.44946  21504350.718    21504357.4374
  24346154.429    -3847527.624 7  -2970700.69845  24346153.968    24346169.3064
  20571741.230   -19852507.179 8 -15454918.60047  20571740.650    20571745.3034
  20363399.197   -18939457.372 9 -14735737.84147  20363398.982    20363404.2134
 01  5 25  1  5  0.0000000  0  7 25 31 11 21 03 14 29
  22223911.334   -17774214.826 8 -13810721.85646  22223911.097    22223919.5784
  23465786.971    -4477740.719 8  -3207664.26046  23465786.405    23465795.7104
  22582505.199   -17600089.178 8 -13700289.89146  22582504.658    22582510.8654
  21510179.769   -19668851.322 7 -15045564.94846  21510179.183    21510185.8014
  24363063.742    -3758668.889 7  -2901460.44045  24363063.421    24363078.7574
  20579421.832   -19812145.747 8 -15423468.15047  20579421.273    20579425.8664
  20367594.301   -18917411.790 9 -14718559.46548  20367594.138    20367599.4324
 01  5 25  1  5 30.0000000  0  7 25 31 11 21 03 14 29
  22208349.030   -17855995.848 8 -13874447.19746  22208348.690    22208356.8184
  23478865.887    -4409010.817 8  -3154108.62046  23478865.379    23478874.8924
  22566954.993   -17681805.589 8 -13763964.93946  22566954.483    22566960.6284
  21516047.022   -19638018.479 7 -15021539.35246  21516046.342    21516053.1294
  24379969.067    -3669833.535 7  -2832238.39145  24379968.589    24379983.8634
  20587170.266   -19771428.272 8 -15391740.25347  20587169.669    20587174.2264
  20371856.509   -18895013.889 9 -14701106.54848  20371856.317    20371861.5554
 01  5 25  1  6  0.0000000  0  7 25 31 11 21 03 14 29
  22192842.693   -17937481.452 8 -13937942.32846  22192842.395    22192850.1254
  23491996.428    -4340011.544 8  -3100343.10346  23491995.809    23492005.2604
  22551463.653   -17763213.157 8 -13827399.34146  22551463.107    22551469.3954
  21521953.376   -19606979.393 8 -14997353.09946  21521952.732    21521959.7544
  24396869.590    -3581022.945 7  -2763035.65145  24396869.128    24396884.2544
  20594986.153   -19730355.569 8 -15359735.55747  20594985.558    20594990.1534
  20376185.657   -18872264.254 9 -14683379.54348  20376185.490    20376190.5444
 01  5 25  1  6 30.0000000  0  7 25 31 11 21 03 14 29
  22177392.756   -18018670.404 8 -14001206.31646  22177392.511    22177400.0934
  23505177.228    -4270747.002 8  -3046370.86846  23505176.594    23505186.0934
  22536031.311   -17844310.844 8 -13890592.29246  22536030.750    22536037.0464
  21527898.740   -19575735.481 8 -14973007.21146  21527898.196    21527905.3384
  24413764.486    -3492241.364 7  -2693855.52545  24413764.022    24413778.8504
  20602869.053   -19688931.028 8 -15327456.69547  20602868.401    20602872.9104
  20380581.243   -18849165.712 9 -14665380.66448  20380581.047    20380585.9834
 01  5 25  1  7  0.0000000  0  7 25 31 11 21 03 14 29
  22161999.950   -18099559.216 8 -14064236.42146  22161999.847    22162007.2214
  23518408.033    -4201219.535 8  -2992193.77146  23518407.395    23518416.8334
  22520658.531   -17925095.161 8 -13953541.04846  22520658.053    22520664.2914
  21533883.854   -19544285.158 8 -14948500.49946  21533883.292    21533890.0824
  24430653.286    -3403490.732 7  -2624699.52645  24430652.791    24430667.6664
  20610818.814   -19647155.356 8 -15294904.23947  20610818.048    20610822.4344
  20385043.086   -18825718.774 9 -14647110.31448  20385042.888    20385047.7184
 01  5 25  1  7 30.0000000  0  7 25 31 11 21 03 14 29
  22146664.470   -18180147.676 8 -14127032.51346  22146664.354    22146671.6604
  23531687.651    -4131434.021 8  -2937815.57045  23531686.923    23531696.4584
  22505345.620   -18005565.783 8 -14016245.38546  22505345.153    22505351.1714
  21539907.924   -19512629.470 8 -14923833.73746  21539907.273    21539913.7724
  24447535.137    -3314775.812 7  -2555571.31445  24447534.804    24447549.4064
  20618834.300   -19605032.683 8 -15262081.38647  20618833.689    20618838.1204
  20389570.377   -18801927.214 9 -14628571.42448  20389570.214    20389575.0314
 01  5 25  1  8  0.0000000  0  7 25 31 11 21 03 14 29
  22131386.986   -18260431.187 8 -14189590.96646  22131386.730    22131394.1284
  23545016.194    -4061391.890 8  -2883237.43145  23545015.545    23545024.8894
  22490093.116   -18085718.716 8 -14078702.16846  22490092.573    22490098.5074
  21545971.232   -19480766.313 8 -14899005.31746  21545970.495    21545977.1864
  24464409.923    -3226097.942 7  -2486472.00345  24464409.522    24464424.4074
  20626915.950   -19562563.286 8 -15228988.35647  20626915.304    20626919.8704
  20394163.392   -18777790.620 9 -14609763.66848  20394163.225    20394168.0504
 01  5 25  1  8 30.0000000  0  7 25 31 11 21 03 14 29
  22116167.962   -18340406.684 8 -14251909.43246  22116167.696    22116175.1194
  23558393.184    -3991095.286 7  -2828461.00645  23558392.395    23558401.6264
  22474901.511   -18165550.367 8 -14140908.57446  22474901.050    22474907.0594
  21552074.487   -19448693.934 8 -14874013.87746  21552073.650    21552080.4204
  24481277.570    -3137458.704 7  -2417402.80945  24481277.005    24481292.0384
  20635063.246   -19519748.440 8 -15195626.13547  20635062.664    20635067.3424
  20398821.863   -18753309.933 9 -14590687.80347  20398821.670    20398826.5274
 01  5 25  1  9  0.0000000  0  7 25 31 11 21 03 14 29
  22101007.907   -18420072.422 8 -14313986.47846  22101007.681    22101015.2514
  23571817.761    -3920548.045 7  -2773489.27645  23571817.070    23571825.9734
  22459771.346   -18245059.499 8 -14202863.70446  22459770.944    22459776.8714
  21558217.400   -19416413.062 8 -14848859.98546  21558216.597    21558223.3664
  24498136.848    -3048861.982 7  -2348366.74045  24498136.263    24498151.4814
  20643275.860   -19476591.001 8 -15161996.96947  20643275.298    20643279.9614
  20403545.413   -18728487.747 9 -14571345.82247  20403545.199    20403550.0664
 01  5 25  1  9 30.0000000  0  7 25 31 11 21 03 14 29
  22085907.653   -18499424.852 9 -14375819.38246  22085907.415    22085915.0834
  23585289.763    -3849752.297 7  -2718323.91945  23585289.114    23585297.6804
  22444703.356   -18324242.786 8 -14264564.91146  22444702.916    22444708.6544
  21564400.231   -19383922.122 8 -14823542.37046  21564399.557    21564406.3044
  24514988.257    -2960309.504 7  -2279365.11745  24514987.995    24515002.5774
  20651553.505   -19433091.941 8 -15128101.60647  20651552.997    20651557.5474
  20408333.839   -18703324.546 9 -14551738.13848  20408333.605    20408338.4544
 01  5 25  1 10  0.0000000  0  7 25 31 11 21 03 14 29
  22070867.404   -18578462.672 9 -14437407.16346  22070866.997    22070874.6214
  23598808.311    -3778712.146 7  -2662968.08145  23598807.586    23598815.9974
  22429697.744   -18403098.479 8 -14326010.86446  22429697.183    22429702.7824
  21570622.922   -19351221.308 8 -14798061.23946  21570622.379    21570629.2204
  24531830.661    -2871804.760 7  -2210400.68644  24531830.385    24531844.3644
  20659895.610   -19389254.264 8 -15093942.38247  20659895.082    20659899.5834
  20413186.678   -18677822.863 9 -14531866.69248  20413186.445    20413191.2844
 01  5 25  1 10 30.0000000  0  7 25 31 11 21 03 14 29
  22055887.370   -18657182.310 8 -14498747.00046  22055887.037    22055894.6034
  23612373.003    -3707429.343 7  -2607423.18545  23612372.316    23612381.0764
  22414754.911   -18481623.359 8 -14387199.03046  22414754.319    22414759.8474
  21576885.637   -19318308.999 8 -14772415.31146  21576885.243    21576892.3624
  24548663.768    -2783349.487 7  -2141474.82044  24548663.712    24548676.8804
  20668301.793   -19345078.826 8 -15059519.96447  20668301.333    20668305.8524
  20418103.714   -18651983.585 9 -14511732.17948  20418103.501    20418108.3294
 01  5 25  1 11  0.0000000  0  7 25 31 11 21 03 14 29
  22040968.138   -18735582.228 8 -14559837.70746  22040967.895    22040975.5724
  23625982.430    -3635908.415 7  -2551692.70645  23625981.695    23625991.3364
  22399875.150   -18559816.280 8 -14448128.51446  22399874.610    22399880.3964
  21583188.844   -19285186.011 8 -14746605.22246  21583188.469    21583195.5974
  24565486.694    -2694947.633 7  -2072590.58644  24565486.618    24565499.4354
  20676771.608   -19300568.946 8 -15024836.93647  20676771.159    20676775.8144
  20423084.483   -18625809.280 9 -14491336.60948  20423084.303    20423089.1884
 01  5 25  1 11 30.0000000  0  7 25 31 11 21 03 14 29
  22026110.264   -18813660.444 8 -14620677.75446  22026109.982    22026117.7184
  23639636.144    -3564152.803 7  -2495779.41045  23639635.652    23639646.1064
  22385058.891   -18637675.204 8 -14508797.76046  22385058.427    22385064.3854
  21589532.458   -19251851.892 8 -14720630.59846  21589531.918    21589538.8974
  24582298.444    -2606602.507 7  -2003750.59744  24582298.199    24582311.4064
  20685304.828   -19255726.889 8 -14989895.07447  20685304.371    20685308.8964
  20428128.669   -18599302.179 9 -14470681.72748  20428128.481    20428133.4104
 01  5 25  1 12  0.0000000  0  7 25 31 11 21 03 14 29
  22011314.014   -18891413.528 8 -14681264.46846  22011313.855    22011321.7554
  23653335.402    -3492164.305 7  -2439684.60945  23653334.737    23653345.3204
  22370307.035   -18715196.516 8 -14569203.93246  22370306.529    22370312.5394
  21595916.132   -19218305.248 8 -14694490.37145  21595915.579    21595922.5244
  24599099.447    -2518315.564 7  -1934955.87944  24599099.116    24599112.4774
  20693901.317   -19210553.501 8 -14954695.03447  20693900.770    20693905.1234
  20433236.096   -18572462.534 9 -14449767.70948  20433235.865    20433240.8524
 01  5 25  1 12 30.0000000  0  7 25 31 11 21 03 14 29
  21996580.213   -18968838.685 8 -14741595.62846  21996580.194    21996588.0314
  23667077.942    -3419946.135 7  -2383410.79145  23667077.334    23667087.6144
  22355619.671   -18792377.846 8 -14629345.18946  22355619.217    22355625.3224
  21602340.428   -19184545.655 8 -14668184.21645  21602339.880    21602346.4644
  24615888.565    -2430089.504 7  -1866208.61744  24615888.325    24615901.9424
  20702560.423   -19165050.718 8 -14919238.32147  20702559.776    20702564.0274
  20438406.379   -18545292.116 9 -14428595.96648  20438406.126    20438411.2414
 01  5 25  1 13  0.0000000  0  7 25 31 11 21 03 14 29
  21981909.567   -19045934.948 8 -14801670.50246  21981909.291    21981916.8894
  23680863.541    -3347502.657 7  -2326961.44845  23680863.119    23680872.9314
  22340997.602   -18869218.052 8 -14689220.63946  22340997.149    22341003.2194
  21608805.475   -19150573.585 8 -14641712.47945  21608804.766    21608811.1704
  24632665.045    -2341928.326 7  -1797511.96244  24632664.981    24632678.7044
  20711281.324   -19119221.937 8 -14883527.57047  20711280.669    20711284.9204
  20443639.170   -18517793.657 9 -14407168.59447  20443638.913    20443644.0714
 01  5 25  1 13 30.0000000  0  7 25 31 11 21 03 14 29
  21967301.981   -19122698.658 8 -14861486.28146  21967301.534    21967309.1034
  23694692.277    -3274835.271 8  -2270337.67645  23694691.676    23694700.7254
  22326441.217   -18945713.496 8 -14748827.43746  22326440.666    22326446.7324
  21615310.976   -19116387.076 8 -14615073.67445  21615310.253    21615316.7364
  24649429.054    -2253833.488 7  -1728866.95644  24649428.636    24649442.8144
  20720063.927   -19073067.845 8 -14847563.33947  20720063.379    20720067.6924
  20448934.248   -18489967.473 9 -14385485.85447  20448934.057    20448939.2014
 01  5 25  1 14  0.0000000  0  7 25 31 11 21 03 14 29
  21952757.657   -19199127.534 8 -14921041.17046  21952757.353    21952764.9804
  23708562.564    -3201947.110 8  -2213541.83445  23708561.993    23708570.7254
  22311950.644   -19021861.940 8 -14808163.84146  22311950.149    22311956.1544
  21621857.308   -19081985.590 8 -14588267.36145  21621856.620    21621863.2264
  24666180.135    -2165807.856 7  -1660275.88144  24666179.589    24666194.4264
  20728908.380   -19026590.589 8 -14811347.29547  20728907.676    20728911.9764
  20454291.421   -18461815.444 9 -14363549.21147  20454291.219    20454296.3014
 01  5 25  1 14 30.0000000  0  7 25 31 11 21 03 14 29
  21938277.819   -19275218.150 8 -14980332.50146  21938277.616    21938285.3364
  23722474.434    -3128840.782 8  -2156576.01645  23722473.853    23722482.2694
  22297526.657   -19097660.518 8 -14867227.62446  22297526.164    22297532.2164
  21628444.757   -19047367.907 7 -14561292.57145  21628444.061    21628450.7804
  24682917.128    -2077853.359 7  -1591740.23045  24682916.563    24682932.1674
  20737813.908   -18979791.538 8 -14774880.50847  20737813.211    20737817.4714
  20459710.294   -18433338.604 9 -14341359.45947  20459710.137    20459715.2184
 01  5 25  1 15  0.0000000  0  7 25 31 11 21 03 14 29
  21923863.422   -19350966.992 8 -15039357.50546  21923862.876    21923870.7394
  23736427.437    -3055517.992 8  -2099441.51345  23736426.893    23736435.3354
  22283170.118   -19173105.104 8 -14926015.56847  22283169.653    22283175.8094
  21635072.902   -19012532.246 7 -14534147.92545  21635072.464    21635079.5864
  24699640.575    -1989970.988 7  -1523260.80945  24699640.225    24699656.4724
  20746780.433   -18932671.300 8 -14738163.44047  20746779.903    20746784.0954
  20465191.067   -18404537.068 9 -14318916.70147  20465190.873    20465195.9414
 01  5 25  1 15 30.0000000  0  7 25 31 11 21 03 14 29
  21909514.039   -19426371.978 8 -15098114.54146  21909513.729    21909521.5264
  23750421.527    -2981981.547 8  -2042140.56545  23750421.074    23750429.6224
  22268881.171   -19248193.812 8 -14984526.20447  22268880.715    22268886.9894
  21641743.418   -18977478.010 7 -14506832.96045  21641743.132    21641750.0264
  24716349.956    -1902163.978 7  -1454840.10445  24716349.696    24716366.3934
  20755807.957   -18885231.929 8 -14701197.70047  20755807.413    20755811.5654
  20470733.354   -18375412.659 9 -14296222.35848  20470733.146    20470738.1794
 01  5 25  1 16  0.0000000  0  7 25 31 11 21 03 14 29
  21895229.947   -19501435.398 8 -15156605.41746  21895229.668    21895237.2224
  23764454.678    -2908239.666 8  -1984679.49145  23764454.090    23764463.0014
  22254659.546   -19322928.780 8 -15042761.20347  22254659.070    22254665.3804
  21648455.003   -18942209.505 8 -14479351.06545  21648454.397    21648461.4214
  24733043.917    -1814439.630 7  -1386483.81845  24733043.679    24733060.0044
  20764894.914   -18837480.216 8 -14663988.55547  20764894.383    20764898.5284
  20476335.772   -18345971.810 9 -14273281.43548  20476335.578    20476340.6394
 01  5 25  1 16 30.0000000  0  7 25 31 11 21 03 14 29
  21881011.724   -19576152.019 8 -15214826.06846  21881011.511    21881018.9514
  23778526.646    -2834292.570 8  -1927058.54045  23778526.039    23778535.1884
  22240506.117   -19397304.876 8 -15100716.55246  22240505.719    22240512.0674
  21655207.667   -18906723.791 8 -14451699.93945  21655207.141    21655214.0484
  24749722.316    -1726797.630 7  -1318191.70145  24749721.834    24749737.6904
  20774041.438   -18789415.163 8 -14626535.27047  20774040.851    20774045.1774
  20481998.591   -18316213.512 9 -14250093.15547  20481998.358    20482003.4794
 01  5 25  1 17  0.0000000  0  6 25 31 11 21 14 29
  21866862.767   -19650505.324 8 -15272763.62146  21866862.586    21866869.8954
  23792639.618    -2760129.447 8  -1869269.26445  23792638.939    23792648.6914
  22226424.064   -19471305.949 8 -15158379.68646  22226423.617    22226430.0614
  21662004.620   -18871005.874 8 -14423867.85845  21662004.166    21662010.9374
  20783249.640   -18741025.131 8 -14588828.75747  20783249.126    20783253.6714
  20487724.095   -18286125.399 9 -14226647.87347  20487723.864    20487729.0544
 01  5 25  1 17 30.0000000  0  6 25 31 11 21 14 29
  21852779.462   -19724513.199 8 -15330431.98946  21852779.276    21852786.5744
  23806788.978    -2685773.615 8  -1811329.80945  23806788.363    23806798.8404
  22212409.861   -19544949.810 8 -15215764.47346  22212409.430    22212415.9874
  21668842.187   -18835075.45118 -14395870.18455  21668841.592    21668848.4164
  20792515.507   -18692332.170 8 -14550886.20147  20792515.021    20792519.7794
  20493508.300   -18255729.209 9 -14202962.54148  20493508.070    20493513.2984
 01  5 25  1 18  0.0000000  0  6 25 31 11 21 14 29
  21838763.344   -19798168.716 8 -15387825.80147  21838763.189    21838770.2744
  23820975.184    -2611223.262 8  -1753238.78145  23820974.642    23820985.5234
  22198464.887   -19618229.657 8 -15272865.62246  22198464.453    22198471.0614
  21675721.256                                    21675720.710    21675727.4794
  20801839.626   -18643333.642 8 -14512705.53447  20801839.116    20801843.8664
  20499351.819   -18225021.864 9 -14179034.74948  20499351.544    20499356.6964
 01  5 25  1 18 30.0000000  0  6 25 31 11 21 14 29
  21824814.838   -19871469.347 8 -15444943.06947  21824814.615    21824821.5364
  23835197.959    -2536481.580 7  -1694998.68645  23835197.426    23835208.5444
  22184589.823   -19691142.797 8 -15329681.01746  22184589.379    22184595.9344
  21682641.900   -18762560.14318 -14339364.86455  21682641.310    21682648.2644
  20811221.548   -18594031.720 8 -14474288.45247  20811220.952    20811225.6384
  20505254.117   -18194005.065 9 -14154865.79848  20505253.858    20505258.9704
 01  5 25  1 19  0.0000000  0  6 25 31 11 21 14 29
  21810933.762   -19944414.373 8 -15501783.24947  21810933.625    21810940.4684
  23849456.535    -2461553.166 8  -1636613.06245  23849456.054    23849467.3944
  22170784.692   -19763688.109 8 -15386209.81446  22170784.365    22170790.7374
  21689603.832                   -14310857.58555  21689603.200    21689609.9984
  20820660.470   -18544429.715 8 -14435637.54647  20820659.917    20820664.4214
  20511214.659   -18162682.105 9 -14130458.30248  20511214.392    20511219.5484
 01  5 25  1 19 30.0000000  0  6 25 31 11 21 14 29
  21797121.577   -20016998.047 8 -15558341.86047  21797121.367    21797128.2084
  23863750.747    -2386437.402 7  -1578081.48545  23863750.130    23863761.8734
  22157050.774   -19835859.804 8 -15442447.46646  22157050.414    22157056.7834
  21696607.941   -18689169.62818 -14282177.50055  21696607.203    21696613.6734
  20830156.872   -18494525.762 8 -14396751.33947  20830156.323    20830160.7514
  20517233.830   -18131050.785 9 -14105810.51748  20517233.625    20517238.8424
 01  5 25  1 20  0.0000000  0  6 25 31 11 21 14 29
  21783378.513   -20089217.969 8 -15614617.02347  21783378.231    21783385.1984
  23878079.578    -2311137.175 7  -1519406.12645  23878078.981    23878091.3894
  22143388.537   -19907655.596 8 -15498392.18846  22143388.141    22143394.3114
  21703654.141   -18652141.777 8 -14253324.65545  21703653.352    21703659.5194
  20839710.335   -18444321.807 8 -14357631.37947  20839709.779    20839714.1544
  20523311.404   -18099112.802 9 -14080923.78148  20523311.207    20523316.4414
 01  5 25  1 20 30.0000000  0  6 25 31 11 21 14 29
  21769704.899   -20161072.161 8 -15670607.21747  21769704.628    21769711.8094
  23892442.940    -2235656.095 7  -1460589.87445  23892442.456    23892455.2024
  22129798.240   -19979073.750 8 -15554042.64946  22129797.810    22129803.6304
  21710742.708   -18614891.411 8 -14224298.43445  21710741.986    21710748.0754
  20849320.346   -18393820.760 8 -14318279.93447  20849319.846    20849324.1424
  20529446.995   -18066870.532 9 -14055799.93648  20529446.780    20529451.8844
 01  5 25  1 21  0.0000000  0  6 25 31 11 21 14 29
  21756101.693   -20232557.117 8 -15726309.67647  21756101.285    21756108.5874
  23906841.087    -2159996.064 7  -1401634.14645  23906840.240    23906852.8784
  22116280.560   -20050110.573 8 -15609395.97846  22116280.127    22116285.6744
  21717873.946   -18577416.567 8 -14195097.28945  21717873.139    21717879.3474
  20858986.944   -18343022.995 8 -14278697.27147  20858986.414    20858990.6004
  20535640.405   -18034324.179 9 -14030439.13848  20535640.152    20535645.1644
 01  5 25  1 21 30.0000000  0  6 25 31 11 21 14 29
  21742568.696   -20303672.075 8 -15781723.86847  21742568.354    21742575.7774
  23921272.022    -2084161.887 7  -1342542.75045  23921271.069    23921283.3404
  22102835.563   -20120765.911 8 -15664452.05046  22102835.045    22102840.2664
  21725047.539   -18539718.919 8 -14165722.53045  21725046.793    21725053.2044
  20868709.240   -18291932.641 8 -14238886.61447  20868708.664    20868712.7634
  20541890.838   -18001477.428 9 -14004844.26647  20541890.665    20541895.6354
 01  5 25  1 22  0.0000000  0  6 25 31 11 21 14 29
  21729106.813   -20374413.477 8 -15836846.93047  21729106.433    21729114.0424
  23935735.436    -2008154.905 7  -1283316.69245  23935734.745    23935746.6284
  22089463.820   -20191035.350 8 -15719207.41146  22089463.363    22089468.4434
  21732263.734   -18501796.330 7 -14136172.48045  21732263.068    21732269.7944
  20878486.968   -18240549.672 8 -14198847.95447  20878486.415    20878490.6724
  20548198.713   -17968329.763 9 -13979014.91247  20548198.498    20548203.4094
 01  5 25  1 22 30.0000000  0  6 25 31 11 21 14 29
  21715716.621   -20444778.496 8 -15891676.72347  21715716.362    21715723.9984
  23950231.634    -1931978.075 7  -1223958.27545  23950230.980    23950242.3864
  22076166.082   -20260916.207 9 -15773659.97646  22076165.618    22076170.6204
  21739522.720   -18463647.957 7 -14106446.48145  21739522.173    21739529.1794
  20888319.908   -18188875.886 8 -14158582.69246  20888319.418    20888323.9284
  20554563.422   -17934882.846 9 -13952952.37247  20554563.232    20554568.1644
 01  5 25  1 23  0.0000000  0  6 25 31 11 21 14 29
  21702398.770   -20514765.168 8 -15946211.70947  21702398.373    21702405.8754
  23964759.670    -1855634.627 8  -1164470.03045  23964758.902    23964770.0344
  22062942.574   -20330406.733 8 -15827808.38546  22062942.073    22062947.0684
  21746825.422   -18425273.079 7 -14076544.01545  21746824.867    21746831.7614
  20898207.957   -18136913.705 8 -14118092.71646  20898207.502    20898212.0554
  20560984.799   -17901138.444 9 -13926658.02547  20560984.607    20560989.5874
 01  5 25  1 23 30.0000000  0  6 25 31 11 21 14 29
  21689152.889   -20584372.726 8 -16000451.27047  21689152.582    21689159.8764
  23979318.714    -1779128.906 8  -1104855.35845  23979317.862    23979328.7014
  22049793.310   -20399505.951 8 -15881651.88246  22049792.856    22049797.9384
  21754170.364   -18386672.453 7 -14046465.61645  21754169.952    21754177.1694
  20908150.463   -18084666.409 8 -14077380.57046  20908149.849    20908154.4214
  20567462.086   -17867099.920 9 -13900134.50047  20567461.873    20567466.9094
 01  5 25  1 24  0.0000000  0  6 25 31 11 21 14 29
  21675979.487   -20653599.104 8 -16054393.82747  21675979.292    21675986.2624
  23993907.951    -1702464.278 8  -1045116.85845  23993907.133    23993917.7294
  22036719.165   -20468211.881 8 -15935188.93046  22036718.647    22036723.6034
  21761559.325   -18347845.942 7 -14016211.20045  21761558.697    21761565.6744
  20918146.657   -18032136.122 8 -14036447.90146  20918146.069    20918150.6174
  20573994.869   -17832768.949 9 -13873383.09447  20573994.730    20573999.8084
 01  5 25  1 24 30.0000000  0  6 25 31 11 21 14 29
  21662878.776   -20722444.154 8 -16108039.21047  21662878.462    21662885.2004
  24008526.381    -1625646.046 8   -985258.65945  24008525.702    24008536.2914
  22023719.720   -20536524.434 8 -15988419.43246  22023719.147    22023724.2724
  21768990.802   -18308795.209 7 -13985782.10745  21768989.922    21768996.7224
  20928195.874   -17979327.105 8 -13995298.03946  20928195.282    20928199.8074
  20580582.788   -17798149.321 9 -13846406.76047  20580582.599    20580587.6814
 01  5 25  1 25  0.0000000  0  6 25 31 11 21 14 29
  21649851.537   -20790901.540 8 -16161382.52847  21649851.350    21649858.0214
  24023174.594    -1548672.866 8   -925279.73645  24023173.792    24023184.2654
  22010796.183   -20604436.883 8 -16041338.17246  22010795.674    22010800.8874
  21776465.471   -18269515.387 7 -13955174.49644  21776464.428    21776471.2134
  20938298.569   -17926236.883 8 -13953929.04946  20938298.068    20938302.4984
  20587226.018   -17763238.528 8 -13819203.54247  20587225.860    20587231.0154
 01  5 25  1 25 30.0000000  0  6 25 31 11 21 14 29
  21636898.576   -20858969.286 8 -16214422.25047  21636898.348    21636904.9934
  24037851.334    -1471547.95518   -865182.53255  24037850.661    24037860.7364
  21997949.184   -20671947.174 8 -16093943.55146  21997948.638    21997954.0774
  21783983.532   -18230006.016 7 -13924387.98944  21783982.484    21783989.6344
  20948454.517   -17872867.643 8 -13912342.63846  20948453.997    20948458.2914
  20593924.394   -17728038.286 8 -13791774.76647  20593924.223    20593929.4624
 01  5 25  1 26  0.0000000  0  6 25 31 11 21 14 29
  21624020.316   -20926644.195 8 -16267155.86047  21624020.093    21624026.8024
  24052556.644    -1394273.141 8   -804968.57845  24052555.892    24052565.2814
  21985179.409   -20739051.745 8 -16146232.79046  21985178.888    21985184.4444
  21791545.417   -18190265.328 7 -13893421.26344  21791544.289    21791551.1684
  20958663.398   -17819220.240 8 -13870539.48046  20958662.929    20958666.9934
  20600677.696   -17692549.145 8 -13764120.90247  20600677.558    20600682.8034
 01  5 25  1 26 30.0000000  0  6 25 31 11 21 14 29
  21611217.227   -20993924.459 8 -16319581.95447  21611217.066    21611223.7094
  24067289.560                     -744640.73355  24067288.813    24067297.7094
  21972487.095   -20805749.190 8 -16198204.76546  21972486.495    21972492.4044
  21799151.269   -18150293.640 6                  21799150.002    21799157.8294
  20968924.769   -17765297.246 8 -13828521.57046  20968924.266    20968928.2014
  20607485.565   -17656773.362 8 -13736243.66947  20607485.474    20607490.6554
 01  5 25  1 27  0.0000000  0  6 25 31 11 21 14 29
  21598489.713   -21060808.183 9 -16371699.02247  21598489.577    21598496.0404
  24082049.608    -1239288.83518   -684201.92945  24082048.754    24082057.1984
  21959872.625   -20872037.617 8 -16249858.06046  21959872.077    21959878.1354
  21806801.316   -18110090.650 6                  21806799.290    21806806.8874
  20979237.872   -17711101.166 8 -13786290.87446  20979237.336    20979241.3724
  20614347.670   -17620713.082 8 -13708144.75147  20614347.594    20614352.6354
 01  5 25  1 27 30.0000000  0  6 25 31 11 21 14 29
  21585838.464   -21127291.585 8 -16423504.17747  21585838.235    21585844.4854
  24096836.318    -1161584.278 8   -623653.14045  24096835.427    24096844.0234
  21947336.664   -20937913.258 8 -16301189.66946  21947336.166    21947342.3664
  21814495.096   -18069653.899 7                  21814493.431    21814503.3714
  20989602.776   -17656632.481 8 -13743847.76146  20989602.211    20989606.3874
  20621264.000   -17584368.222 8 -13679824.07947  20621263.846    20621268.8044
 01  5 25  1 28  0.0000000  0  6 25 31 11 21 14 29
  21573262.718   -21193377.106 8 -16474999.28447  21573262.382    21573268.7314
  24111648.509    -1083745.696 8   -562999.91045  24111647.693    24111656.6494
  21934878.995   -21003377.580 8 -16352200.79946  21934878.599    21934884.8624
  21822234.461   -18028987.316 7 -13767750.11054  21822232.470    21822242.7984
  21000018.432   -17601896.845 8 -13701196.62546  21000017.960    21000022.1914
  20628233.242   -17547744.644 8 -13651286.21647  20628233.061    20628238.0054
 01  5 25  1 28 30.0000000  0  6 25 31 11 21 14 29
  21560762.489   -21259065.449 8 -16526184.92547  21560762.205    21560768.5294
  24126484.938    -1005779.034 8   -502246.85645  24126484.143    24126493.6084
  21922499.651   -21068431.469 8 -16402892.09947  21922499.239    21922505.5084
  21830016.772   -17988093.398 7 -13735884.67944  21830015.612    21830024.2204
  21010484.098   -17546899.211 8 -13658341.35046  21010483.665    21010487.9284
  20635254.664   -17510846.897 8 -13622534.73047  20635254.431    20635259.4574
 01  5 25  1 29  0.0000000  0  6 25 31 11 21 14 29
  21548338.813   -21324351.922 9 -16577057.40047  21548338.576    21548344.8934
  24141345.403     -927684.930 8   -441394.51245  24141344.864    24141354.9834
  21910199.286   -21133070.509 8 -16453260.12547  21910198.905    21910205.1674
  21837843.344   -17946969.232 7 -13703839.87944  21837842.556    21837850.3964
  21020999.709   -17491639.193 8 -13615281.60346  21020999.275    21021003.6264
  20642328.409   -17473674.292 8 -13593569.06347  20642328.174    20642333.2584
 01  5 25  1 29 30.0000000  0  6 25 31 11 21 14 29
  21535992.162   -21389234.018 9 -16627614.76447  21535991.883    21535998.2364
  24156230.160     -849466.276 8   -380445.12345  24156229.520    24156240.1644
  21897978.399   -21197291.981 8 -16503302.79647  21897977.995    21897984.2354
  21845713.378   -17905613.740 7 -13671614.90544  21845712.568    21845720.9504
  21031565.093   -17436118.494 8 -13572018.74646  21031564.541    21031568.8894
  20649454.101   -17436228.136 8 -13564390.25447  20649453.861    20649459.0074
 01  5 25  1 30  0.0000000  0  6 25 31 11 21 14 29
  21523723.747   -21453704.495 9 -16677851.43247  21523723.516    21523729.7654
  24171138.419     -771120.789 7   -319396.91145  24171137.980    24171149.1424
  21885838.377   -21261088.567 8 -16553014.35947  21885837.950    21885844.1574
  21853627.834   -17864021.547 7 -13639205.54544  21853627.188    21853635.7274
  21042180.550   -17380333.867 8 -13528550.22746  21042180.022    21042184.3704
  20656632.510   -17398504.837 8 -13534995.48347  20656632.341    20656637.5444
 01  5 25  1 30 30.0000000  0  7 25 31 11 21 14 20 29
  21511532.580   -21517769.255 9 -16727771.92247  21511532.316    21511538.4974
  24186068.674     -692659.401 7   -258258.33245  24186068.105    24186080.0794
  21873778.182   -21324466.049 9 -16602399.36947  21873777.718    21873783.7294
  21861586.608   -17822199.836 7 -13606617.33144  21861585.697    21861593.3864
  21052844.408   -17324295.282 8 -13484883.80546  21052843.929    21052848.2284
  24701511.992    -5905237.020 7  -4568646.22945  24701511.330    24701521.8504
  20663862.007   -17360514.020 8 -13505392.24647  20663861.776    20663866.9764
 01  5 25  1 31  0.0000000  0  7 25 31 11 21 14 20 29
  21499419.732   -21581421.847 9 -16777371.26047  21499419.522    21499425.7884
  24201021.377     -614080.536 7   -197028.24745  24201020.824    24201033.3604
  21861798.891   -21387417.837 9 -16651452.66847  21861798.462    21861804.3214
  21869589.599   -17780143.664 7 -13573846.29144  21869589.138    21869596.1744
  21063557.096   -17267999.918 8 -13441017.30246  21063556.593    21063560.9314
  24685449.673    -5989641.940 7  -4634416.14544  24685449.309    24685459.8004
  20671142.958   -17322252.890 8 -13475578.38247  20671142.725    20671147.8734
 01  5 25  1 31 30.0000000  0  7 25 31 11 21 14 20 29
  21487386.950   -21644654.448 9 -16826643.31247  21487386.702    21487393.0964
  24215996.945     -535381.848 7   -135704.80845  24215996.475    24216009.6114
  21849902.156   -21449936.008 9 -16700168.08347  21849901.748    21849907.4334
  21877638.534   -17737846.388 7 -13540887.39845  21877638.156    21877645.5474
  21074319.177   -17211444.345 8 -13396948.03046  21074318.792    21074323.1354
  24669383.096    -6074070.364 7  -4700204.33144  24669382.733    24669393.5094
  20678476.091   -17283717.376 8 -13445550.71747  20678475.819    20678480.9724
 01  5 25  1 32  0.0000000  0  7 25 31 11 21 14 20 29
  21475433.187   -21707471.380 9 -16875591.49047  21475432.977    21475439.4344
  24230993.776     -456572.745 7    -74295.31145  24230993.122    24231006.7904
  21838087.049   -21512024.687 8 -16748548.83847  21838086.618    21838092.1714
  21885732.382   -17695313.881 7 -13507745.24045  21885731.913    21885739.6934
  21085129.421   -17154636.927 8 -13352682.51146  21085128.909    21085133.2154
  24653311.354    -6158528.120 7  -4766015.40244  24653311.108    24653321.0114
  20685859.717   -17244915.652 8 -13415315.60747  20685859.478    20685864.5694
 01  5 25  1 32 30.0000000  0  7 25 31 11 21 14 20 29
  21463559.375   -21769868.979 8 -16924212.88147  21463559.127    21463565.4434
  24246011.861     -377654.734 7    -12800.99845  24246011.274    24246024.7424
  21826354.195   -21573680.432 8 -16796592.24547  21826353.780    21826359.3654
  21893871.493   -17652544.293 7 -13474418.29345  21893870.759    21893878.5494
  21095987.377   -17097577.855 8 -13308220.88346  21095986.892    21095991.2864
  24637234.565    -6243013.273 7  -4831847.76044  24637234.338    24637242.5364
  20693294.076   -17205847.894 8 -13384873.19347  20693293.881    20693298.8264
 01  5 25  1 33  0.0000000  0  7 25 31 11 21 14 20 29
  21451765.315   -21831847.194 8 -16972507.49747  21451764.952    21451771.1504
  24261049.796     -298632.504 8     48774.58645  24261049.244    24261062.5964
  21814703.956   -21634902.694 8 -16844297.90947  21814703.555    21814709.1294
  21902055.359   -17609538.745 7 -13440907.54145  21902054.583    21902062.2664
  21106892.475   -17040270.870 8 -13263566.10446  21106891.963    21106896.3844
  24621152.156    -6327526.989 7  -4897702.37044  24621151.991    24621159.5704
  20700778.455   -17166517.103 8 -13354225.83247  20700778.329    20700783.2354
 01  5 25  1 33 30.0000000  0  7 25 31 11 21 14 20 29
  21440051.298   -21893403.626 8 -17020473.46646  21440051.022    21440057.2874
  24276107.398     -219508.356 8    110429.53545  24276106.809    24276119.4214
  21803136.673   -21695688.501 8 -16891663.43547  21803136.273    21803141.9274
  21910284.236   -17566296.376 7 -13407212.23445  21910283.497    21910290.8014
  21117844.481   -16982717.115 8 -13218719.03246  21117844.031    21117848.5024
  24605064.490    -6412068.366 7  -4963578.60844  24605064.438    24605071.7544
  20708312.826   -17126924.409 8 -13323374.38547  20708312.693    20708317.4884
 01  5 25  1 34  0.0000000  0  7 25 31 11 21 14 20 29
  21428418.279   -21954534.457 8 -17068107.82746  21428418.045    21428424.3854
  24291183.856     -140284.116 8    172162.49245  24291183.253    24291195.2904
  21791653.047   -21756034.611 8 -16938686.34747  21791652.713    21791658.4654
  21918558.316   -17522815.704 8 -13373331.23945  21918557.747    21918564.7124
  21128843.333   -16924917.099 8 -13173680.07847  21128842.986    21128847.5394
  24588972.159    -6496635.537 7  -5029474.93844  24588971.810    24588979.2584
  20715896.839   -17087070.100 8 -13292319.08947  20715896.663    20715901.5154
 01  5 25  1 34 30.0000000  0  7 25 31 11 21 14 20 29
  21416866.582   -22015238.687 8 -17115409.71446  21416866.203    21416872.6754
  24306278.335      -60963.575 8    233970.47645  24306277.893    24306289.6364
  21780253.512   -21815939.403 8 -16985365.40047  21780253.145    21780258.8554
  21926877.977   -17479096.378 7 -13339264.26045  21926877.439    21926884.3224
  21139888.745   -16866873.791 9 -13128451.54347  21139888.270    21139892.7264
  24572873.627    -6581228.785 7  -5095391.69444  24572873.245    24572881.7774
  20723530.012   -17046956.802 8 -13261061.98747  20723529.879    20723534.8794
 01  5 25  1 35  0.0000000  0  7 25 31 11 21 14 20 29
  21405396.782   -22075511.801 8 -17162375.70246  21405396.492    21405402.7794
  24321391.063       18453.068 7    295853.33845  24321390.581    24321402.1594
  21768938.743   -21875398.451 8 -17031697.10647  21768938.387    21768944.1034
  21935243.258   -17435135.370 7 -13305009.00245  21935242.728    21935249.9794
  21150980.409   -16808586.398 8 -13083032.80647  21150979.941    21150984.3034
  24556771.702    -6665845.269 7  -5161326.43545  24556771.411    24556780.1784
  20731212.756   -17006583.422 8 -13229602.20947  20731212.700    20731217.6284
 01  5 25  1 35 30.0000000  0  7 25 31 11 21 14 20 29
  21394008.961   -22135354.992 8 -17209006.67146  21394008.656    21394014.6744
  24336520.983       97959.717 7    357806.30245  24336520.457    24336531.6784
  21757708.547   -21934412.762 8 -17077682.24747  21757708.202    21757714.1184
  21943653.899   -17390935.113 7 -13270567.26945  21943653.385    21943660.9414
  21162117.657   -16750059.943 9 -13037427.79947  21162117.151    21162121.3024
  24540664.927    -6750487.522 7  -5227281.27545  24540664.492    24540673.8234
  20738944.290   -16965954.709 8 -13197943.47547  20738944.177    20738948.9584
 01  5 25  1 36  0.0000000  0  7 25 31 11 21 14 20 29
  21382703.294   -22194765.948 8 -17255300.83946  21382703.113    21382709.0914
  24351667.340      177553.500 7    419827.19145  24351666.663    24351677.8584
  21746563.618   -21992979.823 8 -17123318.91547  21746563.307    21746569.2584
  21952110.961   -17346495.084 7 -13235938.65445  21952110.281    21952117.3184
  21173300.189   -16691295.957 9 -12991637.70947  21173299.639    21173303.6624
  24524553.129    -6835154.821 7  -5293255.61345  24524552.696    24524562.2184
  20746724.103   -16925071.791 8 -13166086.65647  20746723.892    20746728.7214
 01  5 25  1 36 30.0000000  0  7 25 31 11 21 14 20 29
  21371480.379   -22253742.304 8 -17301256.35947  21371480.242    21371486.3124
  24366829.641      257231.807 7    481913.96845  24366829.005    24366840.4874
  21735504.465   -22051097.194 8 -17168605.13947  21735503.944    21735509.9794
  21960612.891   -17301814.527 7 -13201122.65545  21960612.116    21960619.7734
  21184527.623   -16632296.116 9 -12945663.81847  21184527.037    21184531.0784
  24508436.408    -6919846.265 7  -5359248.78645  24508436.023    24508445.8724
  20754551.795   -16883936.229 8 -13134032.97947  20754551.584    20754556.5304
 01  5 25  1 37  0.0000000  0  7 25 31 11 21 14 20 29
  21360341.006   -22312280.710 8 -17346870.65947  21360340.784    21360346.8424
  24382007.542      336993.479 7    544065.67045  24382007.087    24382018.6974
  21724531.233   -22108761.049 8 -17213538.00547  21724530.810    21724536.9344
  21969161.741   -17256890.604 7 -13166117.06245  21969161.085    21969168.6864
  21195799.896   -16573060.349 9 -12899506.09247  21195799.333    21195803.4974
  24492315.191    -7004559.961 6  -5425259.30445  24492314.966    24492325.0954
  20762427.579   -16842547.729 8 -13101782.19547  20762427.431    20762432.4864
 01  5 25  1 37 30.0000000  0  7 25 31 11 21 14 20 29
  21349284.890   -22370381.131 8 -17392143.62247  21349284.668    21349290.7244
  24397200.476      416833.410 7    606278.39545  24397199.862    24397211.7414
  21713644.359   -22165971.299 8 -17258117.39547  21713643.978    21713650.1774
  21977756.577   -17211725.008 7 -13130923.15745  21977756.106    21977763.3714
  21207116.303   -16513592.534 9 -12853167.55847  21207115.759    21207120.0864
  24476189.025    -7089297.044 7  -5491288.08944  24476188.930    24476199.9554
  20770350.991   -16800909.812 8 -13069337.09347  20770350.815    20770355.9134
 01  5 25  1 38  0.0000000  0  7 25 31 11 21 14 20 29
  21338312.481   -22428041.181 8 -17437073.44947  21338312.304    21338318.3744
  24412407.232      496748.940 7    668550.00245  24412406.625    24412419.5454
  21702844.370   -22222725.432 8 -17302341.37047  21702844.043    21702850.1984
  21986397.463   -17166317.186 7 -13095540.48445  21986397.093    21986404.1834
  21218476.524   -16453894.193 9 -12806649.38947  21218475.975    21218480.3224
  24460059.469    -7174056.660 7  -5557334.41845  24460059.255    24460070.7004
  20778321.715   -16759023.739 8 -13036698.60747  20778321.537    20778326.6184
 01  5 25  1 38 30.0000000  0  7 25 31 11 21 14 20 29
  21327424.279   -22485258.983 8 -17481658.68347  21327424.102    21327430.0534
  24427628.668      576737.186 7    730878.26945  24427627.974    24427641.0624
  21692131.702   -22279021.657 8 -17346208.53647  21692131.320    21692137.4444
  21995084.709   -17120666.789 7 -13059968.77145  21995084.191    21995091.2394
  21229880.143   -16393967.295 9 -12759953.12547  21229879.680    21229884.0064
  24443925.993    -7258838.645 7  -5623398.17845  24443925.542    24443937.1224
  20786339.469   -16716891.351 8 -13003868.17547  20786339.207    20786344.2564
 01  5 25  1 39  0.0000000  0  7 25 31 11 21 14 20 29
  21316620.080   -22542034.858 8 -17525899.55647  21316619.812    21316625.8374
  24442863.302      656793.213 7    793259.33645  24442862.237    24442875.7774
  21681506.021   -22334859.867 8 -17389718.80447  21681505.666    21681511.7924
  22003817.386   -17074775.052 7 -13024209.05845  22003816.834    22003824.4894
  21241326.594   -16333815.697 9 -12713081.79247  21241326.096    21241330.3904
  24427788.172    -7343644.262 7  -5689480.35945  24427787.794    24427798.9624
  20794403.279   -16674516.105 8 -12970848.52647  20794402.994    20794408.0984
 01  5 25  1 39 30.0000000  0  7 25 31 11 21 14 20 29
  21305900.309   -22598366.019 8 -17569793.90547  21305900.182    21305906.4114
  24458110.447      736915.007 7    855691.65245  24458109.432    24458122.7904
  21670967.967   -22390236.973 8 -17432869.76747  21670967.671    21670973.8114
  22012596.642   -17028640.240 7 -12988259.93145  22012596.266    22012603.7844
  21252815.625   -16273440.216 9 -12666035.98847  21252815.112    21252819.4344
  24411646.619    -7428471.918 7  -5755579.72845  24411646.118    24411656.6434
  20802513.146   -16631898.603 8 -12937640.09347  20802512.880    20802517.9804
 01  5 25  1 40  0.0000000  0  7 25 31 11 21 14 20 29
  21295265.600   -22654251.828 8 -17613341.22947  21295265.405    21295271.6444
  24473369.043      817098.243 7    918171.86345  24473368.090    24473381.6244
  21660517.912   -22445152.340 8 -17475660.94847  21660517.606    21660523.6094
  22021422.050   -16982263.527 7 -12952122.27345  22021421.517    22021429.0384
  21264346.669   -16212844.118 9 -12618818.28647  21264346.179    21264350.4894
  24395500.438    -7513322.666 8  -5821697.05945  24395499.956    24395510.2604
  20810668.623   -16589041.822 8 -12904245.22447  20810668.403    20810673.3824
 01  5 25  1 40 30.0000000  0  7 25 31 11 21 14 20 29
  21284716.677   -22709686.813 8 -17656537.26247  21284716.467    21284722.6054
  24488639.656      897343.941 7    980700.69445  24488638.637    24488652.4474
  21650156.833   -22499600.221 8 -17518087.84847  21650156.518    21650162.3504
  22030294.080   -16935640.560 7 -12915792.75245  22030293.626    22030301.1154
  21275920.225   -16152025.465 9 -12571427.14847  21275919.707    21275924.0054
  24379350.748    -7598192.179 8  -5887829.01545  24379350.196    24379360.1284
  20818870.073   -16545943.624 8 -12870662.20647  20818869.806    20818874.6454
 01  5 25  1 41  0.0000000  0  7 25 31 11 21 14 20 29
  21274253.454   -22764671.255 8 -17699382.20847  21274253.291    21274259.3444
  24503920.963      977646.804 8   1043274.11345  24503920.098    24503933.7704
  21639884.778   -22553580.622 8 -17560150.48647  21639884.420    21639890.0664
  22039212.503   -16888773.274 7 -12879272.87345  22039212.041    22039219.4804
  21287535.274   -16090988.062 9 -12523865.58447  21287534.746    21287539.1774
  24363197.029    -7683081.930 8  -5953976.75245  24363196.420    24363206.0394
  20827116.594   -16502607.609 8 -12836893.90547  20827116.387    20827121.3494
 01  5 25  1 41 30.0000000  0  7 25 31 11 21 14 20 29
  21263876.242   -22819203.132 8 -17741874.48146  21263876.055    21263882.2494
  24519213.034     1058004.451 7   1105890.20545  24519212.042    24519225.3954
  21629701.916   -22607091.317 8 -17601847.10447  21629701.599    21629707.1004
  22048177.647   -16841660.494 8 -12842561.66644  22048177.344    22048183.9564
  21299191.640   -16029733.344 9 -12476134.67147  21299191.137    21299195.6944
  24347039.429    -7767990.887 8  -6020139.46645  24347038.916    24347048.3284
  20835408.090   -16459034.866 8 -12802941.13947  20835407.957    20835413.0494
 01  5 25  1 42  0.0000000  0  7 25 31 11 21 14 20 29
  21253585.579   -22873279.956 8 -17784012.22946  21253585.350    21253591.6494
  24534514.512     1138414.356 7   1168546.99545  24534513.748    24534526.8814
  21619608.975   -22660129.836 8 -17643175.79747  21619608.656    21619614.2124
  22057189.792   -16794301.238 7 -12805658.42244  22057189.346    22057196.0354
  21310888.983   -15968262.759 9 -12428235.53747  21310888.519    21310893.2714
  24330878.248    -7852917.832 7  -6086316.18045  24330877.714    24330886.9784
  20843744.620   -16415226.616 8 -12768804.85447  20843744.376    20843749.5294
 01  5 25  1 42 30.0000000  0  7 25 31 11 21 14 20 29
  21243381.937   -22926900.143 8 -17825794.14547  21243381.713    21243388.0314
  24549825.559     1218873.784 8   1231242.38445  24549824.870    24549838.1164
  21609606.258   -22712693.993 8 -17684134.85947  21609605.911    21609611.6104
  22066248.854   -16746694.743 7 -12768562.53244  22066248.496    22066255.6434
  21322627.255   -15906578.042 9 -12380169.56947  21322626.723    21322631.5364
  24314713.566    -7937862.410 7  -6152506.63145  24314713.035    24314722.0934
  20852125.447   -16371184.343 8 -12734486.21847  20852125.284    20852130.4254
 01  5 25  1 43  0.0000000  0  7 25 31 11 21 14 20 29
  21233265.539   -22980062.356 8 -17867219.18347  21233265.326    21233271.5784
  24565145.432     1299379.136 7   1293973.55045  24565144.772    24565157.7054
  21599694.075   -22764782.187 8 -17724723.04747  21599693.823    21599699.5384
  22075355.320   -16698841.282 7 -12731274.26944  22075354.789    22075362.2144
  21334405.798   -15844681.251 8 -12331938.31747  21334405.289    21334410.0984
  24298545.497    -8022824.452 7  -6218710.65845  24298545.028    24298553.6894
  20860550.432   -16326910.111 8 -12699986.82446  20860550.341    20860555.3534
 01  5 25  1 43 30.0000000  0  7 25 31 11 21 14 20 29
  21223236.494   -23032765.267 8 -17908286.33247  21223236.359    21223242.4494
  24580473.590     1379926.979 8   1356737.89745  24580472.902    24580485.4834
  21589872.901   -22816393.280 8 -17764939.45447  21589872.523    21589878.2934
  22084508.541   -16650740.636 7 -12693793.30244  22084507.983    22084516.2044
  21346224.144   -15782575.021 8 -12283543.88947  21346223.617    21346228.4854
  24282374.381    -8107803.918 7  -6284928.27045  24282373.803    24282382.0504
  20869019.402   -16282405.949 8 -12665308.25646  20869019.249    20869024.0914
 01  5 25  1 44  0.0000000  0  7 25 31 11 21 14 20 29
  21213295.232   -23085007.878 8 -17948994.80147  21213294.922    21213300.8664
  24595809.031     1460513.833 7   1419532.56745  24595808.266    24595820.6464
  21580142.654   -22867525.986 8 -17804783.08747  21580142.238    21580148.0224
  22093709.025   -16602393.349 7 -12656120.19844  22093708.334    22093716.5854
  21358081.987   -15720261.567 8 -12234987.96847  21358081.428    21358086.3104
  24266200.098    -8192800.794 8  -6351159.37145  24266199.569    24266207.4014
  20877531.737   -16237673.905 8 -12630452.11746  20877531.525    20877536.2674
 01  5 25  1 44 30.0000000  0  7 25 31 11 21 14 20 29
  21203442.141   -23136785.636 8 -17989341.03847  21203441.953    21203447.7814
  24611152.007     1541139.738 7   1482357.66445  24611151.324    24611163.4564
  21570504.281   -22918175.562 8 -17844250.25447  21570503.891    21570509.6264
  22102956.659   -16553795.825 7 -12618252.11344  22102955.884    22102964.0584
  21369979.521   -15657739.888 8 -12186269.81646  21369978.902    21369983.7164
  24250023.166    -8277811.722 8  -6417401.54245  24250022.589    24250030.1664
  20886087.555   -16192713.024 8 -12595417.70546  20886087.352    20886092.0964
 01  5 25  1 45  0.0000000  0  7 25 31 11 21 14 20 29
  21193677.340   -23188099.974 8 -18029326.17647  21193677.222    21193683.0114
  24626500.980     1621798.355 7   1545208.23845  24626500.389    24626512.4604
  21560957.591   -22968343.290 8 -17883341.97547  21560957.250    21560962.9554
  22112251.500   -16504951.038 7 -12580191.29744  22112250.887    22112258.8884
  21381915.595   -15595015.035 8 -12137393.32046  21381914.998    21381919.7564
  24233843.189    -8362839.282 8  -6483656.61745  24233842.589    24233849.5314
  20894686.179   -16147527.825 8 -12560208.48146  20894685.940    20894690.6504
 01  5 25  1 45 30.0000000  0  7 25 31 11 21 14 20 29
  21184001.313   -23238948.433 8 -18068948.29347  21184001.101    21184006.8454
  24641855.897     1702487.724 7   1608082.78145  24641855.518    24641867.5964
  21551503.238   -23018026.337 8 -17922056.01347  21551502.895    21551508.6914
  22121593.816   -16455857.598 7 -12541936.65244  22121593.020    22121601.0204
  21393890.329   -15532087.828 8 -12088359.15646  21393889.688    21393894.4084
  24217659.951    -8447881.955 8  -6549923.44845  24217659.244    24217666.3064
  20903327.017   -16102119.191 8 -12524825.13046  20903326.858    20903331.7104
 01  5 25  1 46  0.0000000  0  7 25 31 11 21 14 20 29
  21174414.140   -23289328.946 8 -18108205.77447  21174413.978    21174419.6964
  24657216.027     1783205.581 7   1670979.56345  24657215.644    24657227.8794
  21542141.687   -23067222.258 8 -17960390.48347  21542141.346    21542147.0364
  22130983.520   -16406514.530 7 -12503487.52145  22130982.519    22130990.6454
  21405903.397   -15468959.467 8 -12039168.24046  21405902.752    21405907.4534
  24201473.976    -8532938.282 8  -6616200.95745  24201473.378    24201480.6234
  20912010.304   -16056487.738 8 -12489268.15746  20912010.166    20912015.1074
 01  5 25  1 46 30.0000000  0  7 25 31 11 21 14 20 29
  21164916.521   -23339238.367 8 -18147096.17247  21164916.403    21164922.1614
  24672581.540     1863950.233 7   1733897.12345  24672581.107    24672593.3424
  21532873.349   -23115927.935 8 -17998342.94647  21532872.972    21532878.5754
  22140420.873   -16356920.337 7 -12464842.75445  22140420.156    22140428.0604
  21417954.618   -15405630.389 8 -11989820.92646  21417954.019    21417958.6514
  24185286.007    -8618006.477 8  -6682487.70945  24185285.425    24185292.7574
  20920735.921   -16010633.854 8 -12453537.89646  20920735.806    20920740.8284
 01  5 25  1 47  0.0000000  0  7 25 31 11 21 14 20 29
  21155508.547   -23388677.459 8 -18185620.08947  21155508.396    21155514.1534
  24687951.015     1944717.046 7   1796831.98245  24687950.578    24687963.0604
  21523698.109   -23164143.470 8 -18035913.47747  21523697.755    21523703.4554
  22149905.894   -16307075.845 8 -12426002.95245  22149905.350    22149913.4394
  21430043.170   -15342104.511 8 -11940320.24746  21430042.620    21430047.2834
  24169095.523    -8703087.874 8  -6748784.79945  24169095.013    24169102.0204
  20929503.120   -15964561.218 8 -12417637.15846  20929503.046    20929508.1954
 01  5 25  1 47 30.0000000  0  7 25 31 11 21 14 20 29
  21146190.304   -23437645.014 8 -18223776.55847  21146190.147    21146195.9104
  24703324.137     2025502.662 7   1859781.51245  24703323.695    24703335.9704
  21514616.325   -23211867.589 8 -18073101.08347  21514616.062    21514621.8624
  22159438.722   -16256981.373 8 -12386968.34345  22159438.130    22159446.1614
  21442168.818   -15278383.799 8 -11890667.74746  21442168.266    21442172.9164
  24152902.765    -8788182.321 8  -6815092.03745  24152902.104    24152909.2084
  20938311.797   -15918271.754 8 -12381567.47746  20938311.738    20938316.8514
 01  5 25  1 48  0.0000000  0  7 25 31 11 21 14 20 29
  21136962.271   -23486138.234 8 -18261563.42447  21136962.116    21136967.9394
  24718700.720     2106305.398 7   1922744.40845  24718700.008    24718712.7844
  21505628.727   -23259097.152 8 -18109903.32247  21505628.483    21505634.2194
  22169019.521   -16206635.576 8 -12347737.90745  22169018.857    22169026.6294
  21454331.427   -15214468.880 8 -11840863.89546  21454330.876    21454335.5484
  24136707.610    -8873287.886 7  -6881407.97845  24136706.907    24136714.1144
  20947161.750   -15871765.484 8 -12345328.84046  20947161.642    20947166.6344
 01  5 25  1 48 30.0000000  0  7 25 31 11 21 14 20 29
  21127824.482   -23534157.205 8 -18298980.75347  21127824.382    21127830.1994
  24734079.880     2187120.670 7   1985717.04645  24734079.123    24734092.1944
  21496735.438   -23305832.264 8 -18146320.29147  21496735.110    21496740.7564
  22178648.069   -16156039.800 8 -12308312.65745  22178647.341    22178654.7744
  21466530.458   -15150363.178 8 -11790911.41346  21466529.860    21466534.5174
  24120509.379    -8958405.690 7  -6947733.46245  24120508.690    24120516.7574
  20956052.038   -15825046.174 8 -12308924.19846  20956051.958    20956056.9494
 01  5 25  1 49  0.0000000  0  7 25 31 11 21 14 20 29
  21118777.889   -23581697.343 8 -18336024.97347  21118777.774    21118783.5114
  24749461.087     2267948.717 8   2048699.62645  24749460.474    24749473.8204
  21487937.043   -23352067.968 8 -18182348.07347  21487936.721    21487942.4414
  22188324.582   -16105190.261 8 -12268689.66845  22188323.933    22188331.0044
  21478765.882   -15086065.519 8 -11740809.37446  21478765.360    21478770.0074
  24104310.109    -9043532.091 7  -7014065.62045  24104309.605    24104317.5734
  20964983.116   -15778111.910 8 -12272352.08446  20964983.124    20964988.1254
 01  5 25  1 49 30.0000000  0  7 25 31 11 21 14 20 29
  21109822.221   -23628759.815 8 -18372696.98547  21109822.075    21109827.7124
  24764844.151     2348783.970 7   2111687.83745  24764843.345    24764856.7424
  21479233.530   -23397805.238 8 -18217987.49147  21479233.216    21479238.8614
  22198048.841   -16054089.192 7 -12228870.70845  22198048.251    22198055.1664
  21491037.034   -15021580.193 8 -11690561.10246  21491036.535    21491041.3444
  24088108.586    -9128668.898 7  -7080405.88545  24088107.900    24088116.5024
  20973954.526   -15730966.947 8 -12235615.76146  20973954.474    20973959.4084
 01  5 25  1 50  0.0000000  0  7 25 31 11 21 14 20 29
  21100958.078   -23675340.783 8 -18408993.78247  21100957.951    21100963.5134
  24780227.526     2429625.398 8   2174680.91545  24780226.875    24780240.7814
  21470625.630   -23443040.081 9 -18253235.41347  21470625.355    21470630.8804
  22207821.079   -16002734.546 7 -12188854.16445  22207820.476    22207827.7264
  21503344.020   -14956906.763 8 -11640166.23046  21503343.525    21503348.4104
  24071906.147    -9213813.345 7  -7146752.12645  24071905.736    24071913.8024
  20982966.145   -15683610.730 8 -12198714.83346  20982966.134    20982971.0254
 01  5 25  1 50 30.0000000  0  7 25 31 11 21 14 20 29
  21092185.759   -23721439.533 8 -18444914.83247  21092185.544    21092191.0854
  24795611.990     2510469.998 7   2237676.38844  24795611.137    24795625.2454
  21462113.689   -23487771.229 9 -18288090.82347  21462113.468    21462118.9084
  22217641.645   -15951125.667 8 -12148639.51145  22217641.167    22217648.8484
  21515686.274   -14892047.442 8 -11589626.52446  21515685.821    21515690.7494
  24055702.258    -9298965.160 7  -7213104.05445  24055701.785    24055709.7654
  20992017.761   -15636045.149 8 -12161650.77746  20992017.618    20992022.5654
 01  5 25  1 51  0.0000000  0  7 25 31 11 21 14 20 29
  21083505.371   -23767054.453 8 -18480458.86947  21083505.183    21083510.8494
  24810996.269     2591314.774 8   2300672.01244  24810995.875    24811009.4694
  21453698.066   -23531997.091 9 -18322552.54147  21453697.754    21453702.8614
  22227511.017   -15899262.509 8 -12108226.73145  22227510.574    22227518.1054
  21528063.597   -14827003.956 8 -11538943.30846  21528063.192    21528068.1624
  24039496.818    -9384123.680 7  -7279461.19845  24039496.303    24039504.3694
  21001108.939   -15588271.499 8 -12124424.58246  21001108.774    21001113.7904
 01  5 25  1 51 30.0000000  0  7 25 31 11 21 14 20 29
  21074916.863   -23812187.038 8 -18515627.08047  21074916.659    21074922.3734
  24826380.220     2672154.414 7   2363663.63444  24826379.633    24826393.4684
  21445378.331   -23575718.527 9 -18356621.18347  21445377.974    21445382.8364
  22237428.611   -15847147.163 8 -12067617.41445  22237427.948    22237435.1914
  21540475.252   -14761780.753 8 -11488120.04946  21540474.760    21540479.7554
  24023289.746    -9469290.706 7  -7345825.01045  24023289.443    24023296.9464
  21010238.730   -15540294.303 8 -12087039.76346  21010238.555    21010243.6344
 01  5 25  1 52  0.0000000  0  7 25 31 11 21 14 20 29
  21066420.866   -23856833.539 8 -18550416.50347  21066420.641    21066426.4074
  24841762.547     2752988.102 7   2426650.63844  24841761.925    24841775.2034
  21437155.151   -23618931.742 9 -18390293.80847  21437154.797    21437159.5954
  22247394.336   -15794777.320 8 -12026809.76545  22247393.570    22247400.6814
  21552921.158   -14696377.395 8 -11437156.42546  21552920.634    21552925.6894
  24007081.863    -9554463.648 8  -7412193.42245  24007081.573    24007088.7144
  21019407.270   -15492112.903 8 -12049495.86346  21019407.097    21019412.3464
 01  5 25  1 52 30.0000000  0  7 25 31 11 21 14 20 29
  21058017.505   -23900993.122 9 -18584826.53747  21058017.328    21058022.9534
  24857143.125     2833812.512 7   2489630.40844  24857142.297    24857155.8844
  21429028.748   -23661635.843 9 -18423569.71747  21429028.462    21429033.1714
  22257408.338   -15742153.348 8 -11985804.12645  22257407.737    22257414.7754
  21565400.953   -14630796.044 8 -11386054.07246  21565400.424    21565405.3674
  23990872.984    -9639642.246 7  -7478566.24345  23990872.535    23990879.6934
  21028614.196   -15443729.339 8 -12011794.38846  21028614.123    21028619.4274
 01  5 25  1 53  0.0000000  0  7 25 31 11 21 14 20 29
  21049707.048   -23944665.264 9 -18618856.71147  21049706.791    21049712.3304
  24872520.923     2914623.787 7   2552599.87744  24872520.162    24872533.5334
  21420999.559   -23703829.876 9 -18456448.16847  21420999.251    21421003.8714
  22267470.891   -15689275.629 8 -11944600.75145  22267470.061    22267477.3184
  21577914.151   -14565039.019 8 -11334814.87446  21577913.601    21577918.4714
  23974662.970    -9724826.384 7  -7544943.40145  23974662.357    23974669.5074
  21037859.304   -15395145.853 8 -11973937.12846  21037859.303    21037864.5254
 01  5 25  1 53 30.0000000  0  7 25 31 11 21 14 20 29
  21041490.005   -23987845.774 9 -18652503.81047  21041489.810    21041495.3114
  24887896.244     2995422.099 7   2615559.29144  24887895.457    24887908.3694
  21413068.274   -23745509.237 9 -18488925.56947  21413067.932    21413072.5484
  22277581.784   -15636140.726 8 -11903196.94445  22277581.072    22277588.7554
  21590460.825   -14499105.561 8 -11283438.20346  21590460.316    21590464.9944
  23958452.242    -9810012.998 7  -7611322.46845  23958451.581    23958459.0174
  21047142.825   -15346360.936 8 -11935922.94346  21047142.816    21047147.9534
 01  5 25  1 54  0.0000000  0  7 25 31 11 21 14 20 29
  21033366.685   -24030534.345 9 -18685767.57647  21033366.463    21033371.9374
  24903268.743     3076203.837 7   2678505.71544  24903268.046    24903280.1094
  21405235.128   -23786673.359 9 -18521001.49047  21405234.764    21405239.3784
  22287741.854   -15582749.700 8 -11861593.62845  22287741.138    22287748.8124
  21603040.509   -14432997.967 8 -11231925.83446  21603040.027    21603044.5944
  23942240.849    -9895201.800 7  -7677703.25945  23942240.264    23942247.9384
  21056464.188   -15297377.200 8 -11897753.81246  21056464.153    21056469.1714
 01  5 25  1 54 30.0000000  0  7 25 31 11 21 14 20 29
  21025336.929   -24072730.148 9 -18718647.37547  21025336.822    21025342.3074
  24918637.353     3156965.709 7   2741436.69344  24918636.725    24918648.3734
  21397500.243   -23827321.001 9 -18552674.95947  21397499.750    21397504.4354
  22297950.699   -15529102.003 8 -11819790.27345  22297949.950    22297957.5344
  21615653.046   -14366718.373 8 -11180279.41746  21615652.605    21615656.9194
  23926029.454    -9980392.375 7  -7744085.46345  23926028.926    23926036.6114
  21065823.037   -15248196.455 8 -11859431.16846  21065822.934    21065827.8724
 01  5 25  1 55  0.0000000  0  6 25 11 21 14 20 29
  21017403.507   -24114421.202 9 -18751133.87047  21017403.274    21017408.7634
  21389865.612   -23867440.194 8 -18583936.64147  21389865.165    21389870.0474
  22308210.312   -15475187.025 8 -11777778.66145  22308209.708    22308217.1664
  21628300.116   -14300257.848 8 -11128492.03046  21628299.690    21628303.6584
  23909820.006   -10065573.482 7  -7810460.27945  23909819.168    23909827.0584
  21075221.026   -15198809.535 8 -11820947.86246  21075220.968    21075225.8154
 01  5 25  1 55 30.0000000  0  6 25 11 21 14 20 29
  21009564.630   -24155613.819 8 -18783231.96647  21009564.401    21009570.0324
  21382330.520   -23907036.933 8 -18614791.23347  21382330.062    21382335.0994
  22318519.571   -15421012.341 8 -11735564.66845  22318518.951    22318526.3794
  21640979.951   -14233625.954 8 -11076571.10246  21640979.471    21640983.1784
  23893610.743   -10150752.180 7  -7876833.20745  23893610.027    23893617.9354
  21084656.570   -15149225.850 8 -11782311.22746  21084656.556    21084661.2424
 01  5 25  1 56  0.0000000  0  6 25 11 21 14 20 29
  21001818.867   -24196317.812 8 -18814949.31947  21001818.693    21001824.3684
  21374892.952   -23946120.457 9 -18645245.89547  21374892.620    21374897.8724
  22328875.982   -15366587.786 8 -11693155.97145  22328875.472    22328883.1314
  21653690.012   -14166834.792 8 -11024526.06146  21653689.433    21653693.1954
  23877400.394   -10235938.353 7  -7943211.96845  23877399.800    23877407.2644
  21094127.309   -15099457.298 8 -11743530.54346  21094127.180    21094131.8684
 01  5 25  1 56 30.0000000  0  6 25 11 21 14 20 29
  20994167.135   -24236527.341 8 -18846281.37647  20994167.021    20994172.6134
  21367554.454   -23984684.854 9 -18675296.06347  21367554.140    21367559.3894
  22339280.914   -15311908.853 8 -11650549.09645  22339280.528    22339288.2474
  21666430.620   -14099881.850 8 -10972354.96146  21666430.142    21666433.9924
  23861189.910   -10321126.721 8  -8009592.44545  23861189.301    23861196.3024
  21103633.700   -15049501.110 8 -11704603.66046  21103633.558    21103638.2284
 01  5 25  1 57  0.0000000  0  6 25 11 21 14 20 29
  20986609.771   -24276241.280 8 -18877227.23047  20986609.732    20986614.9924
  21360314.876   -24022728.966 8 -18704940.81147  21360314.572    21360319.8994
  22349734.471   -15256976.143 8 -11607744.44745  22349734.070    22349741.5874
  21679201.835   -14032769.105 8 -10920059.32946  21679201.292    21679205.2214
  23844978.985   -10406316.845 8  -8075974.22645  23844978.355    23844985.3194
  21113175.377   -14999359.078 8 -11665531.95946  21113175.193    21113179.9944
 01  5 25  1 57 30.0000000  0  6 25 11 21 14 20 29
  20979147.007   -24315458.929 8 -18907786.39347  20979146.829    20979151.8554
  21353174.542   -24060251.597 9 -18734179.21447  21353174.265    21353179.5054
  22360236.602   -15201789.009 8 -11564741.55945  22360236.000    22360243.3584
  21692003.056   -13965498.206 8 -10867640.51645  21692002.569    21692006.6734
  23828767.520   -10491508.261 8  -8142357.03545  23828766.968    23828773.7064
  21122751.961   -14949032.840 8 -11626316.73247  21122751.893    21122756.8004
 01  5 25  1 58  0.0000000  0  6 25 11 21 14 20 29
  20971779.147   -24354175.602 8 -18937955.19447  20971779.120    20971784.2534
  21346134.416   -24097247.644 8 -18763007.28947  21346134.129    21346139.3634
  22370787.707   -15146343.977 8 -11521537.71745  22370787.106    22370794.2404
  21704834.678   -13898067.513 8 -10815097.13345  21704834.146    21704838.5284
  23812556.869   -10576696.711 8  -8208737.54845  23812556.230    23812563.0774
  21132364.166   -14898520.348 8 -11586956.35347  21132364.069    21132369.0354
 01  5 25  1 58 30.0000000  0  6 25 11 21 14 20 29
  20964507.111   -24392390.286 9 -18967732.81647  20964507.124    20964512.2674
  21339194.673   -24133715.905 8 -18791424.09047  21339194.284    21339199.7104
  22381387.844   -15090640.544 8 -11478132.50045  22381387.258    22381394.3054
  21717696.232   -13830478.655 8 -10762430.52845  21717695.853    21717700.4454
  23796346.821   -10661881.271 8  -8275115.03145  23796346.232    23796353.2304
  21142011.655   -14847823.044 8 -11547451.98547  21142011.550    21142016.4674
 01  5 25  1 59  0.0000000  0  6 25 11 21 14 20 29
  20957330.841   -24430101.983 9 -18997118.52547  20957330.792    20957335.9494
  21332355.526   -24169654.946 8 -18819428.52047  21332355.208    21332360.7424
  22392036.941   -15034678.432 8 -11434525.75245  22392036.445    22392043.6854
  21730587.744   -13762733.180 8                  21730587.306    21730591.9174
  23780137.719   -10747061.213 8  -8341488.91845  23780137.163    23780144.1634
  21151693.883   -14796942.719 8 -11507804.98847  21151693.797    21151698.7174
 01  5 25  1 59 30.0000000  0  6 25 11 21 14 20 29
  20950250.964   -24467306.798 9 -19026109.24547  20950250.943    20950256.1324
  21325617.854   -24205061.078 8 -18847017.68847  21325617.563    21325623.1864
  22402735.439   -14978455.717 8 -11390715.89245  22402735.099    22402742.5574
  21743509.235                                    21743508.752    21743512.8194
  23763930.095   -10832233.428 8  -8407856.76545  23763929.404    23763936.6284
  21161411.107   -14745878.207 8 -11468014.46347  21161411.050    21161415.9714
 01  5 25  2  0  0.0000000  0  6 25 11 21 14 20 29
  20943267.133   -24504006.869 8 -19054706.65947  20943267.098    20943272.3844
  21318981.519   -24239935.607 9 -18874192.64847  21318981.266    21318986.7534
  22413483.592   -14921974.315 7 -11346704.44545  22413483.099    22413490.6274
  21756459.794                                    21756459.187    21756462.7354
  23747723.380   -10917399.709 8  -8474219.95545  23747722.734    23747730.0834
  21171162.616   -14694633.571 9 -11428083.62547  21171162.559    21171167.5264
 01  5 25  2  0 30.0000000  0  6 25 11 21 14 20 29
  20936379.879   -24540199.923 8 -19082909.00747  20936379.766    20936385.0864
  21312446.883   -24274276.145 9 -18900951.47547  21312446.550    21312451.9394
  22424280.942   -14865232.886 8 -11302490.39846  22424280.644    22424288.2624
  21769439.351   -10550551.43555                  21769438.821    21769442.3434
  23731518.106   -11002558.369 8  -8540577.25345  23731517.473    23731524.7774
  21180948.405   -14643209.407 9 -11388012.85147  21180948.345    21180953.2694
 01  5 25  2  1  0.0000000  0  6 25 11 21 14 20 29
  20929589.037   -24575885.926 8 -19110716.23847  20929588.917    20929594.2604
  21306013.950   -24308082.155 9 -18927293.80947  21306013.544    21306018.9034
  22435128.130   -14808232.077 8 -11258074.24546  22435127.734    22435135.3654
  21782447.677   -10497285.39245                  21782447.115    21782450.8244
  23715314.324   -11087709.140 8  -8606928.36145  23715313.581    23715321.0094
  21190767.874   -14591607.681 9 -11347803.72547  21190767.807    21190772.6284
 01  5 25  2  1 30.0000000  0  6 25 11 21 14 20 29
  20922894.907   -24611063.582 8 -19138127.33947  20922894.811    20922900.1244
  21299682.857   -24341352.524 8 -18953218.75547  21299682.427    21299687.8414
  22446024.542   -14750971.489 8 -11213455.67446  22446024.160    22446031.7634
  21795484.057   -13421702.51918 -10443903.90545  21795483.472    21795487.3754
  23699111.929   -11172851.323 8  -8673272.81645  23699111.237    23699118.7144
  21200620.811   -14539830.170 9 -11307457.63547  21200620.696    21200625.4674
 01  5 25  2  2  0.0000000  0  7 25 11 21 14 20 01 29
  20916296.070   -24645740.889 8 -19165148.58447  20916295.970    20916301.2444
  21293452.138   -24374094.673 9 -18978732.10247  21293451.710    21293457.2544
  22456968.975   -14693459.917 8 -11168641.53046  22456968.474    22456975.8594
  21808546.503   -13353058.410 8 -10390415.03145  21808545.938    21808550.0864
  23682909.676   -11257992.852 8  -8739616.76145  23682909.183    23682916.7574
  24647707.285    -5426899.709 7  -3708740.69944  24647706.631    24647717.2424
  21210505.287   -14487887.228 9 -11266982.64847  21210505.173    21210509.8104
 01  5 25  2  2 30.0000000  0  7 25 11 21 14 20 01 29
  20909792.802   -24679915.234 8 -19191777.90847  20909792.712    20909798.1224
  21287322.388   -24406306.249 9 -19003832.02047  21287322.024    21287327.6154
  22467960.979   -14635695.981 8 -11123630.72546  22467960.515    22467967.9414
  21821635.129   -13284276.704 8 -10336818.93645  21821634.657    21821638.9794
  23666708.425   -11343131.714 8  -8805958.63245  23666707.869    23666715.2874
  24631871.564    -5510111.981 7  -3773581.03244  24631870.942    24631882.2234
  21220421.232   -14435778.556 9 -11226378.50347  21220421.118    21220425.7574
 01  5 25  2  3  0.0000000  0  7 25 11 21 14 20 01 29
  20903388.731   -24713568.929 8 -19218001.53847  20903388.595    20903394.0574
  21281297.320   -24437968.448 9 -19028503.85047  21281296.925    21281302.4424
  22479004.108   -14577662.502 8 -11078409.90746  22479003.670    22479011.4314
  21834752.882   -13215341.715 8 -10283103.37245  21834752.494    21834757.0094
  23650511.236   -11428249.549 8  -8872284.09845  23650510.562    23650518.0114
  24616066.912    -5593164.041 7  -3838296.52744  24616066.563    24616077.5524
  21230371.627   -14383488.589 9 -11185633.11047  21230371.510    21230376.2824
 01  5 25  2  3 30.0000000  0  7 25 11 21 14 20 01 29
  20897082.787   -24746706.860 8 -19243823.28047  20897082.661    20897088.0914
  21275375.900   -24469085.836 9 -19052751.16847  21275375.464    21275380.9224
  22490097.592   -14519365.020 8 -11032983.37946  22490097.150    22490105.3524
  21847898.441   -13146260.986 8 -10229274.25845  21847898.025    21847902.6404
  23634316.789   -11513351.678 7  -8938597.33845  23634316.194    23634323.7444
  24600291.729    -5676061.402 7  -3902891.51644  24600291.283    24600302.3314
  21240355.181   -14331024.642 9 -11144752.14347  21240355.078    21240359.8404
 01  5 25  2  4  0.0000000  0  7 25 11 21 14 20 01 29
  20890875.335   -24779327.347 8 -19269241.80347  20890875.168    20890880.5974
  21269558.440   -24499656.492 9 -19076572.44947  21269558.021    21269563.4764
  22501241.437   -14460802.925 8 -10987350.63046  22501241.124    22501249.3314
  21861071.540   -13077034.901 8 -10175331.89945  21861071.075    21861076.1154
  23618125.534   -11598436.005 8  -9004896.71545  23618125.023    23618132.8264
  24584545.737    -5758802.655 7  -3967364.90544  24584545.603    24584557.3484
  21250371.738   -14278387.338 9 -11103736.09347  21250371.624    21250376.4414
 01  5 25  2  4 30.0000000  0  7 25 11 21 14 20 01 29
  20884765.725   -24811433.402 8 -19294259.47747  20884765.548    20884770.9604
  21263844.407   -24529683.439 9 -19099970.06747  21263844.027    21263849.4034
  22512435.471   -14401979.224 8 -10941514.06146  22512435.055    22512443.1024
  21874271.358   -13007669.429 8 -10121280.92546  21874270.957    21874276.1044
  23601937.080   -11683505.876 7  -9071184.85945  23601936.470    23601944.5524
  24568829.619    -5841391.475 7  -4031719.48144  24568829.345    24568840.8254
  21260420.201   -14225582.044 9 -11062589.14547  21260420.127    21260425.0354
 01  5 25  2  5  0.0000000  0  7 25 11 21 14 20 01 29
  20878754.364   -24843023.073 8 -19318874.76947  20878754.209    20878759.6224
  21258234.257   -24559164.668 9 -19122942.44547  21258233.931    21258239.2094
  22523679.268   -14342893.648 8 -10895473.45046  22523678.891    22523686.6284
  21887497.697   -12938165.314 8 -10067121.90546  21887497.270    21887502.4554
  23585751.395   -11768559.636 7  -9137460.41245  23585750.787    23585759.1534
  24553142.300    -5923826.528 7  -4095954.24244  24553141.815    24553153.6864
  21270500.571   -14172609.293 9 -11021311.69347  21270500.479    21270505.6134
 01  5 25  2  5 30.0000000  0  7 25 11 21 14 20 01 29
  20872841.381   -24874096.338 8 -19343087.65947  20872841.133    20872846.5104
  21252728.216   -24588099.505 9 -19145489.07147  21252727.852    21252732.9954
  22534972.966   -14283546.167 8 -10849228.76246  22534972.503    22534979.9724
  21900750.089   -12868524.336 8 -10012856.25446  21900749.626    21900754.7764
  23569568.686   -11853596.578 7  -9203722.88645  23569568.239    23569576.8954
  24537484.067    -6006107.858 7  -4160069.20644  24537483.655    24537496.1074
  21280612.429   -14119470.766 8 -10979905.08947  21280612.369    21280617.7374
 01  5 25  2  6  0.0000000  0  7 25 11 21 14 20 01 29
  20867026.407   -24904653.136 8 -19366898.10947  20867026.268    20867031.6734
  21247326.305   -24616487.174 9 -19167609.34447  21247325.952    21247330.9764
  22546316.314   -14223936.671 8 -10802779.90246  22546315.910    22546323.3134
  21914028.140   -12798748.493 8  -9958485.52746  21914027.704    21914032.5764
  23553389.905   -11938616.402 7  -9269972.00745  23553389.278    23553397.9004
  24521855.420    -6088235.403 7  -4224064.38144  24521855.083    24521867.6444
  21290755.411   -14066168.409 8 -10938370.82547  21290755.407    21290760.9444
 01  5 25  2  6 30.0000000  0  7 25 11 21 14 20 01 29
  20861310.150   -24934692.799 8 -19390305.60147  20861309.896    20861315.2844
  21242028.533   -24644327.429 9 -19189303.04747  21242028.130    21242033.2104
  22557709.547   -14164065.421 8 -10756127.07046  22557709.123    22557716.5694
  21927331.344   -12728840.121 8  -9904011.47346  21927330.935    21927335.3974
  23537214.673   -12023618.711 8  -9336207.49045  23537213.936    23537222.2024
  24506255.929    -6170209.495 7  -4287939.98645  24506255.614    24506268.1074
  21300929.280   -14012704.363 8 -10896710.55447  21300929.264    21300934.8284
 01  5 25  2  7  0.0000000  0  7 25 11 21 14 20 01 29
  20855692.449   -24964213.233 8 -19413308.50947  20855692.315    20855697.7074
  21236835.278   -24671617.663 9 -19210568.15947  21236834.935    21236840.0994
  22569152.395   -14103931.829 8 -10709269.79746  22569152.021    22569159.8264
  21940659.848   -12658799.300 8  -9849434.20446  21940659.328    21940663.4424
  23521043.071   -12108601.482 8  -9402427.73145  23521042.431    23521050.5054
  24490685.698    -6252028.291 7  -4351694.61344  24490685.601    24490698.0574
  21311134.039   -13959078.495 8 -10854924.20447  21311134.019    21311139.4944
 01  5 25  2  7 30.0000000  0  7 25 11 21 14 20 01 29
  20850173.563   -24993214.934 9 -19435907.19547  20850173.485    20850178.8024
  21231746.732   -24698358.241 9 -19231404.98347  21231746.388    21231751.5164
  22580645.274   -14043537.323 8 -10662209.19846  22580644.874    22580652.6514
  21954012.863   -12588628.803 8  -9794755.99046  21954012.294    21954016.3234
  23504875.334   -12193564.857 8  -9468632.86645  23504874.654    23504882.5604
  24475145.215    -6333693.062 7  -4415329.19445  24475145.120    24475157.1714
  21321369.027   -13905293.545 8 -10813013.89347  21321369.043    21321374.4774
 01  5 25  2  8  0.0000000  0  7 25 11 21 14 20 01 29
  20844753.570   -25021697.301 8 -19458101.18147  20844753.467    20844758.7414
  21226762.999   -24724547.977 9 -19251812.57947  21226762.658    21226767.7314
  22592188.147   -13982881.149 8 -10614944.72546  22592187.594    22592195.3784
  21967390.338   -12518330.009 8  -9739977.76246  21967389.723    21967393.7704
  23488711.405   -12278507.740 8  -9534822.02745  23488710.684    23488718.4414
  24459634.529    -6415203.059 7  -4478843.20245  24459633.968    24459645.1994
  21331633.921   -13851350.743 8 -10770980.56447  21331634.007    21331639.4254
 01  5 25  2  8 30.0000000  0  7 25 11 21 14 20 01 29
  20839432.570   -25049658.913 8 -19479889.41547  20839432.471    20839437.6884
  21221884.358   -24750185.134 9 -19271789.58847  21221884.035    21221889.0214
  22603780.610   -13921962.043 8 -10567475.36046  22603780.158    22603788.0174
  21980791.892   -12447904.077 8  -9685100.43846  21980791.365    21980795.6144
  23472551.733   -12363428.598 8  -9600994.04645  23472551.021    23472558.6564
  24444153.215    -6496557.232 7  -4542235.84145  24444152.736    24444163.6614
  21341928.902   -13797250.790 8 -10728824.77547  21341928.930    21341934.2484
 01  5 25  2  9  0.0000000  0  7 25 11 21 14 20 01 29
  20834210.849   -25077098.983 8 -19501271.26047  20834210.667    20834215.8404
  21217111.101   -24775268.519 9 -19291335.08547  21217110.770    21217115.7994
  22615423.470   -13860779.941 8 -10519801.08746  22615422.958    22615430.7054
  21994217.668   -12377351.811 8  -9630124.66446  21994217.090    21994221.3914
  23456396.025   -12448326.215 8  -9667147.94645  23456395.406    23456403.1394
  24428701.896    -6577754.888 8  -4605506.46745  24428701.411    24428711.8164
  21352253.504   -13742994.743 8 -10686547.37246  21352253.493    21352258.7634
 01  5 25  2  9 30.0000000  0  7 25 11 21 14 20 01 29
  20829088.390   -25104017.133 8 -19522246.39647  20829088.212    20829093.4394
  21212443.350   -24799797.569 9 -19310448.63747  21212443.051    21212448.1274
  22627115.828   -13799335.697 7 -10471922.50046  22627115.246    22627123.1714
  22007666.967   -12306675.121 8  -9575051.96846  22007666.510    22007670.8864
  23440245.154   -12533199.844 8  -9733283.19245  23440244.536    23440252.2364
  24413280.393    -6658796.349 8  -4668655.34345  24413279.928    24413290.2644
  21362607.392   -13688584.276 8 -10644149.62946  21362607.345    21362612.5934
 01  5 25  2 10  0.0000000  0  7 25 11 21 14 20 01 29
  20824065.518   -25130412.337 8 -19542814.04447  20824065.409    20824070.6904
  21207881.481   -24823770.905 9 -19329129.15547  21207881.149    21207886.1984
  22638857.835   -13737628.690 7 -10423839.19745  22638857.395    22638865.6944
  22021139.734   -12235875.355 8  -9519883.35446  22021139.313    22021143.8184
  23424099.134   -12618048.377 8  -9799398.85745  23424098.474    23424105.9754
  24397888.596    -6739680.431 8  -4731681.63145  24397888.064    24397897.7824
  21372990.611   -13634020.639 8 -10601632.53046  21372990.536    21372995.7544
 01  5 25  2 10 30.0000000  0  7 25 11 21 14 20 01 29
  20819142.666   -25156282.749 8 -19562972.76847  20819142.498    20819147.7434
  21203425.670   -24847186.391 9 -19347374.98347  21203425.354    21203430.5254
  22650650.675   -13675657.465 7 -10375550.01145  22650650.140    22650658.5834
  22034635.931   -12164952.769 8  -9464619.02546  22034635.519    22034640.0194
  23407958.070   -12702869.568 8  -9865493.22845  23407957.448    23407964.8784
  24382526.968    -6820405.899 8  -4794584.31045  24382526.299    24382535.3524
  21383403.090   -13579303.689 8 -10558995.97346  21383402.938    21383408.1324
 01  5 25  2 11  0.0000000  0  7 25 11 21 14 20 01 29
  20814319.165   -25181630.418 8 -19582724.14147  20814318.987    20814324.2434
  21199075.682   -24870045.721 9 -19365187.45447  21199075.395    21199080.5544
  22662493.385   -13613424.398 7 -10327056.73645  22662492.803    22662501.1234
  22048154.709   -12093911.273 8  -9409262.03646  22048154.290    22048158.7674
  23391821.991   -12787664.943 8  -9931567.47945  23391821.499    23391828.6444
  24367195.216    -6900974.930 8  -4857365.09345  24367194.692    24367202.4004
  21393844.165   -13524437.301 8 -10516242.94646  21393843.880    21393848.9484
 01  5 25  2 11 30.0000000  0  7 25 11 21 14 20 01 29
  20809595.813   -25206452.034 8 -19602065.62447  20809595.686    20809600.9104
  21194832.208   -24892345.510 9 -19382563.90947  21194831.883    21194837.0844
  22674386.331   -13550926.959 7 -10278357.51245  22674385.820    22674394.1524
  22061696.213   -12022749.635 8  -9353811.44646  22061695.826    22061700.4114
  23375691.646   -12872430.658 8  -9997618.61445  23375691.007    23375697.7354
  24351893.457    -6981384.398 8  -4920021.53345  24351892.837    24351900.7274
  21404313.535   -13469420.322 8 -10473372.59146  21404313.213    21404318.4294
 01  5 25  2 12  0.0000000  0  7 25 11 21 14 20 01 29
  20804972.556   -25230747.620 8 -19620997.19847  20804972.368    20804977.5494
  21190695.125   -24914085.541 9 -19399504.20647  21190694.837    21190700.0894
  22686329.074   -13488165.641 7 -10229452.64345  22686328.901    22686337.2504
  22075260.182   -11951470.054 8  -9298268.92246  22075259.836    22075264.4864
  23359566.803   -12957166.468 8 -10063646.43945  23359566.010    23359572.2964
  24336621.505    -7061634.856 7  -4982554.10745  24336621.158    24336629.9834
  21414811.022   -13414254.623 8 -10430386.32246  21414810.855    21414816.1694
 01  5 25  2 12 30.0000000  0  7 25 11 21 14 20 01 29
  20800449.130   -25254517.469 8 -19639519.12447  20800449.029    20800454.1674
  21186664.715   -24935265.613 9 -19416008.15047  21186664.447    21186669.6814
  22698322.472   -13425140.959 7 -10180342.55745  22698322.059    22698330.5854
  22088846.266   -11880074.676 8  -9242636.19346  22088845.910    22088850.6014
  23343447.637   -13041872.338 8 -10129650.90945  23343446.818    23343452.7294
  24321379.481    -7141726.755 7  -5044963.11145  24321379.330    24321389.1134
  21425336.459   -13358942.432 8 -10387285.90846  21425336.339    21425341.7354
 01  5 25  2 13  0.0000000  0  7 25 11 21 14 20 01 29
  20796026.304   -25277759.668 8 -19657629.89847  20796026.111    20796031.1984
  21182741.457   -24955883.392 9 -19432073.95147  21182741.094    21182746.3114
  22710365.834   -13361851.669 7 -10131026.30245  22710365.631    22710374.1994
  22102454.378   -11808563.526 8  -9186913.25946  22102453.950    22102458.8244
  23327334.533   -13126545.463 7 -10195629.87245  23327333.813    23327339.8914
  24306168.112    -7221658.077 7  -5107247.00845  24306168.012    24306178.9984
  21435889.800   -13303483.236 8 -10344070.97646  21435889.772    21435895.3784
 01  5 25  2 13 30.0000000  0  7 25 11 21 14 20 01 29
  20791703.579   -25300474.854 8 -19675330.00247  20791703.523    20791708.5204
  21178924.812   -24975939.481 9 -19447702.06747  21178924.486    21178929.8474
  22722459.763   -13298299.092 7 -10081504.88345  22722459.289    22722467.8484
  22116084.044   -11736939.076 8  -9131102.02146  22116083.644    22116088.6604
  23311227.710   -13211185.922 8 -10261583.38745  23311227.103    23311233.3324
  24290987.603    -7301429.759 7  -5169406.53345  24290987.670    24290999.3564
  21446470.803   -13247879.588 8 -10300743.45246  21446470.767    21446476.4364
 01  5 25  2 14  0.0000000  0  7 25 11 21 14 20 01 29
  20787480.912   -25322664.442 8 -19692620.55347  20787480.937    20787485.9654
  21175214.834   -24995434.743 9 -19462893.18247  21175214.514    21175219.9814
  22734603.442   -13234485.131 8 -10031779.77045  22734602.911    22734611.3614
  22129734.709   -11665204.770 8  -9075205.19046  22129734.284    22129739.3594
  23295126.936   -13295794.811 8 -10327512.33645  23295126.450    23295132.8294
  24275837.427    -7381043.410 7  -5231442.91645  24275837.398    24275849.6344
  21457078.450   -13192134.922 8 -10257306.07046  21457078.514    21457084.2564
 01  5 25  2 14 30.0000000  0  7 25 11 21 14 20 01 29
  20783358.654   -25344327.133 8 -19709500.54346  20783358.660    20783363.6594
  21171611.985   -25014367.508 9 -19477645.98347  21171611.698    21171617.1474
  22746797.063   -13170408.440 8  -9981849.98946  22746796.509    22746804.9464
  22143406.207   -11593360.866 8  -9019222.97046  22143405.749    22143410.8534
  23279032.979   -13380369.774 8 -10393414.83645  23279032.501    23279038.9084
  24260718.008    -7460497.621 7  -5293355.06045  24260717.744    24260730.2604
  21467713.469   -13136249.346 8 -10213758.89146  21467713.291    21467718.9044
 01  5 25  2 15  0.0000000  0  7 25 11 21 14 20 01 29
  20779336.859   -25365461.959 8 -19725969.21046  20779336.835    20779341.7674
  21168116.333   -25032737.152 9 -19491960.00347  21168116.068    21168121.5054
  22759040.468   -13106069.259 8  -9931715.63846  22759039.905    22759048.3684
  22157098.334   -11521408.620 9  -8963156.33746  22157097.940    22157102.9304
  23262945.983   -13464909.714 8 -10459290.06245  23262945.158    23262951.5784
  24245629.113    -7539792.210 6  -5355142.86145  24245628.651    24245641.3704
  21478374.834   -13080223.763 8 -10170102.58846  21478374.641    21478380.1404
 01  5 25  2 15 30.0000000  0  7 25 11 21 14 20 01 29
  20775415.555   -25386068.124 8 -19742025.93346  20775415.570    20775420.5894
  21164728.161   -25050541.918 9 -19505833.84047  21164727.874    21164733.4254
  22771334.153   -13041466.566 8  -9881375.92346  22771333.614    22771342.0224
  22170810.985   -11449348.769 8  -8907005.83446  22170810.567    22170815.4564
  23246865.561   -13549412.817 8 -10525136.55245  23246864.700    23246871.3354
  24230570.274    -7618925.776 7  -5416805.16545  24230569.915    24230582.6354
  21489062.529   -13024058.923 8 -10126337.81646  21489062.502    21489067.9844
 01  5 25  2 16  0.0000000  0  7 25 11 21 14 20 01 29
  20771594.829   -25406145.901 8 -19757670.92246  20771594.795    20771599.9664
  21161447.522   -25067781.934 9 -19519267.60047  21161447.185    21161452.7924
  22783677.685   -12976600.705 8  -9830831.20646  22783677.118    22783685.4594
  22184543.656   -11377183.249 8  -8850772.99346  22184543.221    22184548.1494
  23230792.020   -13633878.677 8 -10590954.02746  23230791.278    23230798.0634
  24215542.476    -7697898.887 7  -5478342.46645  24215542.079    24215554.5744
  21499776.495   -12967756.634 8 -10082465.90946  21499776.485    21499782.0794
 01  5 25  2 16 30.0000000  0  7 25 11 21 14 20 01 29
  20767875.436   -25425692.198 8 -19772901.78046  20767875.279    20767880.4104
  21158274.702   -25084454.237 9 -19532259.01147  21158274.372    21158280.0874
  22796071.342   -12911469.999 8  -9780080.10145  22796070.819    22796079.4984
  22198296.611   -11304911.172 8  -8794457.14446  22198296.129    22198301.1584
  23214726.368   -13718303.844 8 -10656739.81646  23214725.739    23214732.4334
  24200545.609    -7776708.957 7  -5539752.71445  24200544.991    24200557.4594
  21510516.735   -12911315.995 8 -10038486.21346  21510516.779    21510522.4244
 01  5 25  2 17  0.0000000  0  7 25 11 21 14 20 01 29
  20764256.595   -25444709.185 8 -19787720.17946  20764256.544    20764261.6414
  21155209.627   -25100560.484 8 -19544809.32547  21155209.313    21155215.0974
  22808515.325   -12846076.539 8  -9729124.22545  22808514.873    22808523.4084
  22212068.931   -11232536.093 8  -8738061.04146  22212068.585    22212073.7024
  23198668.385   -13802689.389 8 -10722494.70346  23198667.846    23198674.4594
  24185578.678    -7855357.949 7  -5601037.45645  24185578.154    24185591.0224
  21521282.915   -12854740.446 8  -9994401.39146  21521282.856    21521288.4174
 01  5 25  2 17 30.0000000  0  7 25 11 21 14 20 01 29
  20760739.312   -25463193.499 8 -19802123.50646  20760739.199    20760744.1674
  21152253.292   -25116096.456 9 -19556915.28247  21152252.950    21152258.7314
  22821010.021   -12780416.595 8  -9677960.72445  22821009.674    22821018.0934
  22225861.470   -11160055.885 8  -8681582.99646  22225861.077    22225866.2204
  23182618.870   -13887030.727 8 -10788215.14246  23182618.267    23182624.7914
  24170643.104    -7933842.110 7  -5662193.75845  24170642.772    24170656.2024
  21532075.070   -12798027.577 8  -9950209.54346  21532074.984    21532080.5554
 01  5 25  2 18  0.0000000  0  7 25 11 21 14 20 01 29
  20757322.171   -25481149.792 8 -19816115.40546  20757322.086    20757327.0754
  21149404.390   -25131066.913 9 -19568580.57447  21149404.093    21149409.9434
  22833554.407   -12714495.512 8  -9626593.72945  22833554.030    22833562.4644
  22239672.806   -11087477.247 8  -8625028.26146  22239672.405    22239677.5304
  23166576.774   -13971331.961 8 -10853904.35946  23166576.193    23166582.7984
  24155738.511    -8012166.752 7  -5723225.74545  24155738.040    24155751.6104
  21542892.097   -12741184.145 8  -9905915.98346  21542891.986    21542897.4694
 01  5 25  2 18 30.0000000  0  7 25 11 21 14 20 01 29
  20754006.191   -25498575.166 8 -19829693.56246  20754006.111    20754011.0434
  21146663.783   -25145468.568 8 -19579802.64947  21146663.470    21146669.4364
  22846149.041   -12648310.816 8  -9575021.32945  22846148.611    22846157.1174
  22253503.124   -11014798.630 8  -8568395.61547  22253502.760    22253507.8454
  23150543.103   -14055589.380 8 -10919559.43946  23150542.473    23150549.2764
  24140864.958    -8090328.525 7  -5784130.84545  24140864.208    24140877.8054
  21553734.369   -12684208.354 8  -9861519.29746  21553734.260    21553739.7094
 01  5 25  2 19  0.0000000  0  7 25 11 21 14 20 01 29
  20750791.364   -25515468.909 8 -19842857.49146  20750791.366    20750796.2644
  21144031.485   -25159300.926 9 -19590581.11347  21144031.211    21144037.0984
  22858793.182   -12581862.657 7  -9523243.62145  22858793.037    22858801.5474
  22267352.266   -10942021.503 8  -8511686.20647  22267351.833    22267356.8874
  23134517.683   -14139801.693 8 -10985179.33246  23134517.038    23134524.0974
  24126022.522    -8168327.519 7  -5844909.09245  24126021.453    24126034.8594
  21564601.497   -12627101.596 8  -9817020.53346  21564601.406    21564606.8254
 01  5 25  2 19 30.0000000  0  7 25 11 21 14 20 01 29
  20747677.778   -25531830.473 8 -19855606.70746  20747677.742    20747682.7774
  21141507.941   -25172563.058 9 -19600915.24447  21141507.599    21141513.2824
  22871488.224   -12515150.635 8  -9471260.31845  22871488.147    22871496.2294
  22281219.849   -10869146.794 8  -8454900.75547  22281219.473    22281224.5844
  23118501.034   -14223967.448 8 -11050762.98145  23118500.457    23118507.6664
  24111211.138    -8246162.782 7  -5905559.81045  24111209.818    24111223.0594
  21575493.252   -12569864.690 8  -9772420.37946  21575493.246    21575498.6234
 01  5 25  2 20  0.0000000  0  7 25 11 21 14 20 01 29
  20744664.809   -25547661.530 8 -19867942.59746  20744664.978    20744670.3954
  21139092.573   -25185256.017 9 -19610805.88347  21139092.221    21139097.8024
  22884233.825   -12448176.599 8  -9419072.85645  22884233.594    22884241.0424
  22295105.448   -10796177.593 8  -8398041.69247  22295105.070    22295110.2714
  23102492.876   -14308087.203 8 -11116310.76645  23102492.508    23102499.9844
  24096429.754    -8323836.020 7  -5966084.20445  24096428.292    24096441.9904
  21586409.378   -12512500.439 8  -9727721.01446  21586409.270    21586414.7334
 01  5 25  2 20 30.0000000  0  7 25 11 21 14 20 01 29
  20741753.857   -25562959.234 8 -19879862.87046  20741753.943    20741759.3774
  21136786.109   -25197376.603 9 -19620250.51247  21136785.817    21136791.2824
  22897029.033   -12380937.469 7  -9366678.89045  22897028.866    22897036.9464
  22309009.443   -10723112.028 8  -8341107.54247  22309009.015    22309014.3044
  23086494.667   -14392156.609 8 -11181819.32345  23086494.373    23086501.9074
  24081678.580    -8401343.940 6  -6026479.82045  24081677.654    24081692.4764
  21597349.771   -12455007.155 8  -9682921.08446  21597349.756    21597355.3964
 01  5 25  2 21  0.0000000  0  7 25 11 21 14 20 01 29
  20738944.559   -25577721.883 8 -19891366.22346  20738944.578    20738949.9494
  21134588.975   -25208923.121 9 -19629247.81047  21134588.649    21134593.9394
  22909874.792   -12313432.697 7  -9314077.79544  22909874.504    22909882.1704
  22322931.622   -10649950.281 8  -8284098.43847  22322931.206    22322936.5834
  23070506.718   -14476173.500 8 -11247286.96545  23070506.321    23070513.9004
  24066960.087    -8478684.989 7  -6086745.45745  24066959.659    24066974.7194
  21608314.907   -12397384.733 8  -9638020.54246  21608314.875    21608320.5524
 01  5 25  2 21 30.0000000  0  7 25 11 21 14 20 01 29
  20736235.721   -25591955.808 8 -19902457.53946  20736235.882    20736241.0764
  21132499.968   -25219901.405 9 -19637802.32647  21132499.645    21132504.7714
  22922769.912   -12245668.386 7                  22922769.546    22922776.8634
  22336870.604   -10576699.852 8  -8227020.23647  22336870.237    22336875.6474
  23054528.030   -14560142.807 8 -11312717.51646  23054527.592    23054534.9224
  24052273.941    -8555865.489 7  -6146885.94645  24052273.446    24052287.1884
  21619303.224   -12339640.685 8  -9593025.21646  21619303.227    21619308.8844
 01  5 25  2 22  0.0000000  0  7 25 11 21 14 20 01 29
  20733628.507   -25605657.584 8 -19913134.23346  20733628.638    20733633.5024
  21130519.713   -25230307.997 9 -19645911.38947  21130519.416    21130524.4384
  22935714.977   -12177641.592 7  -9208266.69054  22935714.358    22935721.7194
  22350826.771   -10503359.148 8  -8169871.69046  22350826.465    22350831.9184
  23038559.079   -14644060.386 8 -11378107.76146  23038558.657    23038565.7394
  24037618.621    -8632881.850 7  -6206898.48545  24037617.983    24037631.0084
  21630315.253   -12281773.103 8  -9547933.62645  21630315.245    21630320.6584
 01  5 25  2 22 30.0000000  0  7 25 11 21 14 20 01 29
  20731122.114   -25618827.118 8 -19923396.13945  20731122.343    20731127.4404
  21128648.350   -25240142.196 9 -19653574.40747  21128648.041    21128653.1094
  22948710.317   -12109351.830 7  -9155053.91844  22948710.075    22948717.3204
  22364800.310   -10429928.899 8  -8112653.35746  22364799.921    22364805.2594
  23022600.540   -14727924.592 8 -11443456.39746  23022600.035    23022606.8824
  24022994.324    -8709733.864 7  -6266783.01345  24022993.827    24023006.3364
  21641350.527   -12223782.828 8  -9502746.40945  21641350.464    21641355.5934
 01  5 25  2 23  0.0000000  0  7 25 11 21 14 20 01 29
  20728716.862   -25631465.205 8 -19933244.00945  20728716.959    20728722.6764
  21126885.794   -25249404.924 9 -19660792.11747  21126885.451    21126890.4974
  22961755.162   -12040800.740 7  -9101637.53244  22961754.889    22961762.7604
  22378790.240   -10356411.674 8  -8055367.25946  22378789.926    22378795.2414
  23006651.870   -14811735.654 8 -11508763.62946  23006651.466    23006657.9684
  24008401.025    -8786422.644 8  -6326540.27445  24008400.491    24008412.4874
  21652408.681   -12165672.241 8                  21652408.711    21652413.6684
 01  5 25  2 23 30.0000000  0  7 25 11 21 14 20 01 29
  20726413.097   -25643570.208 8 -19942676.47045  20726413.282    20726419.3264
  21125232.227   -25258094.038 9 -19667562.88047  21125231.966    21125236.9714
  22974849.873   -11971986.848 7  -9048016.36244  22974849.871    22974857.6194
  22392796.670   -10282806.950 8  -7998012.95146  22392796.460    22392801.7754
  22990714.050   -14895490.302 8 -11574026.91146  22990713.640    22990719.8284
  23993838.934    -8862945.927 7  -6386168.60045  23993838.491    23993849.6284
  21663489.753   -12107440.740 8  -9412090.27155  21663489.748    21663494.8814
 01  5 25  2 24  0.0000000  0  7 25 11 21 14 20 01 29
  20724211.188   -25655141.852 8 -19951693.34845  20724211.327    20724217.4684
  21123687.983   -25266208.943 9 -19673886.17947  21123687.716    21123692.7654
  22987995.131   -11902909.558 7  -8994190.00144  22987995.173    22988002.9154
  22406819.894   -10209115.729 8  -7940591.25146  22406819.542    22406824.8004
  22974787.335   -14979187.255 8 -11639245.19146  22974786.796    22974792.7144
  23979308.464    -8939303.461 8  -6445667.79445  23979307.990    23979318.3614
  21674593.773                                    21674593.672    21674598.7834
 01  5 25  2 24 30.0000000  0  7 25 11 21 14 20 01 29
  20722110.808   -25666180.227 8 -19960294.63945  20722110.751    20722116.7964
  21122253.048   -25273749.630 9 -19679762.06947  21122252.809    21122257.9134
  23001190.359   -11833569.271 7  -8940158.66445  23001190.437    23001197.8934
  22420859.154   -10135339.377 8  -7883103.22646  22420858.732    22420864.0384
  22958871.476   -15062825.322 8 -11704417.62946  22958870.924    22958876.8114
  23964809.805    -9015495.332 8  -6505037.86345  23964809.268    23964818.8374
  21685720.189   -11990618.91418  -9321060.37155  21685720.119    21685725.1594
 01  5 25  2 25  0.0000000  0  7 25 11 21 14 20 01 29
  20720111.832                   -19968481.00945  20720111.755    20720117.4504
  21120927.347   -25280716.710 9 -19685190.98247  21120927.046    21120932.0504
  23014435.283   -11763967.415 7  -8885923.53845  23014435.208    23014443.2144
  22434914.231   -10061480.041 8  -7825550.55346  22434913.812    22434919.1614
  22942966.695   -15146404.149 8 -11769543.91346  22942966.175    22942972.2734
  23950342.431    -9091522.058 8  -6564279.27445  23950341.823    23950350.6974
  21696868.878   -11932031.95618  -9275408.18355  21696868.870    21696873.4654
 01  5 25  2 25 30.0000000  0  7 25 11 21 14 20 01 29
  20718214.377                                    20718214.358    20718219.3804
  21119711.152   -25287107.975 9 -19690171.21847  21119710.848    21119715.7784
  23027729.738   -11694102.091 7  -8831483.07845  23027729.565    23027738.1444
  22448985.120    -9987537.031 8  -7767932.65746  22448984.701    22448990.1514
  22927073.890   -15229920.432 8 -11834621.46146  22927073.378    22927079.9964
  23935906.908    -9167381.431 8  -6623390.28145  23935906.386    23935914.9844
  21708039.978                                    21708039.866    21708043.9644
 01  5 25  2 26  0.0000000  0  7 25 11 21 14 20 01 29
  20716417.961                                    20716418.032    20716422.9794
  21118604.035   -25292925.944 9 -19694704.72647  21118603.725    21118608.6824
  23041074.191   -11623976.438 7  -8776839.73944  23041073.690    23041082.6534
  22463071.002    -9913514.208 8  -7710252.56946  22463070.660    22463076.1254
  22911192.425   -15313375.814 8 -11899651.58246  22911191.953    22911199.0924
  23921502.687    -9243076.289 8  -6682373.10145  23921502.239    23921510.8054
  21719232.764   -11814509.06118  -9183831.93655  21719232.767    21719236.3474
 01  5 25  2 26 30.0000000  0  7 25 11 21 14 20 01 29
  20714723.303                                    20714723.455    20714728.8404
  21117606.695   -25298167.209 9 -19698788.85047  21117606.345    21117611.2174
  23054468.481   -11553587.271 7  -8721991.13845  23054468.034    23054477.3964
  22477172.580    -9839409.614 8  -7652508.78046  22477172.297    22477177.5804
  22895323.390   -15396765.636 8 -11964630.59846  22895323.019    22895330.6594
  23907130.481    -9318603.201 8  -6741225.05745  23907129.928    23907139.0874
  21730447.497                                    21730447.473    21730450.8954
 01  5 25  2 27  0.0000000  0  7 25 11 21 14 20 01 29
  20713129.915                                    20713129.828    20713135.0644
  21116718.577   -25302834.406 9 -19702425.64447  21116718.240    21116723.1334
  23067912.715   -11482937.474 7  -8666939.44544  23067912.388    23067921.5164
  22491289.110    -9765227.030 8  -7594704.21346  22491288.795    22491293.9664
  22879466.791   -15480091.380 8 -12029559.69446  22879466.435    22879474.3484
  23892789.700    -9393964.889 8  -6799948.24545  23892789.127    23892798.5484
  21741683.641   -11696528.71118  -9091899.25055  21741683.576    21741687.3104
 01  5 25  2 27 30.0000000  0  7 25 11 21 14 20 01 29
  20711637.910                                    20711422.301    20711465.2654
  21115939.999   -25306926.398 9 -19705614.22847  21115939.639    21115944.5634
  23081406.832   -11412025.940 7  -8611683.77544  23081406.395    23081414.8324
  22505420.547    -9690966.805 8  -7536839.12346  22505420.122    22505425.1764
  22863623.203   -15563350.851 8 -12094437.14746  22863622.763    22863630.5144
  23878480.141    -9469159.937 8  -6858541.58345  23878479.623    23878489.1124
  21752941.050   -11637370.539 8  -9045802.01745  21752941.022    21752945.1994
 01  5 25  2 28  0.0000000  0  7 25 11 21 14 20 01 29
  20710247.640                                    20710248.403    20710248.6314
  21115271.251   -25310441.071 9 -19708352.94847  21115270.912    21115275.8754
  23094950.847   -11340851.970 8  -8556223.62545  23094950.618    23094959.2544
  22519566.773    -9616628.024 8  -7478912.81846  22519566.358    22519571.3224
  22847792.702   -15646540.547 8 -12159260.22346  22847792.193    22847799.9754
  23864202.892    -9544186.436 8  -6917003.56645  23864202.458    23864212.0684
  21764219.920                    -8999616.98845  21764219.983    21764224.1204
 01  5 25  2 28 30.0000000  0  7 25 11 21 14 20 01 29
  20708958.424                                    20708959.236    20708959.4774
  21114711.844   -25313381.150 9 -19710643.92947  21114711.390    21114716.4184
  23108544.656   -11269417.394 8  -8500560.35544  23108544.437    23108552.7684
  22533727.150    -9542214.854 8  -7420928.57346  22533726.726    22533731.7444
  22831975.114   -15729661.970 8 -12224030.09146  22831974.733    22831982.2844
  23849956.705    -9619046.671 8  -6975336.04745  23849956.290    23849966.0054
  21775519.842   -11518719.65818  -8953346.85245  21775519.711    21775523.8584
 01  5 25  2 29  0.0000000  0  7 25 11 21 14 20 01 29
  20707770.262                                    20707771.218    20707771.4754
  21114261.701   -25315746.315 9 -19712486.92647  21114261.321    21114266.3664
  23122188.293   -11197722.214 8  -8444694.08745  23122187.961    23122197.2864
  22547901.547    -9467728.088 8  -7362886.99146  22547901.093    22547906.1964
  22816171.016   -15812713.966 8 -12288745.86446  22816170.633    22816177.8464
  23835741.880    -9693740.623 8  -7033538.89545  23835741.732    23835752.2074
  21786840.046   -11459231.520 8  -8906992.49945  21786839.935    21786844.3594
 01  5 25  2 29 30.0000000  0  7 25 11 21 14 20 01 29
  20706683.825                                    20706684.920    20706699.8454
  21113921.262   -25317535.143 9 -19713880.81747  21113920.867    21113926.0234
  23135881.454   -11125765.550 7  -8388624.05244  23135881.330    23135889.2524
  22562089.990    -9393167.135 8  -7304787.56746  22562089.620    22562094.7994
  22800380.949   -15895693.266 8 -12353404.98446  22800380.435    22800387.3974
  23821559.740    -9768266.276 7  -7091610.63245  23821559.708    23821570.2154
  21798180.780   -11399634.792 8  -8860553.55445  21798180.634    21798185.6294
 01  5 25  2 30  0.0000000  0  7 25 11 21 14 20 01 29
  20705698.392                                    20705699.413    20705714.3494
  21113690.233   -25318749.120 9 -19714826.79247  21113689.876    21113695.0364
  23149623.875   -11053549.630 7  -8332352.02844  23149623.619    23149632.2604
  22576292.054    -9318534.868 8  -7246632.59246  22576291.688    22576296.9084
  22784604.327   -15978600.044 8 -12418007.62546  22784603.847    22784610.5564
  23807409.507    -9842625.502 7  -7149552.70545  23807409.404    23807420.3154
  21809541.748   -11339932.109 8  -8814031.99846  21809541.588    21809546.9414
 01  5 25  2 30 30.0000000  0  7 25 11 21 14 20 01 29
  20704814.026                                    20704815.145    20704830.0944
  21113568.875   -25319387.150 9 -19715323.97247  21113568.501    21113573.7384
  23163415.470   -10981073.547 7  -8275877.46944  23163414.824    23163423.1684
  22590507.737    -9243831.498 8  -7188422.21446  22590507.317    22590512.5264
  22768841.924   -16061432.177 8 -12482552.09046  22768841.419    22768847.9044
  23793291.270    -9916816.999 7  -7207364.13945  23793291.257    23793302.0864
  21820923.032   -11280123.515 8  -8767427.95546  21820922.850    21820928.4624
 01  5 25  2 31  0.0000000  0  7 25 11 21 14 20 01 29
                      -237.195
  21113556.964   -25319449.971 9 -19715372.94847  21113556.618    21113561.8224
  23177256.260   -10908338.466 7  -8219200.74944  23177256.130    23177261.5724
  22604736.469    -9169058.626 8  -7130157.67946  22604736.097    22604741.4454
  22753093.739   -16144188.685 8 -12547037.63746  22753093.281    22753099.6924
  23779204.618    -9990841.443 7  -7265045.31045  23779204.581    23779215.8584
  21832323.989   -11220210.514 8  -8720742.52146  21832323.897    21832329.4744
 01  5 25  2 31 30.0000000  0  7 25 11 21 14 20 01 29
  20703348.839                                    20703349.369    20703540.1754
  21113654.851   -25318935.896 9 -19714972.37047  21113654.481    21113659.6644
  23191146.608   -10835342.411 7  -8162320.81044  23191146.113    23191153.6374
  22618978.566    -9094215.823 8  -7071838.63746  22618978.237    22618983.6674
  22737360.821   -16226866.535 8 -12611461.88246  22737360.273    22737366.3634
  23765150.303   -10064696.648 7  -7322594.70545  23765150.279    23765161.8084
  21843744.963   -11160192.556 8  -8673975.28646  21843745.030    21843750.3794
 01  5 25  2 32  0.0000000  0  7 25 11 21 14 20 01 29
  20702768.085                                    20702768.642    20702959.4574
  21113862.190   -25317845.999 9 -19714123.11747  21113861.857    21113867.0644
  23205086.709   -10762086.825 7  -8105238.59244  23205086.543    23205094.1904
  22633233.587    -9019304.828 8  -7013466.48646  22633233.289    22633238.8764
  22721642.574   -16309465.447 8 -12675824.63046  22721642.125    22721648.1194
  23751128.041   -10138383.748 7  -7380013.05945  23751127.766    23751139.6144
  21855185.693   -11100071.380 8  -8627127.64746  21855185.690    21855191.0464
 01  5 25  2 32 30.0000000  0  7 25 11 21 14 20 01 29
  20702288.326                                    20702288.734    20702479.5664
  21114178.894   -25316181.453 9 -19712826.08647  21114178.559    21114183.7604
  23219076.016   -10688573.369 8  -8047955.46845  23219075.468    23219084.3534
  22647501.236    -8944328.098 8  -6955043.08846  22647500.891    22647506.5684
  22705939.433   -16391985.155 8 -12740125.64846  22705939.036    22705945.0634
  23737137.448   -10211903.797 7  -7437301.23745  23737137.132    23737149.1234
  21866645.746   -11039849.402 8  -8580201.49146  21866645.576    21866651.0874
 01  5 25  2 33  0.0000000  0  7 25 11 21 14 20 01 29
  20701909.319                                    20701910.246    20702071.7874
  21114604.936   -25313942.363 9 -19711081.34947  21114604.613    21114609.8674
  23233114.421   -10614801.852 8  -7990471.24545  23233113.740    23233122.9094
  22661781.194    -8869286.555 8  -6896569.19846  22661780.885    22661786.4994
  22690251.899   -16474423.961 8 -12804363.62546  22690251.476    22690257.4854
  23723179.064   -10285256.366 7  -7494458.95945  23723178.824    23723190.5124
  21878124.427   -10979527.497 8  -8533197.43246  21878124.350    21878130.1694
 01  5 25  2 33 30.0000000  0  7 25 11 21 14 20 01 29
  20701631.032                                    20701632.068    20701793.6234
  21115140.540   -25311127.962 9 -19708888.32447  21115140.232    21115145.4064
  23247201.987   -10540771.834 8  -7932785.60245  23247201.586    23247210.8264
  22676073.493    -8794180.250 8  -6838044.85846  22676073.150    22676078.7014
  22674580.199   -16556779.567 8 -12868536.78446  22674579.815    22674585.7824
  23709252.672   -10358440.709 8  -7551485.54345  23709252.556    23709263.7664
  21889622.222   -10919105.532 8  -8486115.42246  21889622.230    21889628.2714
 01  5 25  2 34  0.0000000  0  7 25 11 21 14 20 01 29
  20701453.611     2708725.33955                  20701455.071    20701458.1294
  21115785.725   -25307737.988 9 -19706246.79347  21115785.366    21115790.5244
  23261338.915   -10466483.463 8  -7874898.64645  23261338.480    23261347.7674
  22690377.795    -8719010.031 8  -6779470.72346  22690377.529    22690383.1024
  22658924.683   -16639050.198 8 -12932643.72946  22658924.253    22658930.2864
  23695358.133   -10431456.448 8  -7608380.78245  23695357.966    23695369.1294
  21901139.021   -10858584.160 8  -8438955.93346  21901139.007    21901145.1424
 01  5 25  2 34 30.0000000  0  7 25 11 21 14 20 01 29
  20701377.092     2708411.71545                  20701377.506    20701381.0194
  21116540.205   -25303772.979 9 -19703157.17947  21116539.874    21116545.0364
  23275524.844   -10391937.181 8  -7816810.70845  23275524.369    23275533.7984
  22704694.188    -8643777.248 8  -6720847.82046  22704693.798    22704699.3664
  22643285.449   -16721234.592 8 -12996683.44946  22643285.040    22643291.1594
  23681495.392   -10504303.663 7  -7665144.67445  23681495.312    23681506.5934
  21912674.457   -10797964.729 8  -8391720.04346  21912674.511    21912680.6694
 01  5 25  2 35  0.0000000  0  7 25 11 21 14 20 01 29
  20701400.869   -25775012.82918   2708509.20845  20701400.948    20701404.6504
  21117403.687   -25299234.806 9 -19699620.95947  21117403.406    21117408.5844
  23289759.210   -10317135.187 8  -7758523.51645  23289758.786    23289768.0894
  22719021.874    -8568484.582 8  -6662178.27546  22719021.539    22719027.1624
  22627662.684   -16803333.174 8 -13060656.32946  22627662.225    22627668.3004
  23667664.915   -10576983.814 8  -7721778.40245  23667664.806    23667675.6424
  21924228.133   -10737249.851 8  -8344409.77146  21924228.252    21924234.4264
 01  5 25  2 35 30.0000000  0  7 25 11 21 14 20 01 29
  20701525.389   -25774358.041 8   2709019.44345  20701525.413    20701529.1984
  21118376.923   -25294120.933 9 -19695636.13247  21118376.642    21118381.7554
  23304042.733   -10242074.727 8  -7700034.93845  23304042.297    23304051.5144
  22733361.183    -8493130.013 8  -6603460.47646  22733360.962    22733366.7554
  22612056.867   -16885341.275 8 -13124558.68646  22612056.440    22612062.6814
  23653866.796   -10649494.114 8  -7778279.76345  23653866.589    23653877.3064
  21935800.434   -10676437.534 8  -8297023.60246  21935800.422    21935806.6974
 01  5 25  2 36  0.0000000  0  7 25 11 21 14 20 01 29
  20701750.720   -25773174.839 8   2709941.44545  20701750.615    20701754.3614
  21119459.364   -25288432.722 9 -19691203.78047  21119459.053    21119464.1004
  23318375.156   -10166757.440 8  -7641346.26445  23318374.824    23318384.1724
  22747711.939    -8417715.673 8  -6544696.13746  22747711.707    22747717.7344
  22596468.189   -16967258.891 8 -13188390.55746  22596467.791    22596474.1374
  23640100.722   -10721835.623 8  -7834649.61845  23640100.488    23640111.0054
  21947390.844   -10615529.777 8  -8249563.04146  21947390.927    21947397.0664
 01  5 25  2 36 30.0000000  0  7 25 11 21 14 20 01 29
  20702076.223   -25771464.269 8   2711274.38146  20702076.121    20702080.0414
  21120650.829   -25282171.046 9 -19686324.55847  21120650.548    21120655.6524
  23332756.426   -10091184.096 8  -7582458.02645  23332756.069    23332765.6254
  22762073.792    -8342243.243 8  -6485886.50846  22762073.664    22762079.6904
  22580896.976   -17049085.036 8 -13252151.12346  22580896.611    22580902.9634
  23626366.904   -10794008.896 8  -7890888.38846  23626366.646    23626376.7424
  21958999.287   -10554528.133 8  -8202029.33346  21958999.291    21959005.3344
 01  5 25  2 37  0.0000000  0  7 25 11 21 14 20 01 29
  20702501.893   -25769226.791 8   2713017.89746  20702501.836    20702506.0504
  21121951.557   -25275335.966 9 -19680998.52547  21121951.277    21121956.3354
  23347186.431   -10015354.974 8  -7523370.47445  23347185.859    23347195.6494
  22776446.771    -8266713.448 8  -6427032.14046  22776446.554    22776452.5464
  22565343.695   -17130817.937 8 -13315839.03446  22565343.268    22565349.4164
  23612665.143   -10866013.566 8  -7946995.78646  23612664.802    23612674.5554
  21970625.274   -10493433.399 8  -8154423.08846  21970625.292    21970631.3234
 01  5 25  2 37 30.0000000  0  7 25 11 21 14 20 01 29
  20703027.872   -25766462.984 8   2715171.55346  20703027.732    20703032.2334
  21123361.345   -25267927.862 9 -19675225.99947  21123360.991    21123366.0594
  23361665.019    -9939270.022 8  -7464083.53745  23361664.556    23361674.0094
  22790830.415    -8191127.718 8  -6368134.23746  22790830.206    22790836.1254
  22549808.419   -17212456.306 8 -13379453.26646  22549807.992    22549813.8654
  23598995.150   -10937849.762 8  -8002971.89546  23598994.776    23599004.5274
  21982268.808   -10432246.557 8  -8106745.03746  21982268.792    21982274.9064
 01  5 25  2 38  0.0000000  0  7 25 11 21 14 20 01 29
  20703653.795   -25763173.326 8   2717734.94446  20703653.689    20703658.3834
  21124879.912   -25259947.158 9 -19669007.31847  21124879.600    21124884.7564
  23376191.679    -9862930.206 8  -7404598.03445  23376191.460    23376200.7814
  22805224.663    -8115486.656 8  -6309193.17946  22805224.382    22805230.1984
  22534291.718   -17293998.227 8 -13442992.37646  22534291.195    22534297.0244
  23585357.029   -11009517.259 8  -8058816.52946  23585356.728    23585366.5474
  21993929.636   -10370968.498 8  -8058995.92146  21993929.579    21993935.7234
 01  5 25  2 38 30.0000000  0  7 25 11 21 14 20 01 29
  20704380.233   -25759355.823 8   2720709.61846  20704380.117    20704384.8934
  21126507.867   -25251391.783 9 -19662340.77147  21126507.553    21126512.8904
  23390767.417    -9786333.323 7  -7344912.25345  23390767.289    23390776.2134
  22819629.738    -8039788.745 8  -6250207.85246  22819629.429    22819635.1334
  22518793.713   -17375440.054 8 -13506453.48246  22518793.214    22518799.2654
  23571751.622   -11081013.624 8  -8114527.83846  23571751.307    23571760.9094
  22005607.932   -10309597.471 8  -8011174.36246  22005607.906    22005614.2594
 01  5 25  2 39  0.0000000  0  7 25 11 21 14 20 01 29
  20705206.503   -25755013.786 8   2724093.06646  20705206.334    20705211.3374
  21128244.623   -25242264.876 8 -19655228.92247  21128244.321    21128249.6914
  23405391.459    -9709482.902 7  -7285028.88745  23405391.374    23405400.0844
  22834044.800    -7964037.882 8  -6191181.22546  22834044.380    22834050.0804
  22503314.546   -17456783.014 8 -13569837.56246  22503314.119    22503320.2654
  23558178.354   -11152341.496 8  -8170107.84846  23558178.043    23558187.2164
  22017303.191   -10248137.247 8  -7963283.30246  22017303.119    22017309.7794
 01  5 25  2 39 30.0000000  0  7 25 11 21 14 20 01 29
  20706132.275   -25750148.358 8   2727884.32745  20706132.154    20706137.0094
  21130089.829   -25232567.174 9 -19647672.25147  21130089.604    21130095.1184
  23420063.521    -9632379.546 7  -7224948.52045  23420063.429    23420072.2514
  22848469.385    -7888235.186 8  -6132114.26446  22848469.025    22848474.8524
  22487854.655   -17538025.678 8 -13633143.47646  22487854.173    22487860.3614
  23544636.965   -11223501.154 8  -8225556.79346  23544636.677    23544645.7014
  22029015.340   -10186589.041 8  -7915323.70146  22029015.400    22029022.0264
 01  5 25  2 40  0.0000000  0  7 25 11 21 14 20 01 29
  20707158.304   -25744756.396 8   2732085.88545  20707158.123    20707162.7844
  21132044.533   -25222295.513 9 -19639668.39147  21132044.280    21132049.7324
  23434784.578    -9555019.618 7  -7164668.13345  23434784.486    23434793.4804
  22862904.397    -7812377.904 8  -6073004.73446  22862904.231    22862909.9824
  22472414.647   -17619163.140 8 -13696367.42346  22472414.182    22472420.3114
  23531128.049   -11294489.086 8  -8280871.91946  23531127.810    23531136.9234
  22040744.706   -10124950.090 8  -7867293.37946  22040744.830    22040751.5414
 01  5 25  2 40 30.0000000  0  7 25 11 21 14 20 01 29
  20708283.467   -25738843.433 8   2736693.42045  20708283.354    20708287.9174
  21134107.380   -25211455.615 9 -19631221.74447  21134107.112    21134112.4654
  23449553.572    -9477408.966 7  -7104192.33545  23449553.193    23449562.8894
  22877348.756    -7736472.397 8  -6013857.63446  22877348.571    22877354.2704
  22456993.918   -17700198.648 8 -13759511.93046  22456993.417    22456999.5344
  23517651.127   -11365310.320 8  -8336057.14346  23517650.859    23517660.0204
  22052490.543   -10063226.257 8  -7819196.91846  22052490.648    22052497.2114
 01  5 25  2 41  0.0000000  0  7 25 11 21 14 20 01 29
  20709508.510   -25732406.271 8   2741709.44545  20709508.375    20709512.8694
  21136279.101   -25200043.620 8 -19622329.31247  21136278.749    21136284.0294
  23464370.610    -9399544.054 7  -7043518.52445  23464370.404    23464380.5224
  22891802.988    -7660515.095 8  -5954670.13846  22891802.814    22891808.4124
  22441593.768   -17781126.591 8 -13822572.60746  22441593.179    22441599.1904
  23504206.891   -11435960.647 8  -8391109.17346  23504206.468    23504215.6424
  22064252.889   -10001414.377 8  -7771031.87946  22064253.115    22064259.6574
 01  5 25  2 41 30.0000000  0  7 25 11 21 14 20 01 29
  20710832.609   -25725447.385 8   2747131.95945  20710832.440    20710837.2294
  21138559.073   -25188061.902 9 -19612992.90947  21138558.780    21138563.9574
  23479236.216    -9321426.890 7  -6982648.06745  23479235.993    23479245.1244
  22906266.622    -7584508.696 8  -5895444.42446  22906266.482    22906271.9824
  22426213.924   -17861947.304 8 -13885549.76946  22426213.415    22426219.2364
  23490794.546   -11506441.762 8  -8446029.40946  23490794.271    23490803.3614
  22076031.807    -9939517.124 8  -7722800.25446  22076031.911    22076038.3154
 01  5 25  2 42  0.0000000  0  7 25 11 21 14 20 01 29
  20712255.243   -25717970.821 8   2752957.86546  20712255.214    20712260.2194
  21140946.767   -25175514.378 8 -19603215.63747  21140946.437    21140951.7484
  23494148.939    -9243061.777 7  -6921584.40344  23494148.661    23494157.8344
  22920738.874    -7508457.857 8  -5836184.05246  22920738.643    22920744.1034
  22410854.203   -17942662.710 8 -13948444.82446  22410853.670    22410859.5944
  23477414.012   -11576757.224 8  -8500820.53045  23477413.525    23477422.1904
  22087826.204    -9877538.711 8  -7674505.41846  22087826.215    22087832.4114
 01  5 25  2 42 30.0000000  0  7 25 11 21 14 20 01 29
  20713777.304   -25709972.430 7   2759190.41946  20713777.261    20713782.4154
  21143442.809   -25162396.918 9 -19592994.27347  21143442.529    21143448.0274
  23509109.332    -9164443.654 7  -6860323.56244  23509108.783    23509117.9544
  22935220.240    -7432358.355 8  -5776885.81246  22935219.987    22935225.4614
  22395515.618   -18023266.002 8 -14011252.54646  22395515.218    22395521.2624
  23464065.648   -11646902.147 8  -8555478.75145  23464065.226    23464073.3084
  22099636.703    -9815475.002 8  -7626144.12646  22099636.720    22099642.7804
 01  5 25  2 43  0.0000000  0  7 25 11 21 14 20 01 29
  20715398.590   -25701452.915 7   2765829.01446  20715398.469    20715403.5264
  21146047.232   -25148710.416 9 -19582329.46947  21146046.986    21146052.5204
  23524117.625    -9085573.878 6  -6798866.58044  23524117.052    23524125.9034
  22949710.561    -7356211.508 8  -5717550.65546  22949710.216    22949715.8804
  22380198.857   -18103756.065 8 -14073972.02246  22380198.450    22380204.6554
  23450749.500   -11716876.821 8  -8610004.34945  23450749.105    23450757.0794
  22111463.136    -9753327.149 8  -7577717.24946  22111463.112    22111469.1344
 01  5 25  2 43 30.0000000  0  7 25 11 21 14 20 01 29
  20717118.636   -25692413.435 8   2772872.76645  20717118.567    20717123.6244
  21148759.955   -25134455.771 9 -19571221.96847  21148759.638    21148765.2104
  23539173.258    -9006452.597 7  -6737213.61944  23539173.050    23539182.4184
  22964209.725    -7280018.304 8  -5658179.38746  22964209.408    22964215.1104
  22364904.173   -18184131.458 8 -14136602.15446  22364903.699    22364909.7724
  23437466.042   -11786681.303 8  -8664397.29845  23437465.750    23437473.6794
  22123305.258    -9691096.165 8  -7529225.58846  22123305.235    22123311.3754
 01  5 25  2 44  0.0000000  0  7 25 11 21 14 20 01 29
  20718937.298   -25682857.040 8   2780319.29345  20718937.178    20718942.0664
  21151580.085   -25119635.799 9 -19559673.97147  21151579.746    21151585.3884
  23554277.781    -8927083.075 7  -6675367.32844  23554277.402    23554286.8144
  22978716.964    -7203781.943 8  -5598774.46946  22978716.766    22978722.4394
  22349630.972   -18264393.128 8 -14199143.67046  22349630.463    22349636.5564
  23424214.544   -11856318.201 8  -8718659.67545  23424214.204    23424222.0304
  22135162.641    -9628785.323 8  -7480671.70046  22135162.626    22135168.8954
 01  5 25  2 44 30.0000000  0  7 25 11 21 14 20 01 29
  20720854.634   -25672781.435 7   2788170.43645  20720854.552    20720859.3694
  21154508.232   -25104248.142 9 -19547683.59347  21154507.879    21154513.5094
  23569429.410    -8847462.880 7  -6613325.77645  23569428.991    23569438.3364
  22993233.006    -7127500.260 8  -5539334.23746  22993232.736    22993238.4944
  22334380.172   -18344535.991 8 -14261592.60246  22334379.780    22334385.9274
  23410995.312   -11925784.273 8  -8772788.87745  23410994.886    23411002.8434
  22147035.589    -9566392.144 8  -7432053.67946  22147035.566    22147042.0824
 01  5 25  2 45  0.0000000  0  7 25 11 21 14 20 01 29
  20722869.646   -25662191.354 7   2796422.43446  20722869.635    20722874.5634
  21157543.397   -25088297.646 9 -19535254.62947  21157543.118    21157548.7644
  23584627.920    -8767595.917 7  -6551091.81245  23584627.602    23584636.3054
  23007756.662    -7051178.238 8  -5479862.57046  23007756.412    23007762.2034
  22319151.649   -18424562.751 8 -14323951.08146  22319151.253    22319157.2924
  23397807.287   -11995083.456 7  -8826788.13645  23397807.116    23397815.6544
  22158923.295    -9503921.577 8  -7383375.35646  22158923.256    22158929.8624
 01  5 25  2 45 30.0000000  0  7 25 11 21 14 20 01 29
  20724983.964   -25651082.183 7   2805078.93346  20724983.961    20724988.5484
  21160686.698   -25071779.139 9 -19522383.10047  21160686.481    21160692.0974
  23599874.063    -8687476.920 7  -6488661.52145  23599873.747    23599882.6074
  23022288.996    -6974810.739 8  -5420355.48646  23022288.702    23022294.5004
  22303946.684   -18504465.775 8 -14386213.11246  22303946.219    22303952.1174
  23384652.658   -12064210.173 7  -8880652.92545  23384652.474    23384661.4924
  22170826.759    -9441368.572 8  -7334632.78146  22170826.756    22170833.2824
 01  5 25  2 46  0.0000000  0  7 25 11 21 14 20 01 29
  20727195.777   -25639458.436 7   2814136.40346  20727195.872    20727200.5654
  21163937.389   -25054697.150 9 -19509072.49047  21163937.111    21163942.5704
  23615166.784    -8607110.895 6  -6426038.68544  23615166.443    23615175.7864
  23036828.825    -6898402.463 8  -5360816.60145  23036828.536    23036834.5304
  22288764.878   -18584247.274 8 -14448380.47046  22288764.379    22288770.0884
  23371530.144   -12133167.831 8  -8934386.05345  23371529.916    23371539.4304
  22182745.134    -9378737.758 8  -7285829.56446  22182745.105    22182751.5044
 01  5 25  2 46 30.0000000  0  7 25 11 21 14 20 01 29
  20729504.907   -25627322.648 8   2823592.87346  20729504.983    20729509.8754
  21167294.660   -25037054.512 9 -19495324.98247  21167294.397    21167299.7454
  23630506.203    -8526499.289 7  -6363224.28044  23630506.161    23630515.5744
  23051375.866    -6821956.058 8  -5301247.99845  23051375.724    23051381.8364
  22273606.146   -18663907.354 8 -14510453.18546  22273605.594    22273611.3284
  23358439.810   -12201958.689 8  -8987989.16645  23358439.519    23358448.8244
  22194677.727    -9316031.664 8  -7236967.68646  22194677.724    22194684.0534
 01  5 25  2 47  0.0000000  0  7 25 11 21 14 20 01 29
  20731912.383   -25614672.177 7   2833450.37746  20731912.465    20731917.1304
  21170759.210   -25018848.439 9 -19481138.46447  21170758.939    21170764.2364
  23645893.002    -8445640.926 6  -6300217.79944  23645892.799    23645902.7314
  23065931.041    -6745469.118 8  -5241647.83245  23065930.748    23065936.8734
  22258471.553   -18743440.975 8 -14572427.37446  22258470.921    22258476.6894
  23345381.914   -12270579.367 8  -9041459.69445  23345381.439    23345390.5764
  22206625.149    -9253247.707 8  -7188045.13246  22206625.143    22206631.4004
 01  5 25  2 47 30.0000000  0  7 25 11 21 14 20 01 29
  20734417.152   -25601509.549 7   2843706.98146  20734417.142    20734421.9604
  21174330.492   -25000081.280 9 -19466514.73247  21174330.206    21174335.5124
  23661326.720    -8364536.615 6  -6237019.75344  23661326.445    23661336.5274
  23080493.347    -6668943.785 8  -5182017.74045  23080493.147    23080499.1954
  22243360.966   -18822847.995 8 -14634302.91847  22243360.322    22243366.1124
  23332355.633   -12339031.156 8  -9094798.59245  23332355.197    23332364.4634
  22218586.947    -9190387.973 8  -7139063.54046  22218586.952    22218593.1834
 01  5 25  2 48  0.0000000  0  7 25 11 21 14 20 01 29
  20737019.104   -25587833.185 7   2854363.91646  20737019.291    20737024.4834
  21178009.041   -24980750.929 9 -19451452.15347  21178008.789    21178014.0794
  23676807.701    -8283184.640 7  -6173628.72345  23676807.505    23676817.6234
  23095063.487    -6592378.100 8  -5122356.18645  23095063.161    23095069.0634
  22228275.298   -18902123.829 8 -14696076.24047  22228274.705    22228280.4644
  23319362.056   -12407311.351 8  -9148003.80945  23319361.692    23319370.8324
  22230563.435    -9127450.521 8  -7090021.39846  22230563.451    22230569.7794
 01  5 25  2 48 30.0000000  0  7 25 11 21 14 20 01 29
  20739718.141   -25573649.713 7   2865415.98846  20739718.222    20739723.4694
  21181793.446   -24960864.380 9 -19435956.15247  21181793.130    21181798.4514
  23692334.613    -8201591.362 7  -6110049.53244  23692334.719    23692344.2514
  23109639.776    -6515778.792 8  -5062668.43645  23109639.489    23109645.2614
  22213213.720   -18981272.870 9 -14757750.74747  22213213.123    22213218.9484
  23306400.288   -12475426.022 8  -9201080.06945  23306399.965    23306408.8724
  22242553.474    -9064442.191 8  -7040924.03646  22242553.600    22242559.7914
 01  5 25  2 49  0.0000000  0  7 25 11 21 14 20 01 29
  20742513.939   -25558958.192 7   2876863.94546  20742513.827    20742519.2514
  21185683.636   -24940420.826 9 -19420026.13747  21185683.367    21185688.8104
  23707908.278    -8119756.043 7  -6046281.85045  23707907.895    23707917.1564
  23124222.857    -6439144.774 8  -5002953.63945  23124222.593    23124228.1694
  22198176.887   -19060291.437 8 -14819323.60347  22198176.322    22198182.2614
  23293470.305   -12543373.640 8  -9254026.12545  23293469.986    23293478.9224
  22254557.402    -9001361.882 8  -6991770.56546  22254557.520    22254563.5134
 01  5 25  2 49 30.0000000  0  7 25 11 21 14 20 01 29
  20745406.391   -25543756.562 7   2888709.35946  20745406.424    20745411.9054
  21189680.456   -24919417.931 9 -19403660.26247  21189680.150    21189685.7434
  23723527.670    -8037675.016 6  -5982322.73244  23723527.634    23723536.6974
  23138813.186    -6362473.714 8  -4943210.00045  23138812.833    23138818.2044
  22183165.758   -19139174.854 8 -14880791.14247  22183165.215    22183171.3844
  23280572.821   -12611150.867 8  -9306839.45445  23280572.564    23280581.0064
  22266575.475    -8938206.985 8  -6942558.97346  22266575.540    22266581.4914
 01  5 25  2 50  0.0000000  0  7 25 11 21 14 20 01 29
  20748396.613   -25528042.203 7   2900954.33946  20748396.744    20748402.2934
  21193784.072   -24897852.746 8 -19386856.25547  21193783.759    21193789.6164
  23739194.533    -7955346.097 6  -5918170.37644  23739194.778    23739202.8234
  23153410.821    -6285762.752 8  -4883435.29245  23153410.537    23153415.9164
  22168181.225   -19217917.731 8 -14942149.19447  22168180.738    22168187.1654
  23267708.609   -12678754.159 8  -9359517.24045  23267708.260    23267716.4974
  22278608.258    -8874974.470 8  -6893286.90846  22278608.301    22278614.2874
 01  5 25  2 50 30.0000000  0  6 25 11 14 20 01 29
  20751481.085   -25511832.609 7   2913585.24846  20751481.129    20751486.9244
  21197991.204   -24875743.220 8 -19369628.06247  21197990.986    21197996.9414
  23168012.801    -6209029.401 8  -4823643.11645  23168012.458    23168017.8684
  22153220.591   -19296534.803 8 -15003409.18647  22153220.135    22153226.8274
  23254874.097   -12746200.279 8  -9412072.55946  23254873.706    23254881.8494
  22290652.471    -8811682.000 8  -6843968.11246  22290652.502    22290658.5434
 01  5 25  2 51  0.0000000  0  6 25 11 14 20 01 29
  20754663.189   -25495112.840 7   2926613.64145  20754663.175    20754668.5934
  21202304.886   -24853074.554 9 -19351964.22247  21202304.689    21202310.6854
  23182621.999    -6132258.489 8  -4763821.67945  23182621.575    23182626.9294
  22138287.280   -19375008.738 8 -15064557.66146  22138286.873    22138293.5944
  23242072.189   -12813473.387 8  -9464493.03945  23242071.928    23242080.0184
  22302711.030    -8748314.292 8  -6794590.72946  22302711.024    22302717.0404
 01  5 25  2 51 30.0000000  0  6 25 11 14 20 01 29
  20757941.118   -25477886.418 7   2940036.86845  20757941.198    20757946.6284
  21206724.631   -24829849.701 9 -19333866.92847  21206724.400    21206730.3104
  23197237.433    -6055453.194 8  -4703973.42245  23197237.078    23197242.4424
  22123381.336   -19453339.688 8 -15125594.71946  22123380.883    22123387.5534
  23229303.233   -12880575.462 8  -9516780.27246  23229302.889    23229310.7634
  22314783.370    -8684874.118 8  -6745156.84946  22314783.337    22314789.4134
 01  5 25  2 52  0.0000000  0  6 25 11 14 20 01 29
  20761314.560   -25460156.392 7   2953852.47545  20761314.899    20761320.4514
  21211249.671   -24806071.659 9 -19315338.62247  21211249.367    21211255.1484
  23211858.930    -5978615.758 7  -4644100.16345  23211858.605    23211864.0684
  22108502.643   -19531528.067 8 -15186520.67746  22108502.103    22108508.7074
  23216566.186   -12947508.982 8  -9568936.17246  23216565.757    23216573.5274
  22326868.910    -8621363.992 8  -6695668.48546  22326868.930    22326875.0594
 01  5 25  2 52 30.0000000  0  6 25 11 14 20 01 29
  20764785.576   -25441920.023 7   2968062.75645  20764785.487    20764790.4874
  21215880.266   -24781737.416 9 -19296376.89347  21215879.952    21215885.8654
  23226486.927    -5901743.344 7  -4584199.59445  23226486.807    23226492.3604
  22093651.946   -19609568.113 8 -15247331.05046  22093651.384    22093657.9674
  23203861.827   -13014269.874 8  -9620957.53346  23203861.451    23203869.3234
  22338968.349    -8557781.126 8  -6646123.44147  22338968.354    22338974.5304
 01  5 25  2 53  0.0000000  0  7 25 11 21 14 20 01 29
  20768351.544   -25423182.492 7   2982663.51045  20768351.000    20768356.7964
  21220615.575   -24756852.949 9 -19276986.38747  21220615.274    21220621.3854
  23834154.103                                    23834149.911    23834168.5854
  23241120.985    -5824840.754 7  -4524275.53945  23241120.846    23241126.3564
  22078829.049   -19687462.571 8 -15308027.97846  22078828.455    22078835.0164
  23191189.542   -13080862.679 8  -9672847.95446  23191189.224    23191197.1774
  22351080.726    -8494130.413 8  -6596525.49547  22351080.749    22351086.8774
 01  5 25  2 53 30.0000000  0  7 25 11 21 14 20 01 29
  20772012.859   -25403942.866 7   2997655.50145  20772012.594    20772017.2984
  21225455.767   -24731416.805 9 -19257166.06147  21225455.483    21225461.8334
  23850140.956     -395604.48144                  23850140.661    23850144.7984
  23255761.245    -5747906.599 8  -4464326.90645  23255761.022    23255766.3584
  22064034.583   -19765207.205 8 -15368608.16346  22064034.097    22064040.5174
  23178549.447   -13147285.164 8  -9724605.60246  23178549.234    23178557.1614
  22363206.441    -8430410.196 8  -6546873.41446  22363206.374    22363212.4764
 01  5 25  2 54  0.0000000  0  7 25 11 21 14 20 01 29
  20775768.801   -25384204.560 7   3013036.03845  20775769.495    20775774.0284
  21230400.360   -24705432.955 9 -19236918.90347  21230400.159    21230406.5194
  23866170.584     -406801.22117   -329956.54145  23866171.074    23866179.7584
  23270406.609    -5670944.471 7  -4404356.44045  23270406.283    23270411.7844
  22049268.579   -19842803.092 8 -15429072.45146  22049268.089    22049274.3794
  23165941.431   -13213540.231 8  -9776232.87446  23165941.253    23165949.0414
  22375344.687    -8366623.665 8  -6497169.63046  22375344.621    22375350.6874
 01  5 25  2 54 30.0000000  0  8 25 11 21 14 20 01 29 22
  20779618.741   -25363971.780 7   3028801.92445  20779619.289    20779623.9024
  21235448.617   -24678905.045 9 -19216247.84547  21235448.375    21235454.6424
  23882248.770     -322319.262 7   -264126.51445  23882247.384    23882258.3544
  23285056.648    -5593957.700 8  -4344366.78845  23285056.401    23285062.0194
  22034530.802   -19920251.213 8 -15489421.58047  22034530.312    22034536.4064
  23153364.667   -13279630.482 8  -9827731.65646  23153364.470    23153372.4464
  22387494.884    -8302774.348 8  -6447416.95846  22387494.810    22387500.8174
  24390722.722    -3279411.605 7  -2535596.46245  24390721.976    24390732.2204
 01  5 25  2 55  0.0000000  0  8 25 11 21 14 20 01 29 22
  20783563.901   -25343241.012 7   3044955.82045  20783564.268    20783568.9824
  21240600.885   -24651829.707 9 -19195150.18447  21240600.698    21240606.8714
  23898369.874     -237599.533 7   -198111.20545  23898368.804    23898380.1854
  23299712.326    -5516942.013 7  -4284354.61045  23299712.055    23299717.7024
  22019822.482   -19997544.845 8 -15549650.32947  22019821.915    22019827.8964
  23140820.306   -13345551.317 8  -9879098.43246  23140820.044    23140828.1694
  22399657.799    -8238858.108 8  -6397612.12046  22399657.769    22399663.6784
  24372326.443    -3376081.084 7  -2610922.95945  24372325.821    24372337.0274
 01  5 25  2 55 30.0000000  0  8 25 11 21 14 20 01 29 22
  20787603.583   -25322009.548 7   3061499.88145  20787604.053    20787609.3664
  21245857.994   -24624204.240 9 -19173623.88047  21245857.719    21245863.8054
  23914536.859     -152639.298 8   -131908.45945  23914536.101    23914547.0704
  23314374.184    -5439894.611 7  -4224317.70845  23314373.705    23314379.4554
  22005144.438   -20074678.574 8 -15609754.47747  22005143.836    22005149.8574
  23128308.973   -13411299.154 8  -9930330.42346  23128308.714    23128316.8314
  22411834.059    -8174871.856 8  -6347752.73546  22411834.010    22411839.8294
  24353917.021    -3472819.576 7  -2686303.27845  24353916.645    24353928.3714
 01  5 25  2 56  0.0000000  0  8 25 11 21 14 20 01 29 22
  20791736.972   -25300287.063 7   3078426.55145  20791737.450    20791742.7904
  21251217.542   -24596038.556 9 -19151676.60947  21251217.329    21251223.5404
  23930748.131      -67448.272 8    -65525.92345  23930747.358    23930758.7524
  23329039.812    -5362824.685 7  -4164263.23145  23329039.492    23329045.3984
  21990495.367   -20151659.051 8 -15669739.22747  21990494.777    21990500.9704
  23115829.091   -13476882.581 8  -9981434.28246  23115828.745    23115836.7594
  22424021.812    -8110824.855 8  -6297846.02146  22424021.763    22424027.5214
  24335493.890    -3569633.029 7  -2761741.94545  24335493.440    24335505.9124
 01  5 25  2 56 30.0000000  0  8 25 11 21 14 20 01 29 22
  20795964.784   -25278070.212 8   3095738.46245  20795965.353    20795970.6964
  21256680.708   -24567329.367 9 -19129305.83447  21256680.516    21256686.7084
  23947004.312       17977.735 8      1039.69145  23947003.643    23947014.7154
  23343710.811    -5285728.336 7  -4104188.18945  23343710.485    23343716.4404
  21975876.582   -20228479.999 8 -15729599.65747  21975876.138    21975882.4894
  23103381.071   -13542297.063 8 -10032406.50946  23103380.703    23103388.7934
  22436221.771    -8046713.095 8  -6247888.82946  22436221.748    22436227.4784
  24317057.259    -3666513.867 7  -2837233.16145  24317056.883    24317070.1584
 01  5 25  2 57  0.0000000  0  8 25 11 21 14 20 01 29 22
  20800286.157   -25255361.075 8   3113433.88545  20800286.521    20800292.6214
  21262247.066   -24538078.657 9 -19106513.07847  21262246.852    21262252.9734
  23963304.931      103637.368 8     67787.41745  23963304.280    23963314.5174
  23358386.488    -5208606.933 7  -4044093.63545  23358386.276    23358392.2934
  21961288.490   -20305140.389 8 -15789334.97547  21961288.007    21961294.4544
  23090964.677   -13607543.739 8 -10083247.95346  23090964.459    23090972.7634
  22448433.833    -7982538.084 8  -6197882.35046  22448433.833    22448439.5434
  24298608.136    -3763459.438 7  -2912774.79845  24298607.955    24298621.9894
 01  5 25  2 57 30.0000000  0  8 25 11 21 14 20 01 29 22
  20804701.326   -25232160.861 8   3131511.97644  20804702.064    20804706.8344
  21267916.332   -24508287.280 9 -19083299.04347  21267916.078    21267922.1274
  23979649.721      189529.945 8    134716.58545  23979649.145    23979659.3074
  23373066.828    -5131460.883 7  -3983979.87345  23373066.753    23373072.9104
  21946731.584   -20381637.735 8 -15848943.24347  21946731.064    21946737.3594
  23078580.344   -13672622.117 8 -10133958.28346  23078580.082    23078588.7194
  22460657.912    -7918299.840 8  -6147826.61146  22460657.950    22460663.5824
  24280148.267    -3860466.568 7  -2988364.49745  24280148.045    24280161.9654
 01  5 25  2 58  0.0000000  0  8 25 11 21 14 20 01 29 22
  20809209.494   -25208471.120 8                  20809210.686    20809217.0574
  21273687.995   -24477957.233 9 -19059665.27847  21273687.722    21273693.7464
  23996038.686      275654.414 8    201826.44245  23996038.028    23996048.5674
  23387751.663    -5054291.304 8  -3923847.78845  23387751.607    23387757.9434
  21932205.825   -20457971.157 8 -15908423.77147  21932205.300    21932211.4504
  23066228.102   -13737533.178 8 -10184538.24346  23066227.793    23066236.5774
  22472893.897    -7853999.569 8  -6097722.53746  22472893.899    22472899.5494
  24261677.095    -3957533.666 7  -3064000.83245  24261676.770    24261690.5424
 01  5 25  2 58 30.0000000  0  8 25 11 21 14 20 01 29 22
  20813810.096                                    20813815.387    20813828.3394
  21279561.714   -24447090.543 9 -19035613.34147  21279561.486    21279567.4864
  24012471.377      362008.736 8    269115.46745  24012470.733    24012481.1734
  23402441.079    -4977099.470 7  -3863698.35645  23402440.916    23402447.0354
  21917711.494   -20534139.433 8 -15967775.60447  21917711.004    21917716.9744
  23053907.384   -13802277.670 8 -10234988.37346  23053906.903    23053916.0134
  22485141.453    -7789638.704 8  -6047571.24846  22485141.430    22485147.1054
  24243194.603    -4054658.598 7  -3139682.19745  24243194.255    24243207.8124
 01  5 25  2 59  0.0000000  0  8 25 11 21 14 20 01 29 22
  20818503.672                                    20818507.152    20818707.2034
  21285537.356   -24415688.053 9 -19011143.87147  21285537.139    21285543.1394
  24028947.796      448592.873 8    336583.56845  24028947.217    24028957.8204
  23417134.789    -4899885.572 8  -3803531.71445  23417134.455    23417140.4014
  21903249.234   -20610139.991 8 -16026996.74347  21903248.706    21903254.4254
  23041618.232   -13866854.985 7 -10285308.27246  23041618.019    23041627.2114
  22497400.477    -7725217.099 8  -5997372.64946  22497400.424    22497406.1274
  24224701.699    -4151837.286 7  -3215405.50245  24224701.280    24224714.8304
 01  5 25  2 59 30.0000000  0  8 25 11 21 14 20 01 29 22
  20823289.343                                    20823323.117    20823405.8874
  21291614.802   -24383750.909 9 -18986257.81947  21291614.522    21291620.5664
  24045467.757      535406.666 8    404230.49445  24045467.239    24045478.3914
  23431832.274    -4822650.026 7  -3743348.20945  23431831.791    23431837.9514
  21888819.157   -20685970.897 9 -16086085.69247  21888818.596    21888824.0654
  23029361.458   -13931265.292 8 -10335497.99546  23029361.205    23029370.0514
  22509670.965    -7660735.281 8  -5947127.11346  22509670.959    22509676.6174
  24206199.329    -4249066.490 7  -3291168.16045  24206198.880    24206212.2454
 01  5 25  3  0  0.0000000  0  8 25 11 21 14 20 01 29 22
  20828167.593     3342156.52555                  20828202.629    20828170.4044
  21297793.560   -24351280.456 9 -18960956.18147  21297793.305    21297799.4884
  24062031.463      622449.040 8    472055.63544  24062031.130    24062042.0034
  23446533.589    -4745393.329 7  -3683148.19945  23446533.053    23446539.5364
  21874421.712   -20761630.010 8 -16145040.75547  21874421.134    21874426.4294
  23017136.282   -13995508.458 8 -10385557.50946  23017136.019    23017144.8854
  22521952.846    -7596193.637 8  -5896834.95246  22521952.876    22521958.4684
  24187687.571    -4346343.423 7  -3366967.98145  24187687.064    24187700.6194
 01  5 25  3  0 30.0000000  0  8 25 11 21 14 20 01 29 22
  20833137.672   -25082727.23618   3362508.35945  20833171.959    20833142.9194
  21304073.690   -24318277.427 9 -18935239.55647  21304073.527    21304079.7354
  24078638.624      709719.282 8                  24078638.544    24078648.9284
  23461238.648    -4668115.553 8  -3622931.80045  23461238.303    23461245.0294
  21860057.152   -20837114.997 8 -16203860.15446  21860056.708    21860061.9754
  23004943.072   -14059584.099 8 -10435486.45146  23004942.820    23004951.5274
  22534246.072    -7531592.180 8  -5846496.20946  22534246.066    22534251.7304
  24169167.455    -4443665.150 7  -3442802.70045  24169166.854    24169180.5354
 01  5 25  3  1  0.0000000  0  8 25 11 21 14 20 01 29 22
  20838199.536   -25056127.424 8   3383235.47645  20838199.675    20838204.2374
  21310454.957   -24284743.948 9 -18909109.60247  21310454.819    21310460.9384
  24095288.569      797216.287 7                  24095288.463    24095295.9604
  23475947.988    -4590817.973 8  -3562699.96345  23475947.599    23475954.2264
  21845726.090   -20912424.839 8 -16262543.08447  21845725.619    21845730.9174
  22992781.262   -14123493.160 7 -10485285.61846  22992781.010    22992789.9494
  22546550.442    -7466932.314 8  -5796111.96346  22546550.418    22546556.1324
  24150639.576    -4541029.208 8  -3518670.45045  24150638.960    24150652.3734
 01  5 25  3  1 30.0000000  0  8 25 11 21 14 20 01 29 22
  20843353.012   -25029045.717 8   3404338.12445  20843353.007    20843357.8874
  21316937.190   -24250680.263 9 -18882566.50347  21316937.031    21316943.0564
  24111981.968                                    24111976.628    24112166.5804
  23490661.250    -4513499.556 8  -3502451.90845  23490660.834    23490667.4884
  21831429.091   -20987555.948 8 -16321086.73746  21831428.607    21831433.9484
  22980651.601   -14187234.006 8 -10534953.68246  22980651.327    22980660.3724
  22558866.221    -7402212.903 8  -5745681.31046  22558866.142    22558871.8924
  24132104.735    -4638430.611 8  -3594567.31745  24132104.152    24132116.9114
 01  5 25  3  2  0.0000000  0  8 25 11 21 14 20 01 29 22
  20848597.769   -25001484.392 8   3425814.50246  20848597.597    20848602.8204
  21323519.935   -24216088.323 9 -18855611.75547  21323519.774    21323525.6514
  24128718.369                                    24128715.458    24128659.5844
  23505378.379    -4436161.760 8  -3442188.73545  23505377.915    23505384.4664
  21817166.324   -21062507.258 8 -16379490.31046  21817165.821    21817171.1004
  22968553.244   -14250807.717 8 -10584491.54745  22968553.072    22968562.6104
  22571192.937    -7337435.180 8  -5695205.18946  22571192.809    22571198.7414
  24113563.466    -4735867.252 8  -3670491.69345  24113562.599    24113574.8614
 01  5 25  3  2 30.0000000  0  8 25 11 21 14 20 01 29 22
  20853932.682   -24973448.149 7   3447660.95646  20853932.533    20853937.9274
  21330202.331   -24180972.755 9 -18828249.00447  21330202.128    21330208.0454
  24145496.851     -238484.24753                  24145495.052    24145358.3134
  23520098.658    -4358808.209 8  -3381913.27945  23520098.095    23520104.4764
  21802937.519   -21137279.826 8 -16437754.59546  21802936.981    21802942.3044
  22956486.844   -14314217.588 8 -10633901.72746  22956486.843    22956495.9994
  22583529.903    -7272602.645 8  -5644686.38746  22583529.877    22583536.0964
  24095014.957    -4833339.550 7  -3746443.86845  24095014.169    24095026.2214
 01  5 25  3  3  0.0000000  0  8 25 11 21 14 20 01 29 22
  20859358.305   -24944935.505 8   3469878.60746  20859358.197    20859363.6344
  21336984.549   -24145332.440 9 -18800477.33947  21336984.303    21336990.2604
  24162318.123                                    24162329.477    24162196.6154
  23534822.076    -4281436.904 8  -3321623.99245  23534821.393    23534827.8454
  21788743.409   -21211869.178 8 -16495876.14846  21788742.927    21788748.3344
  22944452.666   -14377461.114 8 -10683182.28046  22944452.445    22944461.0694
  22595877.859    -7207713.482 7  -5594123.44246  22595877.780    22595884.1794
  24076460.816    -4930842.084 7  -3822419.57245  24076460.013    24076471.7434
 01  5 25  3  3 30.0000000  0  8 25 11 21 14 20 01 29 22
  20864874.504   -24915946.396 7   3492467.53346  20864874.419    20864880.0644
  21343866.497   -24109167.547 9 -18772296.94047  21343866.299    21343872.2284
  24179181.986                                    24179212.200    24179063.3574
  23549548.894    -4204046.965 8  -3261320.19945  23549548.237    23549554.5934
  21774584.875   -21286271.996 8 -16553852.34246  21774584.399    21774589.9224
  22932450.071   -14440536.847 8 -10732332.11146  22932449.815    22932457.9204
  22608236.592    -7142766.510 7  -5543515.45546  22608236.664    22608243.3004
  24057901.237    -5028370.207 7  -3898415.24045  24057900.392    24057911.6994
 01  5 25  3  4  0.0000000  0  8 25 11 21 14 20 01 29 22
  20870480.823   -24886484.549 7   3515424.83146  20870480.777    20870486.4484
  21350847.623   -24072481.831 9 -18743710.68347  21350847.446    21350853.2544
  24196087.756                                    24196143.129    24196039.6544
  23564278.813    -4126640.931 8  -3201003.84445  23564278.249    23564284.4854
  21760461.943   -21360488.324 8 -16611683.20446  21760461.416    21760467.0354
  22920478.615   -14503447.205 8 -10781353.02746  22920478.274    22920486.3054
  22620605.911    -7077764.598 7  -5492864.65246  22620605.901    22620612.7704
  24039337.307    -5125922.589 7  -3974429.87744  24039336.405    24039347.7364
 01  5 25  3  4 30.0000000  0  8 25 11 21 14 20 01 29 22
  20876176.728   -24856551.616 7   3538749.20646  20876176.763    20876182.4374
  21357927.528   -24035277.391 9 -18714720.22747  21357927.324    21357933.0834
  24213035.488                                    24213032.147    24212977.5464
  23579011.589    -4049219.936 8  -3140675.84345  23579011.040    23579017.1794
  21746374.815   -21434516.795 8 -16669367.70746  21746374.209    21746379.8804
  22908538.320   -14566192.611 8 -10830245.44446  22908538.000    22908546.1254
  22632985.321    -7012708.521 7  -5442171.63945  22632985.501    22632992.6774
  24020768.792    -5223497.032 6  -4050461.66144  24020768.072    24020779.7644
 01  5 25  3  5  0.0000000  0  8 25 11 21 14 20 01 29 22
  20881962.674   -24826146.939 8   3562441.19646  20881962.728    20881968.2084
  21365106.253   -23997553.185 9 -18685324.76947  21365106.025    21365111.8004
  24230025.550                                    24230022.075    24229979.3334
  23593747.309    -3971782.121 8  -3080334.74845  23593746.829    23593753.0114
  21732323.960   -21508353.090 8 -16726902.45446  21732323.516    21732329.3334
  22896630.003   -14628770.788 8 -10879007.57246  22896629.713    22896637.6584
  22645375.683    -6947596.310 8  -5391434.87245  22645375.972    22645383.2594
  24002197.663    -5321088.333 7  -4126506.44744  24002197.015    24002208.0634
 01  5 25  3  5 30.0000000  0  8 25 11 21 14 20 01 29 22
  20887837.580   -24795273.859 7   3586498.14346  20887837.561    20887843.0934
  21372383.054   -23959313.201 9 -18655527.40747  21372382.827    21372388.7254
  24247057.329                                    24247053.614    24247003.4264
  23608485.871    -3894330.112 8  -3019982.56846  23608485.545    23608491.5424
  21718309.777   -21581997.583 8 -16784287.75946  21718309.357    21718315.1734
  22884753.073   -14691184.356 8 -10927641.41446  22884752.716    22884760.7304
  22657776.443    -6882430.804 7  -5340656.57845  22657776.628    22657783.8914
  23983623.062    -5418695.905 7  -4202563.93644  23983622.604    23983633.4134
 01  5 25  3  6  0.0000000  0  8 25 11 21 14 20 01 29 22
  20893801.397   -24763933.036 7   3610919.59146  20893801.452    20893806.9174
  21379757.855   -23920558.295 9 -18625328.79347  21379757.652    21379763.6744
  24264130.024                                    24264125.595    24264069.7724
  23623227.456    -3816863.556 8  -2959619.08646  23623227.080    23623232.9294
  21704332.748   -21655447.126 8 -16841521.15046  21704332.254    21704338.1414
  22872907.719   -14753432.294 8 -10976146.20546  22872907.365    22872915.3514
  22670187.153    -6817211.598 7  -5289836.41945  22670187.426    22670194.7354
  23965046.529    -5516315.129 7  -4278630.54044  23965045.835    23965056.9664
 01  5 25  3  6 30.0000000  0  8 25 11 21 14 20 01 29 22
  20899854.581   -24732124.791 7   3635705.25446  20899854.442    20899859.8354
  21387230.595   -23881288.565 9 -18594729.02747  21387230.389    21387236.5144
  24281244.495                                    24281240.417    24281177.3784
  23637971.857    -3739381.678 8  -2899243.63346  23637971.533    23637977.4044
  21690393.365   -21728698.683 8 -16898600.26447  21690392.854    21690398.7444
  22861093.884   -14815513.544 8 -11024521.13946  22861093.595    22861101.4064
  22682608.657    -6751937.571 7  -5238973.55445  22682608.826    22682615.8204
  23946468.738    -5613941.721 7  -4354702.95144  23946468.126    23946479.2504
 01  5 25  3  7  0.0000000  0  7 25 11 14 20 01 29 22
  20905995.944   -24699852.030 7   3660852.89646  20905995.730    20906001.0994
  21394800.885   -23841506.746 9 -18563730.22847  21394800.657    21394806.6734
  23652718.768    -3661885.782 8  -2838857.26646  23652718.424    23652724.6494
  21676491.876   -21801751.052 8 -16955524.14147  21676491.417    21676497.2704
  22849311.685   -14877429.319 8 -11072767.04546  22849311.271    22849319.0914
  22695040.133    -6686610.361 7  -5188069.25245  22695040.291    22695047.1154
  23927890.173    -5711573.888 7  -4430779.74245  23927889.279    23927900.4254
 01  5 25  3  7 30.0000000  0  7 25 11 14 20 01 29 22
  20912225.311   -24667117.480 7   3686360.38846  20912224.978    20912230.1944
  21402467.994   -23801216.124 9 -18532334.95647  21402467.740    21402473.6124
  23667468.012    -3584377.979 8  -2778461.59846  23667467.663    23667474.0604
  21662628.447   -21874603.839 8 -17012292.52547  21662627.975    21662633.9614
  22837560.697   -14939181.183 8 -11120885.29546  22837560.266    22837567.8244
  22707481.287    -6621231.982 7  -5137125.11645  22707481.428    22707488.2644
  23909310.535    -5809210.434 7  -4506859.91245  23909309.550    23909320.8284
 01  5 25  3  8  0.0000000  0  7 25 11 14 20 01 29 22
  20918541.759   -24633921.717 7   3712227.21046  20918541.536    20918547.1274
  21410231.577   -23760417.920 9 -18500544.18047  21410231.286    21410237.2164
  23682219.715    -3506858.294 8  -2718056.68046  23682219.241    23682225.6184
  21648803.572   -21947254.312 8 -17068903.26547  21648802.996    21648809.0754
  22825840.926   -15000768.697 8 -11168875.45546  22825840.460    22825847.6994
  22719932.237    -6555802.149 7  -5086140.83045  22719932.398    22719939.2204
  23890730.743    -5906847.380 7  -4582940.38845  23890729.642    23890741.0284
 01  5 25  3  8 30.0000000  0  7 25 11 14 20 01 29 22
  20924946.405   -24600265.878 8   3738452.55346  20924946.151    20924951.5224
  21418091.506   -23719113.001 9 -18468358.54947  21418091.194    21418097.2444
  23696973.483    -3429326.473 8  -2657642.32846  23696972.967    23696979.4524
  21635017.529   -22019700.001 9 -17125354.44047  21635017.049    21635023.0884
  22814152.278   -15062191.492 8 -11216737.23846  22814151.842    22814159.2384
  22732393.036    -6490320.732 7  -5035116.35545  22732393.192    22732399.9734
  23872151.328    -6004480.694 7  -4659018.02045  23872150.525    23872161.6014
 01  5 25  3  9  0.0000000  0  7 25 11 14 20 01 29 22
  20931438.413   -24566150.332 7   3765036.10646  20931438.047    20931443.4634
  21426047.880   -23677301.619 9 -18435778.26447  21426047.636    21426053.8324
  23711729.714    -3351781.452 8  -2597217.65746  23711729.252    23711735.8224
  21621271.225   -22091937.548 9 -17181643.40347  21621270.705    21621276.6754
  22802495.309   -15123448.182 8 -11264469.68846  22802494.962    22802502.5984
  22744863.967    -6424786.410 7  -4984050.68545  22744864.008    22744870.8894
  23853573.542    -6102105.671 7  -4735089.15345  23853572.906    23853584.1774
 01  5 25  3  9 30.0000000  0  7 25 11 14 20 01 29 22
  20938016.944   -24531578.549 8   3791975.15446  20938016.862    20938022.3024
  21434100.022   -23634987.742 9 -18402806.43847  21434099.761    21434105.9594
  23726488.054    -3274225.551 8  -2536784.51646  23726487.624    23726494.3064
  21607564.663   -22163966.584 9 -17237769.89447  21607564.144    21607569.9544
  22790869.733   -15184540.833 8 -11312074.27446  22790869.369    22790877.3224
  22757344.222    -6359201.910 7  -4932945.86645  22757344.378    22757351.3204
  23834997.435    -6199721.871 8  -4811153.43245  23834996.955    23835008.0944
 01  5 25  3 10  0.0000000  0  7 25 11 14 20 01 29 22
  20944682.464   -24496552.211 8   3819268.43146  20944682.268    20944687.4394
  21442247.364   -23592173.396 9 -18369444.64647  21442247.101    21442253.2294
  23741248.392    -3196659.742 8  -2476343.66146  23741248.065    23741254.6114
  21593898.135   -22235785.672 8 -17293732.79147  21593897.606    21593903.3314
  22779275.358   -15245469.918 8 -11359551.40446  22779274.996    22779282.9484
  22769834.083    -6293567.833 8  -4881802.42746  22769834.241    22769841.1914
  23816423.730    -6297326.504 8  -4887208.70345  23816423.214    23816434.2614
 01  5 25  3 10 30.0000000  0  7 25 11 14 20 01 29 22
  20951434.099   -24461071.863 8   3846915.48246  20951434.054    20951438.9734
  21450489.765   -23548859.649 9 -18335693.68847  21450489.505    21450495.5774
  23756010.804    -3119083.591 8  -2415894.73846  23756010.416    23756016.8044
  21580271.976   -22307391.865 9 -17349529.78047  21580271.479    21580277.2314
  22767712.364   -15306234.751 8 -11406900.53446  22767711.921    22767719.6934
  22782333.718    -6227883.627 7  -4830619.93246  22782333.768    22782340.4664
  23797853.082    -6394915.146 7  -4963251.58245  23797852.530    23797863.1624
 01  5 25  3 11  0.0000000  0  7 25 11 14 20 01 29 22
  20958271.649   -24425140.745 8   3874913.77646  20958271.590    20958276.3474
  21458826.611   -23505049.089 9 -18301555.60947  21458826.334    21458832.4144
  23770774.809    -3041498.198 8  -2355438.58646  23770774.396    23770780.7824
  21566686.630   -22378783.999 9 -17405159.97547  21566686.123    21566691.8314
  22756180.208   -15366836.529 8 -11454122.57746  22756179.795    22756187.6104
  22794842.551    -6162150.741 7  -4779399.50345  22794842.489    22794849.0074
  23779285.979    -6492485.332 8  -5039280.07045  23779285.363    23779295.5674
 01  5 25  3 11 30.0000000  0  7 25 11 14 20 01 29 22
  20965194.733   -24388759.059 8   3903263.16246  20965194.798    20965199.5774
  21467257.671   -23460742.692 9 -18267031.18147  21467257.437    21467263.5544
  23785540.585    -2963903.213 8  -2294974.96446  23785540.292    23785546.7394
  21553142.659   -22449959.036 9 -17460620.99447  21553142.100    21553147.7044
  22744678.893   -15427274.366 8 -11501216.93846  22744678.557    22744686.4994
  22807360.786    -6096368.452 7  -4728140.60645  22807360.652    22807367.0124
  23760722.993    -6590033.461 8  -5115291.36045  23760722.455    23760732.6564
 01  5 25  3 12  0.0000000  0  7 25 11 14 20 01 29 22
  20972203.314   -24351928.370 8   3931962.40546  20972203.406    20972208.2334
  21475782.846   -23415942.368 9 -18232121.85047  21475782.625    21475788.7824
  23800308.201    -2886299.290 8  -2234504.40246  23800307.790    23800314.3534
  21539640.180   -22520915.135 9 -17515911.42347  21539639.588    21539645.0894
  22733208.688   -15487548.526 8 -11548183.71746  22733208.468    22733216.6344
  22819888.487    -6030537.236 7  -4676843.59445  22819888.130    22819894.4474
  23742164.769    -6687556.687 8  -5191283.28545  23742164.223    23742174.5224
 01  5 25  3 12 30.0000000  0  7 25 11 14 20 01 29 22
  20979297.437   -24314648.032 8   3961012.02546  20979297.594    20979302.5444
  21484402.230   -23370647.581 9 -18196827.24047  21484401.998    21484408.1424
  23815077.702    -2808684.396 8  -2174025.29446  23815077.375    23815084.0234
  21526180.095   -22591648.045 9 -17571027.92347  21526179.546    21526184.9404
  22721770.294   -15547657.040 8 -11595021.40946  22721770.096    22721778.3574
  22832425.460    -5964655.427 8  -4625507.13045  22832425.081    22832431.3464
  23723612.281    -6785049.446 7  -5267251.47745  23723611.636    23723622.2224
 01  5 25  3 13  0.0000000  0  7 25 11 14 20 01 29 22
  20986476.069   -24276924.622 8   3990406.88246  20986476.194    20986481.0514
  21493114.489   -23324865.161 9 -18161152.65247  21493114.187    21493120.2104
  23829848.474    -2731063.541 8  -2113541.53746  23829848.089    23829854.7054
  21512762.003   -22662160.245 9 -17625972.44047  21512761.465    21512766.7244
  22710362.752   -15607604.538 8 -11641733.62946  22710362.463    22710370.6584
  22844971.148    -5898727.820 7  -4574134.99245  22844970.775    22844976.9134
  23705065.381    -6882512.736 8  -5343196.66045  23705064.685    23705075.6404
 01  5 25  3 13 30.0000000  0  7 25 11 14 20 01 29 22
  20993738.718   -24238760.208 8   4020145.40246  20993738.767    20993743.4624
  21501918.893   -23278597.525 9 -18125099.97847  21501918.631    21501924.6164
  23844620.328    -2653437.764 8  -2053053.95946  23844619.893    23844626.3654
  21499386.245   -22732450.209 9 -17680743.80847  21499385.695    21499390.8394
  22698985.676   -15667391.680 8 -11688320.94046  22698985.349    22698993.4644
  22857525.256    -5832755.277 8  -4522727.81545  22857524.905    22857530.9884
  23686524.921    -6979943.659 7  -5419116.40645  23686524.121    23686535.0304
 01  5 25  3 14  0.0000000  0  7 25 11 14 20 01 29 22
  21001085.982   -24200150.533 8   4050230.87646  21001085.921    21001090.6914
  21510816.545   -23231840.211 9 -18088665.73447  21510816.301    21510822.1884
  23859394.199    -2575800.812 8  -1992557.66246  23859393.766    23859400.2154
  21486054.269   -22802509.525 9 -17735335.41647  21486053.715    21486058.9414
  22687640.224   -15727012.457 8 -11734778.61646  22687639.874    22687647.8854
  22870088.977    -5766731.906 7  -4471281.04845  22870088.817    22870094.8284
  23667991.429    -7077333.908 7  -5495004.63345  23667990.734    23668002.0304
 01  5 25  3 14 30.0000000  0  7 25 11 14 20 01 29 22
  21008517.022   -24161099.159 8   4080660.52746  21008517.036    21008521.8834
  21519806.608   -23184597.538 9 -18051853.29747  21519806.348    21519812.1254
  23874169.640    -2498155.593 8  -1932054.93046  23874169.266    23874175.6994
  21472766.232   -22872338.363 9 -17789747.43847  21472765.714    21472770.8494
  22676325.635   -15786469.374 8 -11781108.56146  22676325.327    22676333.5774
  22882662.056    -5700660.238 7  -4419796.63945  22882661.743    22882667.8324
  23649465.785    -7174682.455 7  -5570860.41345  23649465.117    23649476.6114
 01  5 25  3 15  0.0000000  0  7 25 11 14 20 01 29 22
  21016031.870   -24121608.466 8   4111432.49547  21016031.893    21016036.7914
  21528888.530   -23136871.972 9 -18014664.56747  21528888.251    21528894.0004
  23888946.406    -2420503.429 8  -1871546.79346  23888946.037    23888952.3874
  21459522.254   -22941935.477 9 -17843978.90547  21459521.702    21459526.9034
  22665042.045   -15845763.003 8 -11827311.28446  22665041.809    22665050.3544
  22895243.744    -5634541.296 7  -4368275.39645  22895243.543    22895249.8454
  23630949.077    -7271986.056 7  -5646681.18645  23630948.486    23630960.2094
 01  5 25  3 15 30.0000000  0  7 25 11 14 20 01 29 22
  21023629.788   -24081681.924 8   4142544.08147  21023629.734    21023634.6984
  21538061.500   -23088667.379 9 -17977102.59547  21538061.230    21538066.9364
  23903724.111    -2342846.206 8  -1811034.69845  23903723.766    23903730.1214
  21446322.466   -23011300.448 9 -17898029.46647  21446321.931    21446327.2154
  22653789.458   -15904895.319 8 -11873388.30946  22653789.239    22653797.5704
  22907834.102    -5568377.127 7  -4316718.90845  22907834.047    22907840.3764
  23612441.404    -7369243.337 8  -5722465.86845  23612440.907    23612452.5404
 01  5 25  3 16  0.0000000  0  7 25 11 14 20 01 29 22
  21031309.993   -24041322.621 8   4173992.90847  21031309.857    21031314.8714
  21547325.137   -23039986.791 9 -17939169.68347  21547324.837    21547330.5744
  23918502.492    -2265185.214 8  -1750519.61345  23918502.075    23918508.4444
  21433167.017   -23080432.209 9 -17951898.31547  21433166.488    21433171.8284
  22642567.430   -15963867.594 8 -11919340.60646  22642567.257    22642575.1414
  22920432.957    -5502169.213 7  -4265128.34645  22920432.974    22920439.1114
  23593943.315    -7466452.194 8  -5798212.84145  23593942.873    23593954.2474
 01  5 25  3 16 30.0000000  0  7 25 11 14 20 01 29 22
  21039072.648   -24000529.321 9   4205779.90947  21039072.643    21039077.4924
  21556679.430   -22990829.762 9 -17900865.54547  21556679.131    21556684.8914
  23933282.057    -2187518.246 7  -1689999.91045  23933281.534    23933287.9484
  21420057.043   -23149326.126 9 -18005581.85047  21420056.483    21420061.7174
  22631376.551   -16022677.804 8 -11965166.62446  22631376.234    22631383.6314
  22933040.616    -5435915.435 7  -4213502.02745  22933040.627    22933046.6134
  23575455.651    -7563607.418 8  -5873917.99146  23575455.082    23575466.2314
 01  5 25  3 17  0.0000000  0  7 25 11 14 20 01 29 22
  21046917.214   -23959306.097 8   4237901.92147  21046917.222    21046921.9474
  21566123.531   -22941200.328 9 -17862193.30647  21566123.303    21566129.0484
  23948062.059    -2109847.820 7  -1629477.51945  23948061.692    23948068.1154
  21406992.088   -23217982.353 9 -18059080.15047  21406991.548    21406996.8224
  22620215.686   -16081327.986 8 -12010867.96346  22620215.381    22620222.6764
  22945656.431    -5369617.656 7  -4161841.44545  22945656.453    22945662.5314
  23556978.403    -7660707.624 8  -5949580.27046  23556977.694    23556988.7244
 01  5 25  3 17 30.0000000  0  7 25 11 14 20 01 29 22
  21054843.345   -23917654.181 9   4270357.94547  21054843.295    21054847.9784
  21575657.236   -22891100.196 9 -17823154.26647  21575657.004    21575662.8014
  23962842.780    -2032173.806 7  -1568952.30545  23962842.301    23962848.9544
  21393972.861   -23286398.122 8 -18112391.10947  21393972.291    21393977.6274
  22609085.354   -16139817.727 8 -12056444.23946  22609085.096    22609092.4894
  22958280.390    -5303276.071 8  -4110146.73145  22958280.673    22958286.9514
  23538512.212    -7757748.768 8  -6025196.52746  23538511.497    23538522.3694
 01  5 25  3 18  0.0000000  0  7 25 11 14 20 01 29 22
  21062851.507   -23875570.364 8   4303150.54147  21062851.522    21062856.3594
  21585281.093   -22840526.780 9 -17783746.47347  21585280.900    21585286.5904
  23977624.650    -1954492.055 7  -1508421.11645  23977624.435    23977631.3724
  21381000.589   -23354566.680 9 -18165509.41847  21381000.102    21381005.6444
  22597986.629   -16198142.633 8 -12101892.13246  22597986.369    22597993.6544
  22970914.188    -5236886.208 8  -4058414.39945  22970914.407    22970920.6954
  23520058.654    -7854722.842 8  -6100760.53946  23520057.903    23520068.6474
 01  5 25  3 18 30.0000000  0  7 25 11 14 20 01 29 22
  21070941.041   -23833059.264 8   4336276.07847  21070941.061    21070946.0444
  21594994.367   -22789484.484 9 -17743973.30547  21594994.116    21594999.6834
  23992408.256    -1876804.860 7  -1447885.67445  23992408.111    23992414.7614
  21368075.527   -23422488.293 9 -18218435.31547  21368075.019    21368080.6854
  22586918.857   -16256305.263 8 -12147213.55546  22586918.591    22586925.6364
  22983556.380    -5170450.910 8  -4006646.68145  22983556.595    22983563.0834
  23501617.738    -7951629.416 8  -6176271.93846  23501617.020    23501627.7984
 01  5 25  3 19  0.0000000  0  7 25 11 14 20 01 29 22
  21079110.574   -23790128.304 8   4369728.78747  21079110.536    21079115.4524
  21604795.226   -22737981.041 9 -17703840.79647  21604795.001    21604800.5184
  24007191.581    -1799118.556 7  -1387350.89745  24007191.468    24007198.1434
  21355196.761   -23490166.709 9 -18271171.69447  21355196.215    21355201.9744
  22575880.719   -16314311.640 8 -12192413.22246  22575880.433    22575887.2304
  22996206.187    -5103976.089 8  -3954848.14145  22996206.368    22996212.7024
  23483189.083    -8048471.383 8  -6251732.96946  23483188.338    23483198.9214
 01  5 25  3 19 30.0000000  0  7 25 11 14 20 01 29 22
  21087359.915   -23746776.938 8   4403509.06047  21087359.875    21087364.8614
  21614683.838   -22686016.237 9 -17663348.76047  21614683.626    21614689.1314
  24021974.998    -1721431.032 7  -1326815.14245  24021974.883    24021981.6534
  21342365.034   -23557597.388 8 -18323715.04547  21342364.499    21342370.2654
  22564872.612   -16372159.368 8 -12237489.23146  22564872.294    22564879.0764
  23008864.049    -5037459.400 8  -3903016.99445  23008864.085    23008870.4834
  23464773.946    -8145242.318 8  -6327138.64146  23464773.146    23464783.3894
 01  5 25  3 20  0.0000000  0  7 25 11 14 20 01 29 22
  21095689.855   -23703001.724 8   4437619.61047  21095689.908    21095695.0474
  21624660.852   -22633587.183 9 -17622494.99947  21624660.569    21624666.0624
  24036759.383    -1643737.269 7  -1266274.59445  24036759.367    24036766.3744
  21329581.860   -23624772.921 9 -18376059.58847  21329581.328    21329587.1094
  22553895.618   -16429843.674 8 -12282437.93246  22553895.303    22553902.1204
  23021530.735    -4970896.262 8  -3851149.66645  23021530.805    23021537.2734
  23446373.804    -8241933.730 7  -6402482.29645  23446373.065    23446383.1804
 01  5 25  3 20 30.0000000  0  7 25 11 14 20 01 29 22
  21104099.953   -23658806.095 8   4472057.74047  21104100.006    21104105.2144
  21634725.303   -22580697.730 8 -17581282.43547  21634725.052    21634730.6784
  24051544.484    -1566039.634 7  -1205730.99144  24051544.583    24051551.6054
  21316847.333   -23691693.043 9 -18428205.09847  21316846.834    21316852.5954
  22542949.373   -16487366.579 8 -12327260.90446  22542949.021    22542955.7934
  23034205.733    -4904288.662 8  -3799247.68045  23034205.851    23034212.4514
  23427988.800    -8338544.697 7  -6477763.37045  23427988.222    23427998.3454
 01  5 25  3 21  0.0000000  0  7 25 11 14 20 01 29 22
  21112589.505   -23614193.170 8   4506821.06247  21112589.558    21112594.7494
  21644876.762   -22527351.370 9 -17539713.88547  21644876.484    21644882.1954
  24066330.623    -1488339.534 7  -1145185.47444  24066330.825    24066337.5034
  21304161.534   -23758357.036 8 -18480151.03147  21304161.036    21304166.8264
  22532033.543   -16544729.289 8 -12371959.03446  22532033.139    22532039.9574
  23046888.824    -4837638.131 7  -3747312.20145  23046888.891    23046895.7474
  23409619.464    -8435073.528 7  -6552980.41145  23409619.019    23409629.2354
 01  5 25  3 21 30.0000000  0  7 25 11 14 20 01 29 22
  21121158.439   -23569163.309 8   4541909.27147  21121158.506    21121163.6284
  21655114.821   -22473549.054 9 -17497790.06147  21655114.586    21655120.3584
  24081117.327    -1410635.842 7  -1084637.12044  24081117.099    24081123.8664
  21291525.303   -23824760.921 8 -18531894.30147  21291524.794    21291530.5374
  22521148.203   -16601930.401 8 -12416531.22446  22521147.904    22521154.7964
  23059580.645    -4770943.203 8  -3695342.16145  23059580.594    23059587.2794
  23391266.428    -8531515.019 7  -6628129.45345  23391266.255    23391276.8234
 01  5 25  3 22  0.0000000  0  7 25 11 14 20 01 29 22
  21129805.712   -23523722.312 8   4577317.85847  21129805.730    21129810.6904
  21665438.743   -22419296.356 8 -17455515.26247  21665438.489    21665444.2244
  24095903.842    -1332932.294 7  -1024088.96144  24095903.582    24095910.4694
  21278938.152   -23890906.352 9 -18583436.16547  21278937.678    21278943.3714
  22510293.131   -16658973.723 8 -12460980.46646  22510292.859    22510299.5784
  23072280.306    -4704207.765 7  -3643340.52845  23072280.063    23072286.4904
  23372930.535    -8627869.015 7  -6703210.26645  23372930.327    23372941.2404
 01  5 25  3 22 30.0000000  0  7 25 11 14 20 01 29 22
  21138530.954   -23477871.443 8   4613045.81847  21138530.960    21138535.8214
  21675848.094   -22364595.303 8 -17412891.11247  21675847.812    21675853.4944
  24110690.219    -1255229.171 7   -963541.05444  24110689.969    24110696.6764
  21266400.653   -23956791.143 8 -18634774.93047  21266400.168    21266405.8974
  22499468.040   -16715859.558 8 -12505307.00946  22499467.723    22499474.3244
  23084986.842    -4637432.283 8  -3591307.68945  23084986.787    23084993.4174
  23354611.679    -8724132.480 7  -6778220.58045  23354611.510    23354622.7124
 01  5 25  3 23  0.0000000  0  7 25 11 14 20 01 29 22
  21147334.358   -23431608.981 8   4649094.48047  21147334.365    21147339.3064
  21686343.226   -22309443.859 8 -17369915.98647  21686342.937    21686348.6434
  24125477.314    -1177522.427 7                  24125477.410    24125482.8154
  21253913.866   -24022409.218 9 -18685905.88647  21253913.392    21253919.1704
  22488673.494   -16772584.080 8 -12549507.83546  22488673.185    22488679.8734
  23097702.021    -4570612.639 8  -3539240.43345  23097702.073    23097708.7564
  23336311.901    -8820298.290 7  -6853154.78045  23336311.538    23336322.8654
 01  5 25  3 23 30.0000000  0  7 25 11 14 20 01 29 22
  21156215.147   -23384940.541 9   4685459.50847  21156215.127    21156220.0814
  21696922.686   -22253848.650 9 -17326595.08447  21696922.353    21696928.0434
  24140264.814    -1099816.803 7                  24140264.301    24140270.4674
  21241477.601   -24087762.561 8 -18736830.55047  21241477.081    21241482.7904
  22477908.990   -16829151.447 8 -12593586.23146  22477908.718    22477915.2654
  23110424.950    -4503753.286 8  -3487142.25645  23110425.055    23110431.7984
  23318030.553    -8916367.724 7  -6928013.87445  23318030.025    23318041.0504
 01  5 25  3 24  0.0000000  0  7 25 11 14 20 01 29 22
  21165173.310   -23337865.198 8   4722141.60547  21165173.246    21165178.2374
  21707586.593   -22197809.236 8 -17282928.03247  21707586.241    21707591.8854
  24155052.292    -1022109.796 7                  24155051.686    24155057.6254
  21229092.648   -24152846.248 9 -18787545.09447  21229092.145    21229097.7764
  22467174.940   -16885559.181 8 -12637540.20846  22467174.609    22467181.0814
  23123156.059    -4436851.702 8  -3435011.17745  23123156.172    23123162.9554
  23299768.610    -9012334.145 7  -7002792.75345  23299768.047    23299778.7524
 01  5 25  3 24 30.0000000  0  7 25 11 14 20 01 29 22
  21174208.676   -23290382.936 8   4759140.78047  21174208.760    21174213.8224
  21718334.812   -22141326.137 8 -17238915.26047  21718334.520    21718340.2804
  24169839.891                                    24169834.140    24169959.2024
  21216759.673   -24217656.071 8 -18838046.21847  21216759.203    21216764.8774
  22456471.412   -16941805.488 8 -12681368.41846  22456471.079    22456477.5874
  23135895.637    -4369906.110 8  -3382845.82745  23135895.802    23135902.4054
  23281527.416    -9108191.991 7  -7077486.98145  23281526.784    23281537.2564
 01  5 25  3 25  0.0000000  0  7 25 11 14 20 01 29 22
  21183319.935   -23242503.056 8   4796449.77047  21183319.992    21183325.0114
  21729165.988   -22084408.273 8 -17194563.71447  21729165.741    21729171.4754
  24184627.147                                    24184621.133    24184622.8274
  21204477.954   -24282196.791 8 -18888337.67347  21204477.536    21204483.1354
  22445797.151   -16997897.523 8 -12725076.40246  22445796.869    22445803.3344
  23148642.094    -4302923.556 8  -3330651.62245  23148642.288    23148648.7034
  23263306.356    -9203945.179 8  -7152099.67245  23263305.608    23263315.9084
 01  5 25  3 25 30.0000000  0  7 25 11 14 20 01 29 22
  21192507.260   -23194223.483 8   4834070.21247  21192507.292    21192512.2534
  21740080.243   -22027054.824 8 -17149872.76647  21740079.945    21740085.5484
  24199414.500                                    24199408.096    24199424.6924
  21192248.430   -24346462.803 8 -18938415.06447  21192248.022    21192253.6594
  22435152.989   -17053831.950 8 -12768661.59146  22435152.747    22435159.2714
  23161396.278    -4235900.928 8  -3278426.22945  23161396.449    23161402.4884
  23245106.452    -9299587.129 7  -7226625.66745  23245105.727    23245115.4244
 01  5 25  3 26  0.0000000  0  6 25 11 20 01 29 22
  21201770.450   -23145546.048 8   4872000.68747  21201770.380    21201775.2324
  21751076.806   -21969267.914 8 -17104844.03947  21751076.533    21751082.1494
  21180071.813   -24410451.822 9 -18988276.62247  21180071.381    21180076.9774
  22424538.827   -17109609.065 8 -12812124.20346  22424538.516    22424545.1974
  23174157.938    -4168838.172 8  -3226169.54645  23174158.113    23174164.1084
  23226928.154    -9395114.672 7  -7301062.54345  23226927.583    23226936.9164
 01  5 25  3 26 30.0000000  0  6 25 11 20 01 29 22
  21211109.253   -23096470.488 9   4910241.37747  21211109.185    21211114.0674
  21762155.889   -21911047.709 8 -17059477.68847  21762155.563    21762161.2144
  21167948.665   -24474159.602 8 -19037919.03447  21167948.115    21167953.7584
  22413954.947   -17165226.753 8 -12855462.58846  22413954.592    22413961.5484
  23186927.460    -4101733.527 8  -3173880.27445  23186927.604    23186933.6514
  23208772.868    -9490521.684 8  -7375405.49145  23208772.221    23208781.3964
 01  5 25  3 27  0.0000000  0  6 25 11 20 01 29 22
  21220523.288   -23046999.025 9   4948790.56547  21220523.228    21220528.2174
  21773316.758   -21852396.644 8 -17013775.58447  21773316.437    21773322.2764
  21155879.297   -24537584.014 8 -19087340.63047  21155878.820    21155884.4284
  22403401.397   -17220685.288 8 -12898676.97146  22403401.078    22403408.2074
  23199704.856    -4034586.883 8  -3121558.26945  23199705.079    23199711.0214
  23190641.372    -9585804.856 7  -7449651.94845  23190640.364    23190649.6114
 01  5 25  3 27 30.0000000  0  6 25 11 20 01 29 22
  21230011.880   -22997135.497 9   4987645.24947  21230011.889    21230016.9484
  21784558.739   -21793318.932 8 -16967741.03647  21784558.464    21784564.4964
  21143863.993   -24600724.939 8 -19136541.33147  21143863.498    21143869.0404
  22392877.801   -17275986.892 8 -12941769.06246  22392877.563    22392884.6744
  23212489.932    -3967400.729 7  -3069205.51845  23212490.177    23212495.8384
  23172533.185    -9680963.109 7  -7523801.07945  23172532.140    23172541.4754
 01  5 25  3 28  0.0000000  0  6 25 11 20 01 29 22
  21239574.634   -22946882.935 9   5026803.07147  21239574.628    21239579.6874
  21795881.257   -21733818.002 8 -16921376.70547  21795881.026    21795887.3164
  21131902.890   -24663581.126 9 -19185520.14747  21131902.438    21131907.7854
  22382384.124   -17331132.534 8 -12984739.60946  22382383.749    22382390.7814
  23225282.310    -3900176.019 7  -3016822.69545  23225282.621    23225287.9734
  23154448.923    -9775994.508 7  -7597851.35645  23154448.039    23154457.2924
 01  5 25  3 28 30.0000000  0  6 25 11 20 01 29 22
  21249211.881   -22896239.030 9   5066265.84447  21249211.856    21249216.8044
  21807284.749   -21673892.363 8 -16874681.41347  21807284.491    21807290.8844
  21119997.181   -24726146.425 9 -19234272.29747  21119996.681    21120001.9064
  22371920.528   -17386118.503 8 -13027585.74546  22371920.122    22371927.2284
  23238082.932    -3832908.933 8  -2964406.82944  23238083.278    23238088.4484
  23136390.532    -9870891.386 8  -7671796.81545  23136389.680    23136398.8044
 01  5 25  3 29  0.0000000  0  7 25 11 14 20 01 29 22
  21258922.296   -22845210.391 9   5106028.43447  21258922.295    21258927.0974
  21818767.612   -21613548.742 8 -16827660.43547  21818767.402    21818773.9884
  24302919.752                                    24302917.720    24302992.6244
  21108146.306   -24788423.134 9 -19282799.56547  21108145.825    21108150.9664
  22361486.356   -17440949.658 8 -13070311.24946  22361486.035    22361493.2444
  23250890.528    -3765604.162 7  -2911961.58744  23250890.723    23250896.2464
  23118357.780    -9965654.563 8  -7745638.06245  23118356.914    23118365.9114
 01  5 25  3 29 30.0000000  0  7 25 11 14 20 01 29 22
  21268705.107   -22793801.058 9   5146087.65947  21268705.122    21268709.9214
  21830329.318   -21552791.672 8 -16780317.31347  21830329.137    21830335.7884
  24317705.496                                    24317702.405    24317717.8634
  21096350.325   -24850411.153 9 -19331101.88347  21096349.821    21096354.9834
  22351081.230   -17495628.308 8 -13112917.90546  22351080.919    22351088.3074
  23263705.392    -3698263.939 7  -2859488.73444  23263705.162    23263710.6844
  23100350.679   -10060282.782 8  -7819374.12645  23100349.920    23100358.7624
 01  5 25  3 30  0.0000000  0  7 25 11 14 20 01 29 22
  21278561.227   -22742007.187 9   5186446.50947  21278561.169    21278565.9024
  21841970.495   -21491618.124 8 -16732649.65447  21841970.199    21841976.7904
  24332488.286                                    24332487.000    24332496.8404
  21084610.759   -24912102.666 9 -19379173.15747  21084610.268    21084615.4724
  22340706.252   -17550148.804 8 -13155401.34546  22340705.981    22340713.4344
  23276527.772    -3630882.739 7  -2806983.90144  23276527.496    23276533.2174
  23082370.849   -10154767.491 8  -7892998.39645  23082370.088    23082378.7354
 01  5 25  3 30 30.0000000  0  7 25 11 14 20 01 29 22
  21288489.999   -22689831.284 9   5227103.04647  21288489.925    21288494.5674
  21853690.395   -21430030.683 8 -16684659.45547  21853690.075    21853696.3444
  24347275.222                                    24347272.404    24347318.0084
  21072927.978   -24973495.626 9 -19427011.77347  21072927.516    21072932.7724
  22330361.305   -17604511.723 8 -13197761.96446  22330360.973    22330368.3434
  23289357.515    -3563460.938 7  -2754447.40445  23289357.464    23289363.0624
  23064418.880   -10249105.751 8  -7966508.54945  23064417.986    23064426.5754
 01  5 25  3 31  0.0000000  0  7 25 11 14 20 01 29 22
  21298490.404   -22637278.798 9   5268053.02547  21298490.322    21298494.9814
  21865487.736   -21368035.297 8 -16636351.42447  21865487.378    21865493.6134
  24362058.324                                    24362056.010    24362058.2264
  21061301.772   -25034591.663 9 -19474619.04747  21061301.275    21061306.5144
  22320045.648   -17658720.641 8 -13240002.59346  22320045.304    22320052.5684
  23302194.534    -3496002.220 7  -2701882.21745  23302194.256    23302200.2274
  23046494.638   -10343297.214 8  -8039904.29845  23046493.695    23046502.3024
 01  5 25  3 31 30.0000000  0  7 25 11 14 20 01 29 22
  21308562.641   -22584348.812 9   5309297.19347  21308562.589    21308567.2034
  21877362.560   -21305631.637 8 -16587725.21747  21877362.307    21877368.6414
  24376840.814                                    24376839.255    24376849.9164
  21049732.923   -25095385.508 9 -19521990.83747  21049732.453    21049737.8784
  22309759.803   -17712773.067 8 -13282121.30846  22309759.465    22309766.7054
  23315039.200    -3428503.863 7  -2649286.13145  23315038.725    23315044.9434
  23028599.511   -10437335.496 7  -8113180.75145  23028598.614    23028607.0514
 01  5 25  3 32  0.0000000  0  7 25 11 14 20 01 29 22
  21318706.132   -22531044.290 9   5350833.16047  21318706.077    21318710.7174
  21889314.541   -21242823.212 8 -16538783.60947  21889314.303    21889320.6264
  24391623.474                                    24391620.792    24391651.7554
  21038221.896   -25155875.949 9 -19569126.21247  21038221.482    21038226.8724
  22299503.516   -17766670.056 8 -13324118.86546  22299503.165    22299510.3984
  23327891.208    -3360966.923 7  -2596659.93945  23327890.777    23327896.8604
  23010733.800   -10531218.361 7  -8186336.06145  23010732.992    23010741.6244
 01  5 25  3 32 30.0000000  0  7 25 11 14 20 01 29 22
  21328921.272   -22477363.093 9   5392662.67647  21328921.265    21328925.9544
  21901344.011   -21179608.315 8 -16489525.28847  21901343.795    21901349.9564
  24406406.401                                    24406403.708    24406409.0244
  21026769.954   -25216056.841 9 -19616020.36547  21026769.510    21026774.7774
  22289277.584   -17820407.636 8 -13365992.20546  22289277.265    22289284.5364
  23340751.124    -3293387.385 7  -2544000.61044  23340750.785    23340757.1444
  22992898.975   -10624938.803 7  -8259364.79845  22992898.298    22992906.9294
 01  5 25  3 33  0.0000000  0  7 25 11 14 20 01 29 22
  21339205.999   -22423316.674 9   5434776.76647  21339205.955    21339210.7564
  21913448.702   -21115999.174 8 -16439959.74447  21913448.435    21913454.3774
  24421187.897                                    24421184.945    24421184.0224
  21015375.538   -25275935.639 9 -19662679.12447  21015375.029    21015380.2564
  22279080.213   -17873995.869 8 -13407749.19146  22279079.904    22279087.0024
  23353617.060    -3225775.027 7  -2491315.71644  23353617.037    23353623.2684
  22975093.569   -10718503.189 7  -8332271.98645  22975092.986    22975102.2004
 01  5 25  3 33 30.0000000  0  6 25 11 20 01 29 22
  21349560.851   -22368901.609 9   5477178.09447  21349560.817    21349565.6704
  21925628.834   -21051992.609 8 -16390084.51847  21925628.563    21925634.3484
  21004039.952   -25335504.515 9 -19709096.37747  21004039.446    21004044.6314
  22268912.302   -17927429.155 8 -13449385.45646  22268911.904    22268918.8994
  23366490.536    -3158124.548 7  -2438601.07844  23366490.287    23366496.6514
  22957320.048   -10811901.728 8  -8405049.93545  22957319.370    22957328.9364
 01  5 25  3 34  0.0000000  0  6 25 11 20 01 29 22
  21359985.696   -22314118.804 9   5519865.99547  21359985.660    21359990.5864
  21937884.165   -20987590.418 8 -16339901.01947  21937883.879    21937889.5774
  20992763.957   -25394760.381 9 -19755269.72947  20992763.472    20992768.5464
  22258773.740   -17980706.930 8 -13490900.53646  22258773.432    22258780.2974
  23379371.203    -3090435.164 7  -2385856.12144  23379370.789    23379377.5524
  22939579.125   -10905130.307 8  -8477695.44045  22939578.271    22939587.7834
 01  5 25  3 34 30.0000000  0  6 25 11 20 01 29 22
  21370480.902   -22258966.302 9   5562841.95947  21370480.844    21370485.8684
  21950214.836   -20922791.182 8 -16289408.12946  21950214.633    21950220.4834
  20981548.726   -25453697.270 9 -19801194.52347  20981548.207    20981553.1754
  22248665.604   -18033825.517 8 -13532291.56146  22248665.220    22248672.0984
  23392259.893    -3022702.956 7  -2333077.69244  23392259.475    23392266.5044
  22921871.597   -10998182.219 8  -8550203.26545  22921871.009    22921880.4324
 01  5 25  3 35  0.0000000  0  6 25 11 20 01 29 22
  21381044.443   -22203454.363 9   5606098.01047  21381044.401    21381049.4384
  21962619.263   -20857605.709 8 -16238614.26146  21962618.996    21962624.9794
  20970392.962   -25512320.973 9 -19846875.26447  20970392.419    20970397.3434
  22238586.143   -18086792.705 8 -13573564.62546  22238585.738    22238592.7384
  23405155.884    -2954935.967 7  -2280272.20244  23405155.397    23405162.4124
  22904197.423   -11091062.127 8  -8622577.03145  22904196.734    22904205.8964
 01  5 25  3 35 30.0000000  0  6 25 11 20 01 29 22
  21391676.240   -22147583.843 9   5649633.48947  21391676.211    21391681.1474
  21975096.897   -20792034.909 8 -16187520.13646  21975096.648    21975102.7194
  20959297.404   -25570627.931 9 -19892309.21547  20959296.861    20959301.8694
  22228535.509   -18139607.192 8 -13614718.70446  22228535.146    22228542.4594
  23418058.399    -2887132.837 7  -2227438.59744  23418058.064    23418065.0434
  22886557.013   -11183764.716 8  -8694812.62346  22886556.366    22886565.1774
 01  5 25  3 36  0.0000000  0  6 25 11 20 01 29 22
  21402376.937   -22091351.861 9   5693450.60547  21402376.843    21402381.6454
  21987648.193   -20726076.481 8 -16136123.99446  21987647.988    21987654.2874
  20948263.379   -25628611.201 9 -19937490.93347  20948262.880    20948267.8724
  22218514.949   -18192264.593 8 -13655750.40046  22218514.643    22218522.1004
  23430968.679    -2819289.038 7  -2174573.28844  23430968.417    23430975.5284
  22868951.736   -11276281.661 8  -8766903.56146  22868951.104    22868959.6904
 01  5 25  3 36 30.0000000  0  6 25 11 20 01 29 22
  21413144.427   -22034768.480 9   5737541.55347  21413144.329    21413149.1074
  22000271.331   -20659741.475 8 -16084434.39746  22000271.189    22000277.4894
  20937289.801   -25686276.725 9 -19982425.05647  20937289.346    20937294.4704
  22208522.854   -18244773.372 8 -13696666.27546  22208522.590    22208529.9084
  23443885.004    -2751412.703 7  -2121682.63944  23443885.166    23443892.1644
  22851380.660   -11368618.061 8  -8838853.85346  22851379.999    22851388.3934
 01  5 25  3 37  0.0000000  0  6 25 11 20 01 29 22
  21423979.709   -21977828.248 9   5781910.57047  21423979.688    21423984.4634
  22012967.360   -20593024.506 8 -16032447.19046  22012967.139    22012973.3994
  20926378.758   -25743614.470 9 -20027103.78447  20926378.320    20926383.4694
  22198560.636   -18297125.979 8 -13737460.43646  22198560.256    22198567.4704
  23456808.848    -2683496.267 7  -2068760.79644  23456809.231    23456815.9324
  22833845.899   -11460763.095 8  -8910655.00146  22833845.188    22833853.4584
 01  5 25  3 37 30.0000000  0  6 25 11 20 01 29 22
  21434881.565   -21920538.664 9   5826551.81947  21434881.500    21434886.2634
  22025734.522   -20525933.962 8 -15980168.85446  22025734.222    22025740.4364
  20915529.466   -25800628.049 9 -20071529.90347  20915528.990    20915534.1244
  22188626.771   -18349328.305 8 -13778137.52246  22188626.493    22188633.6314
  23469739.581    -2615545.424 7  -2015812.11844  23469739.856    23469746.1754
  22816347.022   -11552718.913 8  -8982308.72046  22816346.392    22816354.6214
 01  5 25  3 38  0.0000000  0  6 25 11 20 01 29 22
  21445850.448   -21862897.119 9   5871467.33247  21445850.386    21445855.0174
  22038572.671   -20458467.512 8 -15927597.65046  22038572.455    22038578.9694
  20904743.351   -25857310.117 8 -20115697.69747  20904742.838    20904747.9504
  22178722.542   -18401375.615 8 -13818693.81147  22178722.250    22178729.3534
  23482677.555    -2547555.029 7  -1962832.64044  23482677.892    23482684.0074
  22798885.959   -11644476.834 8  -9053808.21746  22798885.330    22798893.5594
 01  5 25  3 38 30.0000000  0  6 25 11 20 01 29 22
  21456885.673   -21804907.124 9   5916654.32547  21456885.557    21456890.0794
  22051481.685   -20390629.644 8 -15874736.95746  22051481.507    22051488.2604
  20894020.186   -25913660.646 9 -20159607.18347  20894019.651    20894024.7954
  22168847.440   -18453270.038 8 -13859130.97347  22168847.137    22168854.2414
  23495622.512    -2479527.178 7  -1909823.92044  23495622.679    23495628.5594
  22781463.212   -11736035.012 8  -9125152.08746  22781462.482    22781470.4174
 01  5 25  3 39  0.0000000  0  6 25 11 20 01 29 22
  21467986.208   -21746573.541 9   5962109.06347  21467986.053    21467990.5214
  22064460.346   -20322425.806 8 -15821591.13646  22064460.252    22064467.2164
  20883360.069   -25969679.981 8 -20203258.57847  20883359.531    20883364.6434
  22159000.900   -18505014.479 8 -13899451.27047  22159000.543    22159007.5734
  23508574.895    -2411464.670 7  -1856788.19844  23508574.979    23508579.5424
  22764078.152   -11827393.428 8  -9196340.29246  22764077.527    22764085.5254
 01  5 25  3 39 30.0000000  0  6 25 11 20 01 29 22
  21479152.096   -21687895.650 9   6007832.08447  21479151.993    21479156.5804
  22077508.980   -20253855.576 8 -15768159.81446  22077508.868    22077515.7894
  20872763.858   -26025363.124 8 -20246648.01447  20872763.327    20872768.4394
  22149183.223   -18556606.206 8 -13939652.57646  22149182.820    22149189.8744
  23521534.391    -2343364.894 7  -1803723.43444  23521534.689    23521539.2824
  22746732.439   -11918546.008 8  -9267368.08646  22746731.666    22746739.6344
 01  5 25  3 40  0.0000000  0  6 25 11 20 01 29 22
  21490383.095   -21628875.407 9   6053821.88347  21490383.058    21490387.8514
  22090626.739   -20184921.666 8 -15714445.13046  22090626.587    22090633.5394
  20862232.071   -26080707.618 8 -20289773.56147  20862231.558    20862236.6614
  22139394.483   -18608045.102 8 -13979734.78746  22139394.097    22139401.1554
  23534500.778    -2275227.362 7  -1750629.27944  23534500.943    23534506.7704
  22729426.228   -12009488.675 8  -9338232.35646  22729425.597    22729433.6054
 01  5 25  3 40 30.0000000  0  6 25 11 20 01 29 22
  21501678.068   -21569519.328 9   6100073.37647  21501678.128    21501683.0934
  22103812.256   -20115631.218 8 -15660452.62446  22103812.139    22103819.1014
  20851764.244   -26135716.028 8 -20332637.23347  20851763.745    20851768.8854
  22129633.985   -18659336.098 8 -14019701.75946  22129633.674    22129640.6094
  23547473.502    -2207056.925 6  -1697509.48944  23547473.266    23547480.1854
  22712159.851   -12100222.410 8  -9408933.82546  22712159.389    22712167.4224
 01  5 25  3 41  0.0000000  0  6 25 11 20 01 29 22
  21513038.513   -21509820.153 9   6146592.24747  21513038.503    21513043.5114
  22117066.996   -20045977.365 8 -15606176.92346  22117066.873    22117073.7414
  20841362.668   -26190376.556 9 -20375229.84747  20841362.215    20841367.3414
  22119903.591   -18710469.715 8 -14059546.09446  22119903.299    22119910.0204
  23560453.758    -2138844.115 6  -1644356.59244  23560453.596    23560460.7824
  22694935.910   -12190734.371 8  -9479462.46546  22694935.444    22694943.3604
 01  5 25  3 41 30.0000000  0  5 25 11 20 01 22
  21524461.688   -21449791.240 8   6193368.02547  21524461.715    21524466.6484
  22130388.126   -19975974.678 8 -15551629.39046  22130388.060    22130394.9144
  20831025.625   -26244698.596 9 -20417558.67947  20831025.091    20831030.1854
  22110201.169   -18761457.677 8 -14099276.93946  22110200.726    22110207.2064
  22677752.599   -12281033.300 8  -9549825.10246  22677752.039    22677759.9504
 01  5 25  3 42  0.0000000  0  5 25 11 20 01 22
  21535947.883   -21389431.328 8   6240401.72047  21535947.804    21535952.7304
  22143776.102   -19905622.013 8 -15496809.17546  22143775.972    22143782.6554
  20820753.964   -26298676.585 9 -20459619.44047  20820753.462    20820758.5134
  22100526.921   -18812296.556 8 -14138891.60346  22100526.404    22100532.8354
  22660610.969   -12371112.159 8  -9620016.27946  22660610.416    22660618.3014
 01  5 25  3 42 30.0000000  0  5 25 11 20 01 22
  21547497.807   -21328735.640 8   6287697.05947  21547497.778    21547502.7024
  22157231.322   -19834915.303 8 -15441713.10046  22157231.118    22157237.4864
  20810549.511   -26352301.540 9 -20501405.08647  20810548.987    20810553.9874
  22090881.833   -18862979.679 8 -14178384.91046  22090881.432    22090888.1154
  22643513.250   -12460960.349 8  -9690027.68746  22643512.743    22643520.5364
 01  5 25  3 43  0.0000000  0  5 25 11 20 01 22
  21559110.629   -21267709.549 8   6335249.89247  21559110.658    21559115.6364
  22170752.764   -19763860.498 8 -15386345.73846  22170752.418    22170758.6434
  20800412.012   -26405574.552 9 -20542916.50747  20800411.485    20800416.3994
  22081265.824   -18913510.566 8 -14217759.59546  22081265.498    22081272.4244
  22626459.584   -12550577.453 7  -9759859.05945  22626459.038    22626466.6754
 01  5 25  3 43 30.0000000  0  5 25 11 20 01 22
  21570787.022   -21206350.292 8   6383062.28047  21570786.915    21570791.9594
  22184340.437   -19692455.688 8 -15330705.68146  22184340.142    22184346.2684
  20790342.858   -26458488.545 9 -20584148.15847  20790342.296    20790347.1924
  22071679.777   -18963884.742 8 -14257012.13647  22071679.454    22071686.5254
  22609451.072   -12639955.664 7  -9829504.29045  22609450.594    22609458.4044
 01  5 25  3 44  0.0000000  0  5 25 11 20 01 22
  21582524.019   -21144671.139 8   6431123.97347  21582524.020    21582529.1594
  22197992.067   -19620714.649 8 -15274803.59646  22197991.790    22197998.0844
  20780340.151   -26511052.588 9 -20625107.14047  20780339.600    20780344.5554
  22062121.451   -19014113.377 8 -14296151.30847  22062121.092    22062128.4384
  22592486.704   -12729103.050 7  -9898969.66045  22592486.227    22592494.1204
 01  5 25  3 44 30.0000000  0  5 25 11 20 01 22
  21594322.954   -21082667.176 8   6479438.76547  21594322.991    21594328.1004
  22211708.760   -19548632.858 8 -15218635.99846  22211708.504    22211714.7244
  20770405.895   -26563257.085 9 -20665785.95347  20770405.348    20770410.3464
  22052592.049   -19064189.466 8 -14335171.61247  22052591.758    22052599.2914
  22575568.355   -12818008.844 7  -9968246.78945  22575567.960    22575575.7734
 01  5 25  3 45  0.0000000  0  5 25 11 20 01 22
  21606182.802   -21020343.922 8   6528002.34447  21606182.751    21606187.8184
  22225489.269   -19476216.766 8 -15162207.92446  22225489.023    22225495.0714
  20760539.717   -26615103.512 9 -20706185.73847  20760539.178    20760544.3344
  22043091.214   -19114116.592 8 -14374075.80847  22043090.976    22043098.4594
  22558696.128   -12906672.721 8 -10037335.39846  22558695.610    22558703.4324
 01  5 25  3 45 30.0000000  0  5 25 11 20 01 22
  21618103.265   -20957701.823 8   6576814.38346  21618103.139    21618108.1244
  22239333.165   -19403467.614 8 -15105520.26846  22239332.880    22239338.7664
  20750742.344   -26666588.464 9 -20746303.86547  20750741.811    20750746.9834
  22033619.162   -19163893.648 8 -14412863.10347  22033618.783    22033626.1394
  22541870.717   -12995089.769 8 -10106231.68246  22541870.288    22541878.1614
 01  5 25  3 46  0.0000000  0  5 25 11 20 01 22
  21630083.319   -20894745.409 8   6625871.35446  21630083.255    21630088.2864
  22253239.432   -19330390.588 8 -15048577.20946  22253239.143    22253244.9074
  20741013.680   -26717712.073 9 -20786140.40647  20741013.165    20741018.4584
  22024175.058   -19213523.057 8 -14451535.31247  22024174.701    22024181.9794
  22525092.900   -13083259.554 8 -10174935.28946  22525092.224    22525099.8574
 01  5 25  3 46 30.0000000  0  5 25 11 20 01 22
  21642122.159   -20831479.870 8   6675169.19846  21642122.131    21642127.2504
  22267206.892   -19256991.297 8 -14991382.99646  22267206.543    22267212.3414
  20731353.672   -26768475.220 9 -20825696.07347  20731353.183    20731358.4754
  22014758.440   -19263007.978 8 -14490094.92347  22014758.050    22014765.2704
  22508361.790   -13171181.787 8 -10243445.99146  22508361.116    22508368.6274
 01  5 25  3 47  0.0000000  0  5 25 11 20 01 22
  21654221.406   -20767897.454 8   6724713.94146  21654221.385    21654226.5314
  22281236.951   -19183263.157 8 -14933932.54146  22281236.681    22281242.3754
  20721764.558   -26818866.151 9 -20864961.69947  20721764.141    20721769.3964
  22005371.095   -19312339.100 8 -14528534.69347  22005370.769    22005377.7714
  22491680.254   -13258843.028 8 -10311753.34046  22491679.615    22491686.9894
 01  5 25  3 47 30.0000000  0  5 25 11 20 01 22
  21666380.556   -20704000.115 8   6774504.09246  21666380.527    21666385.7794
  22295329.233   -19109208.313 8 -14876227.49946  22295328.995    22295334.6164
  20712247.065   -26868881.924 9 -20903934.98347  20712246.530    20712251.6464
  21996013.126   -19361515.845 8 -14566854.16147  21996012.767    21996019.4374
  22475049.326   -13346239.026 8 -10379853.94246  22475048.628    22475055.9404
 01  5 25  3 48  0.0000000  0  5 25 11 20 01 22
  21678597.171   -20639799.951 8   6824530.19846  21678597.210    21678602.6744
  22309481.279   -19034839.903 8 -14818278.11846  22309480.997    22309486.5384
  20702799.200   -26918531.047 9 -20942622.56747  20702798.661    20702803.6434
  21986682.348   -19410548.984 8 -14605061.70247  21986682.067    21986688.4974
  22458467.453   -13433377.060 8 -10447753.55745  22458466.698    22458473.7464
 01  5 25  3 48 30.0000000  0  5 25 11 20 01 22
  21690873.177   -20575288.933 8   6874798.52346  21690873.201    21690878.6484
  22323694.377   -18960150.306 8 -14760078.46646  22323694.009    22323699.5734
  20693423.326   -26967800.985 9 -20981014.68147  20693422.832    20693427.8804
  21977380.873   -19459428.251 8 -14643149.36446  21977380.556    21977386.7884
  22441937.074   -13520243.770 8 -10515441.73345  22441936.251    22441943.4924
 01  5 25  3 49  0.0000000  0  5 25 11 20 01 22
  21703207.278   -20510473.633 8   6925303.93546  21703207.292    21703212.5244
  22337966.988   -18885146.766 8 -14701634.17846  22337966.658    22337972.3864
  20684119.261   -27016693.889 9 -21019113.00147  20684118.793    20684123.7544
  21968107.753   -19508157.940 8 -14681120.45847  21968107.496    21968113.8434
  22425458.171   -13606839.958 8 -10582919.12945  22425457.350    22425464.5674
 01  5 25  3 49 30.0000000  0  5 25 11 20 01 22
  21715597.695   -20445362.234 8   6976040.12846  21715597.704    21715602.6724
  22352297.642   -18809838.473 8 -14642952.42746  22352297.297    22352303.2894
  20674886.135   -27065213.916 9 -21056920.77147  20674885.695    20674890.5814
  21958861.972   -19556744.552 8 -14718980.09147  21958861.756    21958868.1424
  22409030.420   -13693168.019 8 -10650187.58246  22409029.552    22409036.8324
 01  5 25  3 50  0.0000000  0  5 25 11 20 01 22
  21728045.788   -20379946.718 8   7027013.24646  21728045.877    21728050.8964
  22366687.643   -18734218.012 8 -14584027.39646  22366687.275    22366693.5314
  20665726.427   -27113348.773 9 -21094428.40247  20665725.986    20665730.7674
  21949645.404   -19605178.071 8 -14756720.41947  21949645.177    21949651.4544
  22392656.206   -13779214.432 8 -10717236.56546  22392655.387    22392662.7234
 01  5 25  3 50 30.0000000  0  5 25 11 20 01 22
  21740550.183   -20314234.214 8   7078217.80346  21740550.440    21740555.6274
  22381135.682   -18658292.909 8 -14524865.01246  22381135.322    22381141.6404
  20656639.468   -27161101.165 9 -21131638.01247  20656639.036    20656643.8484
  21940457.086   -19653463.282 8 -14794345.17447  21940456.828    21940462.9664
  22376335.474   -13864980.856 8 -10784067.41146  22376334.616    22376341.9044
 01  5 25  3 51  0.0000000  0  5 25 11 20 01 22
  21753110.378   -20248228.969 7   7129650.44246  21753110.745    21753116.0464
  22395640.730   -18582068.233 8 -14465469.16046  22395640.421    22395646.6824
  20647625.294   -27208471.163 9 -21168549.66547  20647624.827    20647629.6634
  21931296.554   -19701602.747 8 -14831856.38147  21931296.289    21931302.4194
  22360067.945   -13950466.572 8 -10850679.52146  22360067.118    22360074.6844
 01  5 25  3 51 30.0000000  0  5 25 11 20 01 22
  21765727.013   -20181929.534 8   7181312.35646  21765727.250    21765732.3404
  22410202.843   -18505543.610 8 -14405839.61246  22410202.590    22410208.7194
  20638684.826   -27255453.374 9 -21205159.13847  20638684.396    20638689.2434
  21922164.296   -19749593.420 9 -14869251.64747  21922164.041    21922170.0914
  22343855.038   -14035664.522 8 -10917067.39046  22343854.322    22343861.9874
 01  5 25  3 52  0.0000000  0  5 25 11 20 01 22
  21778398.401   -20115342.378 8   7233198.44846  21778398.538    21778403.4284
  22424820.730   -18428726.078 8 -14345981.82546  22424820.480    22424826.4604
  20629817.830   -27302049.725 9 -21241467.94647  20629817.395    20629822.1864
  21913059.592   -19797439.510 8 -14906534.24747  21913059.285    21913065.2594
  22327696.797   -14120575.033 8 -10983231.31146  22327696.238    22327703.7784
 01  5 25  3 52 30.0000000  0  5 25 11 20 01 22
  21791124.791   -20048465.832 8   7285310.05946  21791124.968    21791129.5074
  22439494.399   -18351614.909 8 -14285895.22946  22439494.171    22439500.3114
  20621025.343   -27348254.890 9 -21277471.94047  20621024.842    20621029.6194
  21903982.804   -19845137.481 8 -14943701.42647  21903982.499    21903988.5194
  22311594.720   -14205191.268 8 -11049165.90746  22311594.255    22311601.6074
